[[{"header":{"parameterUnit":"m.s-1","parameterCategory":1,"la1":30.6,"la2":28.766,"lo1":-90.7593,"lo2":-88.6598,"dy":0.0162,"dx":0.0183,"nx":116,"ny":114,"refTime":"2023-10-07T12:00:00:Z","depth":0,"parameterNumber":2,"parameterNumberName":"U-component_of_WINDS"},"data":[0.0,0.0,0.0,0.0,0.0,0.0,0.0,0.0,0.0,0.0,0.0,0.0,0.0,0.0,0.0,0.0,0.0,0.0,0.0,0.0,0.0,0.0,0.0,0.0,0.0,0.0,0.0,0.0,0.0,0.0,0.0,0.0,0.0,0.0,0.0,0.0,0.0,0.0,0.0,0.0,0.0,0.0,0.0,0.0,0.0,0.0,0.0,0.0,0.0,0.0,0.0,0.0,0.0,0.0,0.0,0.0,0.0,0.0,0.0,0.0,0.0,0.0,0.0,0.0,0.0,0.0,0.0,0.0,0.0,0.0,0.0,0.0,0.0,0.0,0.0,0.0,0.0,0.0,0.0,0.0,0.0,0.0,0.0,0.0,0.0,0.0,0.0,0.0,0.0,0.0,0.0,0.0,0.0,0.0,0.0,0.0,0.0,0.0,0.0,0.0,0.0,0.0,0.0,0.0,0.0,0.0,0.0,0.0,0.0,0.0,0.0,0.0,0.0,0.0,0.0,0.0,0.0,0.0,0.0,0.0,0.0,0.0,0.0,0.0,0.0,0.0,0.0,0.0,0.0,0.0,0.0,0.0,0.0,0.0,0.0,0.0,0.0,0.0,0.0,0.0,0.0,0.0,0.0,0.0,0.0,0.0,0.0,0.0,0.0,0.0,0.0,0.0,0.0,0.0,0.0,0.0,0.0,0.0,0.0,0.0,0.0,0.0,0.0,0.0,0.0,0.0,0.0,0.0,0.0,0.0,0.0,0.0,0.0,0.0,0.0,0.0,0.0,0.0,0.0,0.0,0.0,0.0,0.0,0.0,0.0,0.0,0.0,0.0,0.0,0.0,0.0,0.0,0.0,0.0,0.0,0.0,0.0,0.0,0.0,0.0,0.0,0.0,0.0,0.0,0.0,0.0,0.0,0.0,0.0,0.0,0.0,0.0,0.0,0.0,0.0,0.0,0.0,0.0,0.0,0.0,0.0,0.0,0.0,0.0,0.0,0.0,0.0,0.0,0.0,0.0,0.0,0.0,0.0,0.0,0.0,0.0,0.0,0.0,0.0,0.0,0.0,0.0,0.0,0.0,0.0,0.0,0.0,0.0,0.0,0.0,0.0,0.0,0.0,0.0,0.0,0.0,0.0,0.0,0.0,0.0,0.0,0.0,0.0,0.0,0.0,0.0,0.0,0.0,0.0,0.0,0.0,0.0,0.0,0.0,0.0,0.0,0.0,0.0,0.0,0.0,0.0,0.0,0.0,0.0,0.0,0.0,0.0,0.0,0.0,0.0,0.0,0.0,0.0,0.0,0.0,0.0,0.0,0.0,0.0,0.0,0.0,0.0,0.0,0.0,0.0,0.0,0.0,0.0,0.0,0.0,0.0,0.0,0.0,0.0,0.0,0.0,0.0,0.0,0.0,0.0,0.0,0.0,0.0,0.0,0.0,0.0,0.0,0.0,0.0,0.0,0.0,0.0,0.0,0.0,0.0,0.0,0.0,0.0,0.0,0.0,0.0,0.0,0.0,0.0,0.0,0.0,0.0,0.0,0.0,0.0,0.0,0.0,0.0,0.0,0.0,0.0,0.0,0.0,0.0,0.0,0.0,0.0,0.0,0.0,0.0,0.0,0.0,0.0,0.0,0.0,0.0,0.0,0.0,0.0,0.0,0.0,0.0,0.0,0.0,0.0,0.0,0.0,0.0,0.0,0.0,0.0,0.0,0.0,0.0,0.0,0.0,0.0,0.0,0.0,0.0,0.0,0.0,0.0,0.0,0.0,0.0,0.0,0.0,0.0,0.0,0.0,0.0,0.0,0.0,0.0,0.0,0.0,0.0,0.0,0.0,0.0,0.0,0.0,0.0,0.0,0.0,0.0,0.0,0.0,0.0,0.0,0.0,0.0,0.0,0.0,0.0,0.0,0.0,0.0,0.0,0.0,0.0,0.0,0.0,0.0,0.0,0.0,0.0,0.0,0.0,0.0,0.0,0.0,0.0,0.0,0.0,0.0,0.0,0.0,0.0,0.0,0.0,0.0,0.0,0.0,0.0,0.0,0.0,0.0,0.0,0.0,0.0,0.0,0.0,0.0,0.0,0.0,0.0,0.0,0.0,0.0,0.0,0.0,0.0,0.0,0.0,0.0,0.0,0.0,0.0,0.0,0.0,0.0,0.0,0.0,0.0,0.0,0.0,0.0,0.0,0.0,0.0,0.0,0.0,0.0,0.0,0.0,0.0,0.0,0.0,0.0,0.0,0.0,0.0,0.0,0.0,0.0,0.0,0.0,0.0,0.0,0.0,0.0,0.0,0.0,0.0,0.0,0.0,0.0,0.0,0.0,0.0,0.0,0.0,0.0,0.0,0.0,0.0,0.0,0.0,0.0,0.0,0.0,0.0,0.0,0.0,0.0,0.0,0.0,0.0,0.0,0.0,0.0,0.0,0.0,0.0,0.0,0.0,0.0,0.0,0.0,0.0,0.0,0.0,0.0,0.0,0.0,0.0,0.0,0.0,0.0,0.0,0.0,0.0,0.0,0.0,0.0,0.0,0.0,0.0,0.0,0.0,0.0,0.0,0.0,0.0,0.0,0.0,0.0,0.0,0.0,0.0,0.0,0.0,0.0,0.0,0.0,0.0,0.0,0.0,0.0,0.0,0.0,0.0,0.0,0.0,0.0,0.0,0.0,0.0,0.0,0.0,0.0,0.0,0.0,0.0,0.0,0.0,0.0,0.0,0.0,0.0,0.0,0.0,0.0,0.0,0.0,0.0,0.0,0.0,0.0,0.0,0.0,0.0,0.0,0.0,0.0,0.0,0.0,0.0,0.0,0.0,0.0,0.0,0.0,0.0,0.0,0.0,0.0,0.0,0.0,0.0,0.0,0.0,0.0,0.0,0.0,0.0,0.0,0.0,0.0,0.0,0.0,0.0,0.0,0.0,0.0,0.0,0.0,0.0,0.0,0.0,0.0,0.0,0.0,0.0,0.0,0.0,0.0,0.0,0.0,0.0,0.0,0.0,0.0,0.0,0.0,0.0,0.0,0.0,0.0,0.0,0.0,0.0,0.0,0.0,0.0,0.0,0.0,0.0,0.0,0.0,0.0,0.0,0.0,0.0,0.0,0.0,0.0,0.0,0.0,0.0,0.0,0.0,0.0,0.0,0.0,0.0,0.0,0.0,0.0,0.0,0.0,0.0,0.0,0.0,0.0,0.0,0.0,0.0,0.0,0.0,0.0,0.0,0.0,0.0,0.0,0.0,0.0,0.0,0.0,0.0,0.0,0.0,0.0,0.0,0.0,0.0,0.0,0.0,0.0,0.0,0.0,0.0,0.0,0.0,0.0,0.0,0.0,0.0,0.0,0.0,0.0,0.0,0.0,0.0,0.0,0.0,0.0,0.0,0.0,0.0,0.0,0.0,0.0,0.0,0.0,0.0,0.0,0.0,0.0,0.0,0.0,0.0,0.0,0.0,0.0,0.0,0.0,0.0,0.0,0.0,0.0,0.0,0.0,0.0,0.0,0.0,0.0,0.0,0.0,0.0,0.0,0.0,0.0,0.0,0.0,0.0,0.0,0.0,0.0,0.0,0.0,0.0,0.0,0.0,0.0,0.0,0.0,0.0,0.0,0.0,0.0,0.0,0.0,0.0,0.0,0.0,0.0,0.0,0.0,0.0,0.0,0.0,0.0,0.0,0.0,0.0,0.0,0.0,0.0,0.0,0.0,0.0,0.0,0.0,0.0,0.0,0.0,0.0,0.0,0.0,0.0,0.0,0.0,0.0,0.0,0.0,0.0,0.0,0.0,0.0,0.0,0.0,0.0,0.0,0.0,0.0,0.0,0.0,0.0,0.0,0.0,0.0,0.0,0.0,0.0,0.0,0.0,0.0,0.0,0.0,0.0,0.0,0.0,0.0,0.0,0.0,0.0,0.0,0.0,0.0,0.0,0.0,0.0,0.0,0.0,0.0,0.0,0.0,0.0,0.0,0.0,0.0,0.0,0.0,0.0,0.0,0.0,0.0,0.0,0.0,0.0,0.0,0.0,0.0,0.0,0.0,0.0,0.0,0.0,0.0,0.0,0.0,0.0,0.0,0.0,0.0,0.0,0.0,0.0,0.0,0.0,0.0,0.0,0.0,0.0,0.0,0.0,0.0,0.0,0.0,0.0,0.0,0.0,0.0,0.0,0.0,0.0,0.0,0.0,0.0,0.0,0.0,0.0,0.0,0.0,0.0,0.0,0.0,0.0,0.0,0.0,0.0,0.0,0.0,0.0,0.0,0.0,0.0,0.0,0.0,0.0,0.0,0.0,0.0,0.0,0.0,0.0,0.0,0.0,0.0,0.0,0.0,0.0,0.0,0.0,0.0,0.0,0.0,0.0,0.0,0.0,0.0,0.0,0.0,0.0,0.0,0.0,0.0,0.0,0.0,0.0,0.0,0.0,0.0,0.0,0.0,0.0,0.0,0.0,0.0,0.0,0.0,0.0,0.0,0.0,0.0,0.0,0.0,0.0,0.0,0.0,0.0,0.0,0.0,0.0,0.0,0.0,0.0,0.0,0.0,0.0,0.0,0.0,0.0,0.0,0.0,0.0,0.0,0.0,0.0,0.0,0.0,0.0,0.0,0.0,0.0,0.0,0.0,0.0,0.0,0.0,0.0,0.0,0.0,0.0,0.0,0.0,0.0,0.0,0.0,0.0,0.0,0.0,0.0,0.0,0.0,0.0,0.0,0.0,0.0,0.0,0.0,0.0,0.0,0.0,0.0,0.0,0.0,0.0,0.0,0.0,0.0,0.0,0.0,0.0,0.0,0.0,0.0,0.0,0.0,0.0,0.0,0.0,0.0,0.0,0.0,0.0,0.0,0.0,0.0,0.0,0.0,0.0,0.0,0.0,0.0,0.0,0.0,0.0,0.0,0.0,0.0,0.0,0.0,0.0,0.0,0.0,0.0,0.0,0.0,0.0,0.0,0.0,0.0,0.0,0.0,0.0,0.0,0.0,0.0,0.0,0.0,0.0,0.0,0.0,0.0,0.0,0.0,0.0,0.0,0.0,0.0,0.0,0.0,0.0,0.0,0.0,0.0,0.0,0.0,0.0,0.0,0.0,0.0,0.0,0.0,0.0,0.0,0.0,0.0,0.0,0.0,0.0,0.0,0.0,0.0,0.0,0.0,0.0,0.0,0.0,0.0,0.0,0.0,0.0,0.0,0.0,0.0,0.0,0.0,0.0,0.0,0.0,0.0,0.0,0.0,0.0,0.0,0.0,0.0,0.0,0.0,0.0,0.0,0.0,0.0,0.0,0.0,0.0,0.0,0.0,0.0,0.0,0.0,0.0,0.0,0.0,0.0,0.0,0.0,0.0,0.0,0.0,0.0,0.0,0.0,0.0,0.0,0.0,0.0,0.0,0.0,0.0,0.0,0.0,0.0,0.0,0.0,0.0,0.0,0.0,0.0,0.0,0.0,0.0,0.0,0.0,0.0,0.0,0.0,0.0,0.0,0.0,0.0,0.0,0.0,0.0,0.0,0.0,0.0,0.0,0.0,0.0,0.0,0.0,0.0,0.0,0.0,0.0,0.0,0.0,0.0,0.0,0.0,0.0,0.0,0.0,0.0,0.0,0.0,0.0,0.0,0.0,0.0,0.0,0.0,0.0,0.0,0.0,0.0,0.0,0.0,0.0,0.0,0.0,0.0,0.0,0.0,0.0,0.0,0.0,0.0,0.0,0.0,0.0,0.0,0.0,0.0,0.0,0.0,0.0,0.0,0.0,0.0,0.0,0.0,0.0,0.0,0.0,0.0,0.0,0.0,0.0,0.0,0.0,0.0,0.0,0.0,0.0,0.0,0.0,0.0,0.0,0.0,0.0,0.0,0.0,0.0,0.0,0.0,0.0,0.0,0.0,0.0,0.0,0.0,0.0,0.0,0.0,0.0,0.0,0.0,0.0,0.0,0.0,0.0,0.0,0.0,0.0,0.0,0.0,0.0,0.0,0.0,0.0,0.0,0.0,0.0,0.0,0.0,0.0,0.0,0.0,0.0,0.0,0.0,0.0,0.0,0.0,0.0,0.0,0.0,0.0,0.0,0.0,0.0,0.0,0.0,0.0,0.0,0.0,0.0,0.0,-3.1686,-3.1539,0.0,0.0,0.0,0.0,0.0,0.0,0.0,0.0,0.0,0.0,0.0,0.0,0.0,0.0,0.0,0.0,0.0,0.0,0.0,0.0,0.0,0.0,0.0,0.0,0.0,0.0,0.0,0.0,0.0,0.0,0.0,0.0,0.0,0.0,0.0,0.0,0.0,-2.8634,-2.8757,-2.8352,-2.741,-2.6926,-2.6242,-2.5453,0.0,0.0,0.0,0.0,0.0,0.0,0.0,0.0,0.0,0.0,0.0,0.0,0.0,0.0,0.0,0.0,0.0,0.0,0.0,0.0,0.0,0.0,0.0,0.0,0.0,0.0,0.0,0.0,0.0,0.0,0.0,0.0,0.0,0.0,0.0,0.0,0.0,0.0,0.0,0.0,0.0,0.0,0.0,0.0,0.0,0.0,0.0,0.0,0.0,0.0,0.0,0.0,0.0,0.0,0.0,0.0,0.0,0.0,0.0,0.0,0.0,0.0,0.0,0.0,0.0,0.0,0.0,0.0,0.0,0.0,-3.1433,-3.1108,0.0,0.0,0.0,0.0,0.0,0.0,0.0,0.0,0.0,0.0,0.0,0.0,0.0,0.0,0.0,0.0,0.0,0.0,0.0,0.0,0.0,0.0,0.0,-3.0568,-3.0538,-3.0538,-3.0249,-3.008,-3.008,0.0,0.0,0.0,0.0,0.0,-2.9634,-2.8602,-2.8233,-2.8643,-2.7999,-2.7451,-2.704,-2.6905,-2.644,-2.5688,-2.5629,0.0,0.0,0.0,0.0,0.0,0.0,0.0,0.0,0.0,0.0,0.0,0.0,0.0,0.0,0.0,0.0,0.0,0.0,0.0,0.0,0.0,0.0,0.0,0.0,0.0,0.0,0.0,0.0,0.0,0.0,0.0,0.0,0.0,0.0,0.0,0.0,0.0,0.0,0.0,0.0,0.0,0.0,0.0,0.0,0.0,0.0,0.0,0.0,0.0,0.0,0.0,0.0,0.0,0.0,0.0,0.0,0.0,0.0,0.0,0.0,0.0,0.0,0.0,-3.0968,-3.1303,-3.1876,-3.2568,-3.283,-3.2738,-3.1021,-3.056,-3.1083,-3.2541,0.0,0.0,0.0,0.0,0.0,0.0,0.0,0.0,0.0,0.0,0.0,0.0,0.0,0.0,0.0,0.0,0.0,0.0,0.0,-3.0598,-3.0598,-3.0447,-3.0357,-3.0357,-3.0189,-3.008,-3.008,0.0,0.0,0.0,0.0,-2.9685,-2.9777,-2.9608,-2.9012,-2.7941,-2.6918,-2.6679,-2.7162,-2.6589,-2.6236,-2.6131,-2.6577,-2.6427,-2.5793,0.0,0.0,0.0,0.0,0.0,0.0,0.0,0.0,0.0,0.0,0.0,0.0,0.0,0.0,0.0,0.0,0.0,0.0,0.0,0.0,0.0,0.0,0.0,0.0,0.0,0.0,0.0,0.0,0.0,0.0,0.0,0.0,0.0,0.0,0.0,0.0,0.0,0.0,0.0,0.0,0.0,-2.9792,-2.9792,0.0,0.0,0.0,0.0,0.0,0.0,0.0,0.0,0.0,0.0,0.0,0.0,0.0,-3.1211,-3.2372,-3.1671,-3.1322,-3.1322,-3.2067,-3.2489,-3.2607,-3.344,-3.3813,-3.3761,-3.2751,0.0,-3.1443,-3.3114,0.0,0.0,0.0,0.0,0.0,0.0,0.0,0.0,0.0,0.0,0.0,0.0,0.0,0.0,0.0,0.0,0.0,0.0,0.0,0.0,0.0,-3.0507,-3.0477,-3.0477,-3.0296,-3.0219,-3.0219,-3.0021,0.0,0.0,-2.9898,-2.9808,-2.9808,-2.9976,-2.9453,-2.8195,-2.6985,-2.6521,-2.6816,-2.6499,-2.6467,-2.6661,-2.7021,-2.6869,-2.6329,-2.6246,0.0,0.0,0.0,0.0,0.0,0.0,0.0,0.0,0.0,0.0,0.0,0.0,0.0,0.0,0.0,0.0,0.0,0.0,0.0,0.0,0.0,0.0,0.0,0.0,0.0,0.0,0.0,0.0,0.0,0.0,0.0,0.0,0.0,0.0,0.0,0.0,0.0,0.0,0.0,-2.9792,-2.9792,-2.9792,-3.0583,-3.0859,0.0,0.0,0.0,0.0,0.0,0.0,0.0,0.0,0.0,-3.1505,-3.1236,-3.1322,-3.1941,-3.159,-3.1386,-3.1399,-3.2097,-3.2686,-3.317,-3.39,-3.4473,-3.492,-3.5012,-3.4592,-3.3751,-3.3688,-3.3688,-3.382,0.0,0.0,0.0,0.0,-3.6069,-3.5053,0.0,0.0,0.0,0.0,0.0,0.0,0.0,0.0,0.0,0.0,0.0,0.0,-3.0598,-3.0598,-3.0598,-3.0598,-3.0447,-3.0387,-3.0387,-3.0129,-3.0038,-3.0142,-3.0021,-2.9915,-2.9884,-2.9976,-2.9546,-2.8492,-2.7317,-2.6824,-2.6998,-2.6804,-2.7037,-2.7578,-2.753,-2.7315,-2.6991,-2.6991,-2.725,-2.7729,0.0,0.0,0.0,0.0,0.0,0.0,0.0,0.0,0.0,0.0,0.0,0.0,0.0,0.0,0.0,0.0,0.0,0.0,0.0,0.0,0.0,0.0,0.0,0.0,0.0,0.0,0.0,0.0,0.0,0.0,0.0,0.0,0.0,0.0,0.0,0.0,0.0,-2.9792,-2.9792,-2.9792,-3.0797,-3.1174,0.0,0.0,0.0,0.0,0.0,0.0,-3.1373,-3.1386,-3.1449,-3.1599,-3.1599,-3.1675,-3.1813,-3.1813,-3.1937,-3.2184,-3.2784,-3.3541,-3.4406,-3.5063,-3.5696,-3.6306,-3.6727,-3.6517,-3.5868,-3.4794,-3.4353,-3.4553,-3.6233,-3.7053,-3.7285,-3.772,-3.7453,-3.6858,0.0,0.0,0.0,0.0,0.0,0.0,0.0,0.0,0.0,0.0,0.0,-3.0598,-3.0598,-3.0598,-3.0598,-3.0598,-3.0598,-3.0568,-3.0568,-3.0568,-3.0477,-3.0296,-3.0282,-3.0205,-3.008,-2.9605,-2.9062,-2.8492,-2.7802,-2.7758,-2.8294,-2.7605,-2.7946,-2.9148,-2.8422,-2.7925,-2.7754,-2.7717,-2.7928,-2.8244,-2.8065,0.0,0.0,0.0,0.0,0.0,0.0,0.0,0.0,0.0,0.0,0.0,0.0,0.0,0.0,0.0,0.0,0.0,0.0,0.0,0.0,0.0,0.0,0.0,0.0,0.0,0.0,0.0,0.0,0.0,0.0,0.0,0.0,0.0,0.0,0.0,0.0,0.0,0.0,-2.9792,-2.9869,0.0,0.0,0.0,0.0,-3.241,-3.1782,-3.1361,-3.1386,-3.1386,-3.1625,-3.2152,-3.2177,-3.2441,-3.3023,-3.2993,-3.345,-3.4264,-3.5048,-3.5908,-3.6763,-3.763,-3.8037,-3.8037,-3.7246,-3.6897,-3.6844,-3.6777,-3.6724,-3.6724,-3.6844,-3.7414,-3.8037,-3.7246,-3.6936,-3.6766,0.0,0.0,0.0,0.0,0.0,0.0,0.0,0.0,-3.0598,-3.0598,-3.0598,-3.0598,-3.0598,-3.0598,-3.0598,-3.0598,-3.0598,-3.0598,-3.0598,-3.0477,-3.0447,-3.0477,-3.0791,-3.1147,-3.1642,-3.0916,-3.048,-3.0415,-2.9247,-2.8782,-2.8978,-2.8711,-2.87,-2.8871,-2.9239,-2.9185,-2.8796,-2.8462,-2.8686,-2.9247,-2.8848,-2.9051,0.0,0.0,0.0,0.0,0.0,0.0,0.0,0.0,0.0,0.0,0.0,0.0,0.0,0.0,0.0,0.0,0.0,0.0,0.0,0.0,0.0,0.0,0.0,0.0,0.0,0.0,0.0,0.0,0.0,0.0,0.0,0.0,0.0,0.0,0.0,0.0,0.0,-3.0281,-3.0738,0.0,-3.1503,-3.1727,-3.201,-3.2316,-3.2079,-3.2077,-3.2453,-3.2478,-3.2566,-3.2767,-3.2767,-3.2867,-3.3124,-3.3654,-3.4105,-3.4397,-3.5196,-3.6068,-3.6897,-3.7208,-3.7682,-3.8165,-3.7886,-3.772,-3.772,-3.772,-3.7078,-3.6108,-3.6688,-3.7092,-3.7414,-3.7644,-3.772,-3.7682,0.0,0.0,0.0,0.0,0.0,0.0,0.0,-3.0887,-3.0887,-3.0887,-3.0887,-3.0974,-3.1206,-3.1235,-3.1235,-3.1235,-3.1235,-3.1134,-3.0916,-3.0982,-3.098,-3.0855,-3.1339,-3.1919,-3.2481,-3.1921,-3.158,-3.1509,-3.0508,-3.0156,-3.0344,-3.0099,-3.0049,-3.0173,-3.0309,-3.0196,-2.9871,-2.9429,-2.9402,-2.9546,-2.9221,-2.9353,-2.9716,0.0,0.0,0.0,0.0,0.0,0.0,0.0,0.0,0.0,0.0,0.0,0.0,0.0,0.0,0.0,0.0,0.0,0.0,0.0,0.0,0.0,0.0,0.0,0.0,0.0,0.0,0.0,0.0,0.0,0.0,0.0,0.0,0.0,0.0,-3.0068,-3.0269,-3.0821,-3.1299,-3.1623,-3.1653,-3.2141,-3.2465,-3.2508,-3.2503,-3.2667,-3.3056,-3.3124,-3.324,-3.3526,-3.3539,-3.3683,-3.3953,-3.4538,-3.4937,-3.5237,-3.5762,-3.6517,-3.7323,-3.7323,-3.7644,-3.8202,-3.8202,-3.8202,-3.8202,-3.8202,-3.7515,-3.6543,-3.7116,-3.7323,-3.7414,-3.8,-3.8202,-3.8202,0.0,0.0,0.0,0.0,0.0,0.0,-3.1625,-3.1524,-3.1524,-3.1524,-3.1524,-3.177,-3.2423,-3.2481,-3.2481,-3.2481,-3.2481,-3.2205,-3.1567,-3.2133,-3.2156,-3.1392,-3.1985,-3.2428,-3.2553,-3.2539,-3.2234,-3.1599,-3.1565,-3.1847,-3.241,-3.1709,-3.2026,-3.3108,-3.1623,-3.097,-3.0895,-3.0707,-3.005,-2.9131,-2.9131,-2.9613,-3.0177,0.0,0.0,0.0,0.0,0.0,0.0,0.0,0.0,0.0,0.0,0.0,0.0,0.0,0.0,0.0,0.0,0.0,0.0,0.0,0.0,0.0,0.0,0.0,0.0,0.0,0.0,0.0,0.0,0.0,0.0,0.0,0.0,0.0,-3.0633,-3.0633,-3.0834,-3.1348,-3.1411,-3.1637,-3.219,-3.224,-3.2466,-3.3074,-3.3124,-3.3124,-3.3124,-3.3124,-3.3496,-3.4314,-3.4356,-3.4744,-3.5534,-3.5574,-3.6042,-3.6925,-3.6964,-3.7404,-3.826,-3.826,-3.826,-3.826,-3.826,-3.826,-3.826,-3.8246,-3.8231,-3.8231,-3.8217,-3.8202,-3.8202,-3.8202,-3.8202,-3.8202,0.0,0.0,0.0,0.0,0.0,0.0,-3.2234,-3.2251,-3.2251,-3.2251,-3.2251,-3.2292,-3.2466,-3.2481,-3.2481,-3.2481,-3.2481,-3.2408,-3.2251,-3.2394,-3.2611,-3.2901,-3.3075,-3.338,-3.3877,-3.3891,-3.3791,-3.3609,-3.3024,-3.282,-3.2974,-3.2751,-3.2603,-3.2398,-3.2528,-3.1951,-3.0932,-3.1452,-3.1119,-3.0203,-3.0203,-3.0075,-2.9921,0.0,0.0,0.0,0.0,0.0,0.0,0.0,0.0,0.0,0.0,0.0,0.0,0.0,0.0,0.0,0.0,0.0,0.0,0.0,0.0,0.0,0.0,0.0,0.0,0.0,0.0,0.0,0.0,0.0,0.0,0.0,-3.1928,-3.1173,-3.1173,-3.1173,-3.1373,-3.1926,-3.1989,-3.2215,-3.278,-3.2842,-3.2905,-3.3111,-3.3124,-3.3124,-3.3124,-3.3124,-3.3197,-3.3454,-3.3454,-3.3852,-3.4703,-3.5318,-3.6288,-3.7636,-3.8267,-3.8914,-3.9581,-3.9581,-3.9581,-3.9581,-3.9581,-3.9581,-3.9538,-3.9102,-3.8928,-3.8884,-3.8391,-3.8202,-3.8202,-3.8202,-3.8202,-3.8202,0.0,0.0,0.0,0.0,0.0,0.0,-3.2962,-3.2919,-3.2919,-3.2919,-3.2919,-3.3021,-3.3282,-3.3311,-3.3311,-3.3311,-3.3311,-3.3195,-3.2933,-3.2919,-3.3209,-3.3833,-3.3862,-3.4037,-3.4399,-3.4414,-3.4414,-3.4414,-3.3928,-3.3836,-3.4127,-3.4127,-3.3868,-3.3479,-3.3585,-3.2955,-3.1878,-3.2349,-3.2037,-3.1267,-3.1549,-3.1057,-3.0165,-3.0508,-3.0482,-3.0304,-3.0632,-3.0456,-3.0165,-3.057,0.0,0.0,0.0,0.0,0.0,0.0,0.0,0.0,0.0,0.0,0.0,0.0,0.0,0.0,0.0,0.0,0.0,0.0,0.0,0.0,0.0,0.0,0.0,0.0,-3.2338,-3.1813,-3.2064,-3.1888,-3.1938,-3.2503,-3.2579,-3.2704,-3.3086,-3.3124,-3.3124,-3.3124,-3.3124,-3.3124,-3.3124,-3.3454,-3.3926,-3.4556,-3.4934,-3.5651,-3.677,-3.7242,-3.7943,-3.8817,-3.9318,-3.9755,-4.0104,-4.0104,-4.0104,-4.0104,-4.0104,-4.0104,-4.0075,-3.9712,-3.9581,-3.9479,0.0,0.0,0.0,0.0,-3.8202,-3.8202,0.0,0.0,0.0,0.0,0.0,0.0,-3.3692,-3.3605,-3.3605,-3.3605,-3.3605,-3.379,-3.4356,-3.4414,-3.4414,-3.4414,-3.4414,-3.4167,-3.3649,-3.3605,-3.3819,-3.4385,-3.4414,-3.4414,-3.4414,-3.4414,-3.4414,-3.4414,-3.4486,-3.4806,-3.5392,-3.5465,-3.5508,-3.5473,-3.469,-3.3945,-3.3326,-3.3325,-3.2911,-3.229,-3.3052,-3.2313,-3.0871,-3.1576,-3.0945,-2.9819,-3.0707,-3.0405,-2.9716,-3.0594,0.0,0.0,0.0,0.0,0.0,0.0,0.0,0.0,0.0,0.0,0.0,0.0,0.0,0.0,0.0,0.0,0.0,0.0,0.0,0.0,0.0,0.0,0.0,0.0,-3.2753,-3.2436,-3.2963,-3.2629,-3.2503,-3.3061,-3.321,-3.3197,-3.3124,-3.321,-3.3197,-3.3124,-3.3248,-3.3371,-3.3371,-3.426,0.0,0.0,0.0,-3.855,-3.9931,-3.9971,-4.0054,-4.0205,-4.0205,-4.0249,-4.0321,-4.0321,-4.0321,-4.0321,-4.0321,-4.0321,-4.0321,-4.0234,-4.0162,-3.9987,-3.8855,-3.8405,-3.8405,-3.8405,-3.8405,-3.8405,0.0,0.0,0.0,0.0,0.0,0.0,-3.424,-3.424,-3.424,-3.424,-3.424,-3.4283,-3.4399,-3.4414,-3.4414,-3.4414,-3.4414,-3.4356,-3.424,-3.424,-3.4283,-3.4399,-3.4414,-3.4414,-3.4414,-3.4414,-3.4414,-3.4414,-3.4922,-3.5276,-3.5407,-3.5894,-3.6127,-3.6098,-3.5435,-3.4746,-3.4008,-3.4123,-3.3707,-3.3052,-3.3859,-3.3206,-3.1819,-3.1965,-3.1856,-3.1599,-3.1783,-3.1341,-3.0632,-3.082,-3.0482,-3.0075,-3.0658,-3.0796,0.0,0.0,0.0,0.0,0.0,0.0,0.0,0.0,0.0,0.0,0.0,0.0,0.0,0.0,0.0,0.0,0.0,0.0,0.0,-3.3361,-3.2958,-3.263,-3.2742,-3.2839,-3.2955,-3.3111,-3.3738,-3.3865,-3.3167,-3.3738,-3.3865,-3.3154,-3.4221,-3.4881,-3.4881,-3.6193,-3.7106,-3.7382,-3.755,-3.8117,-3.9145,-3.9145,-3.9724,-4.0902,-4.0902,0.0,-4.17,-4.17,-4.17,-4.17,-4.17,-4.17,-4.1671,-4.1134,-4.0583,-4.0075,-3.9828,-3.9726,-3.9726,-3.9726,-3.9726,-3.9726,0.0,0.0,0.0,0.0,0.0,0.0,-3.4839,-3.4635,-3.4414,-3.4414,-3.4414,-3.4414,-3.4414,-3.4687,-3.4754,-3.4448,-3.4414,-3.4414,-3.4414,-3.4414,-3.4414,-3.4414,-3.4414,-3.4414,-3.4414,-3.4414,-3.4414,-3.4414,-3.4733,-3.5212,-3.5851,-3.6156,-3.6489,-3.678,-3.6127,-3.5472,-3.4775,-3.4504,-3.4147,-3.3859,-3.423,-3.3942,-3.3241,-3.3241,-3.2506,-3.1563,-3.1965,-3.1599,-3.0895,-3.0895,-3.0908,-3.1009,-3.1281,-3.1586,-3.2024,0.0,0.0,0.0,0.0,0.0,0.0,0.0,0.0,0.0,0.0,0.0,0.0,0.0,0.0,-3.3581,-3.3118,0.0,-3.3389,-3.2954,-3.2782,-3.268,-3.255,-3.3129,-3.353,-3.353,-3.3683,-3.3738,-3.3738,-3.3995,-3.4148,-3.4221,-3.5141,-3.5927,-3.6425,-3.7619,-3.8394,-3.8685,-3.9116,-3.9713,-4.048,-4.048,-4.0857,-4.1599,-4.1599,-4.1773,-4.2092,-4.2092,-4.2092,-4.2092,-4.2092,-4.2092,-4.2063,-4.1729,-4.1395,-4.1091,-4.1091,-4.0684,-4.0104,-4.0104,-4.0104,-4.0104,0.0,0.0,0.0,0.0,0.0,0.0,-3.5335,-3.4938,-3.4534,-3.4414,-3.4501,-3.4601,-3.4601,-3.5187,-3.5367,-3.4839,-3.4654,-3.4601,-3.4601,-3.4481,-3.4414,-3.4414,-3.4414,-3.4414,-3.4414,-3.4414,-3.4414,-3.4414,-3.453,-3.5125,-3.6127,-3.6257,-3.6591,-3.7085,-3.6417,-3.5851,-3.5348,-3.4675,-3.4414,-3.4414,-3.4414,-3.4414,-3.4414,-3.4414,-3.3241,-3.1659,-3.229,-3.2037,-3.1328,-3.118,-3.1452,-3.1856,-3.1856,-3.2132,-3.2528,-3.2903,-3.3409,0.0,0.0,0.0,0.0,0.0,0.0,0.0,0.0,-3.3713,-3.3991,-3.2974,-3.3367,-3.3626,-3.2717,-3.3115,-3.3348,-3.2519,-3.268,-3.2797,-3.2431,-3.336,-3.4124,-3.4236,-3.4115,-3.4176,-3.4554,-3.4736,-3.5102,-3.5706,-3.6406,-3.7169,-3.799,-3.8976,-3.974,-4.025,-4.0953,-4.1555,-4.2092,-4.2092,-4.2092,-4.2092,-4.2092,-4.2092,-4.2092,-4.2092,-4.2092,-4.2092,-4.2092,-4.2092,-4.2092,-4.2092,-4.2092,-4.2092,-4.2092,-4.1439,-4.0481,-4.0481,-4.0481,-4.0481,0.0,0.0,0.0,0.0,0.0,0.0,0.0,0.0,-3.5055,-3.4481,-3.4905,-3.5285,-3.5285,-3.5897,-3.6259,-3.6197,-3.5642,-3.5285,-3.5285,-3.4721,-3.4414,-3.4414,-3.4414,-3.4414,-3.4414,-3.4414,-3.4414,-3.4414,-3.498,-3.5363,-3.5508,-3.604,-3.6344,-3.6388,-3.5784,-3.5465,-3.5348,-3.4675,-3.4414,-3.4414,-3.4414,-3.4414,-3.4414,-3.4414,-3.423,-3.4011,-3.4128,-3.3638,-3.2826,-3.2182,-3.1563,-3.1044,-3.1044,-3.0481,-3.0228,-3.239,-3.2426,-3.2101,-3.3297,-3.3406,-3.2938,-3.2072,-3.2458,-3.2738,0.0,-3.2539,-3.3414,-3.213,-3.2721,-3.3156,-3.2234,-3.2152,-3.2245,-3.2388,-3.3074,-3.3305,-3.2519,-3.3513,-3.4538,-3.5102,-3.6468,-3.6797,-3.5358,-3.711,-3.8062,-3.7366,-3.8615,-3.9452,-3.9536,-4.095,-4.178,-4.1852,-4.1935,-4.202,-4.2092,-4.2092,-4.2092,-4.2092,-4.2092,-4.2092,-4.2092,-4.2092,-4.2092,-4.2092,-4.2092,-4.2092,-4.2092,-4.2092,-4.2092,-4.2092,-4.2092,-4.2005,-4.1874,-4.1874,-4.1874,-4.1874,0.0,0.0,0.0,0.0,0.0,0.0,0.0,0.0,-3.5385,-3.5023,-3.5219,-3.54,-3.54,-3.6009,-3.6569,-3.6966,-3.6024,-3.54,-3.54,-3.4787,-3.4414,-3.4414,-3.4414,-3.4414,-3.4414,-3.4414,-3.4414,-3.4414,-3.4675,-3.5029,-3.5407,-3.5668,-3.5952,-3.6272,-3.5683,-3.5392,-3.5348,-3.4675,-3.4414,-3.4414,-3.4414,-3.4414,-3.4414,-3.4414,-3.4414,-3.4346,-3.377,-3.343,0.0,-3.2747,-3.2783,-3.2946,-3.2946,-3.2577,-3.2326,-3.3248,-3.3213,-3.2844,-3.2705,-3.2482,-3.222,-3.1771,-3.2461,-3.3156,-3.2628,-3.3307,-3.377,-3.2698,-3.2426,-3.2276,-3.1893,-3.1937,-3.2145,-3.2686,-3.3202,-3.3416,-3.3013,-3.433,-3.5262,-3.5125,-3.7425,-3.8432,-3.6975,-3.7896,-3.8684,-3.8866,-3.976,-4.0506,-4.1106,-4.1767,-4.2092,-4.2092,-4.2092,-4.2092,-4.2092,-4.244,-4.2615,-4.2629,-4.3007,-4.3195,-4.3195,-4.3195,-4.3195,-4.3195,-4.3195,-4.3195,-4.3195,-4.3195,-4.3195,-4.3195,-4.3195,-4.3195,-4.3108,-4.2368,-4.2092,-4.2092,0.0,0.0,0.0,0.0,0.0,0.0,0.0,0.0,0.0,0.0,-3.5834,-3.6024,-3.6212,-3.6677,-3.7147,-3.7623,-3.6631,-3.5866,-3.5674,-3.5055,-3.4601,-3.4414,-3.4414,-3.4414,-3.4414,-3.4414,-3.4414,-3.4414,-3.4414,-3.4646,-3.5131,-3.5131,-3.5343,-3.5764,-3.5299,-3.5131,-3.5101,-3.4603,-3.4414,-3.4414,-3.4414,-3.4414,-3.4414,-3.4414,-3.4414,-3.4312,-3.3632,-3.343,-3.3485,-3.3115,-3.3444,-3.3991,-3.3942,-3.3618,-3.3374,-3.3709,-3.3907,-3.379,-3.2861,-3.2404,-3.2163,-3.2098,-3.2733,-3.3405,-3.3474,-3.4129,-3.4361,-3.3237,-3.2907,-3.2587,-3.1837,-3.222,-3.2717,-3.295,-3.3687,-3.4092,-3.381,-3.5142,-3.6034,-3.5692,-3.7909,-3.9233,-3.8639,-3.9075,-3.9718,-4.0376,-4.0774,-4.1339,-4.2051,-4.2092,-4.2092,-4.2092,-4.2252,-4.2339,-4.2339,-4.2963,-4.3268,-4.3268,-4.3761,-4.3993,-4.3993,-4.3993,-4.3993,-4.3993,-4.3993,-4.3993,-4.3993,-4.3993,-4.3993,-4.3993,-4.3993,-4.3993,-4.3877,-4.2948,-4.2615,-4.2615,0.0,0.0,0.0,0.0,0.0,0.0,0.0,0.0,0.0,0.0,-3.6936,-3.7594,-3.825,-3.8335,-3.8335,-3.8363,-3.7756,-3.7057,-3.6415,-3.5738,-3.5088,-3.4448,-3.4414,-3.4414,-3.4414,-3.4414,-3.4414,-3.4414,-3.4414,-3.4428,-3.4443,-3.4443,-3.4443,-3.4472,-3.4443,-3.4443,-3.4443,-3.4428,-3.4414,-3.4414,-3.4414,-3.4414,-3.4414,-3.4414,-3.4414,-3.4414,-3.438,-3.4346,-3.423,-3.3304,-3.3023,-3.3023,-3.281,-3.2078,-3.1589,-3.3157,-3.3889,-3.4175,-3.4153,-3.3747,-3.3364,-3.3349,-3.3158,-3.2998,-3.2998,-3.4402,-3.5156,-3.3365,-3.4374,-3.4787,-3.2164,-3.3066,-3.3972,-3.3109,-3.4815,-3.587,-3.4799,-3.579,-3.6728,-3.7164,-3.8005,-3.9002,-4.0214,-4.1313,-4.2022,-4.2022,-4.2036,-4.2051,-4.2092,-4.2092,-4.2092,-4.2092,-4.2658,-4.2963,-4.2963,-4.3631,-4.3964,-4.3964,-4.3979,-4.3993,-4.3993,-4.3993,-4.3993,-4.3993,-4.3993,-4.3993,-4.3993,-4.3993,-4.3993,-4.3993,-4.3993,-4.3993,-4.3993,-4.395,-4.3935,-4.3935,0.0,0.0,0.0,0.0,0.0,0.0,0.0,0.0,0.0,0.0,0.0,0.0,0.0,0.0,0.0,0.0,-3.7786,-3.7312,-3.7087,-3.6024,-3.5302,-3.5055,-3.4635,-3.4414,-3.4414,-3.4414,-3.4414,-3.4414,-3.4414,-3.4414,-3.4414,-3.4414,-3.4414,-3.4414,-3.4414,-3.4414,-3.4414,-3.4414,-3.4414,-3.4414,-3.4414,-3.4414,-3.4414,-3.4414,-3.4414,-3.4414,0.0,-3.4414,-3.4312,-3.3799,-3.3646,-3.3736,-3.3667,-3.3234,-3.2943,-3.3768,-3.407,-3.4102,-3.3754,-3.3529,-3.3222,-3.2459,-3.3055,-3.3846,-3.3846,-3.4815,-3.5372,-3.4098,-3.4347,-3.4319,-3.2821,-3.3522,-3.4389,-3.4746,-3.5413,-3.583,-3.5575,-3.6681,-3.7568,-3.7854,-3.8893,-3.994,-4.0968,-4.1545,-4.1841,-4.1841,-4.1841,-4.1897,-4.2092,-4.2469,-4.2687,-4.2687,-4.3311,-4.366,-4.366,-4.4269,-4.4589,-4.4589,-4.5039,-4.5242,-4.5242,-4.5242,-4.5242,-4.5242,-4.5242,-4.5242,-4.5242,-4.5242,-4.5242,-4.5242,-4.5242,-4.5242,-4.5242,-4.5242,-4.5242,-4.5126,0.0,0.0,0.0,0.0,0.0,0.0,0.0,0.0,0.0,0.0,0.0,0.0,0.0,0.0,0.0,0.0,0.0,-3.7669,-3.7417,-3.66,-3.6024,-3.577,-3.5121,-3.4754,-3.4754,-3.4534,-3.4414,-3.4414,-3.4414,-3.4414,-3.4414,-3.4414,-3.4414,-3.4414,-3.4414,-3.4414,-3.4414,-3.4414,-3.4414,-3.4414,-3.4414,-3.4414,-3.438,-3.4312,-3.4312,0.0,-3.4142,-3.4176,-3.4244,-3.3985,-3.3917,-3.3902,-3.3833,-3.3817,-3.3917,-3.4416,-3.4716,-3.4743,-3.4058,-3.3803,-3.356,-3.2819,-3.3237,-3.393,-3.4223,-3.5033,-3.5454,-3.4472,-3.4802,-3.4897,-3.3691,-3.443,-3.5359,-3.5655,-3.603,-3.6282,-3.635,-3.7314,-3.8131,-3.8421,-3.9436,-4.0377,-4.1071,-4.1325,-4.1521,-4.1688,-4.1688,-4.1886,-4.2411,-4.2774,-4.3108,-4.334,-4.3964,-4.4313,-4.4313,-4.4922,-4.5242,-4.5242,-4.5677,-4.588,-4.588,-4.588,-4.588,-4.588,-4.588,-4.588,-4.588,-4.588,-4.588,-4.588,-4.588,-4.588,-4.588,-4.588,-4.588,-4.5764,0.0,0.0,0.0,0.0,0.0,0.0,0.0,0.0,0.0,0.0,0.0,0.0,0.0,0.0,0.0,0.0,0.0,0.0,-3.7506,-3.7417,-3.7117,-3.6477,-3.5802,-3.5432,-3.54,-3.4787,-3.4448,-3.4414,-3.4414,-3.4414,-3.4414,-3.4414,-3.4414,-3.4414,-3.4414,-3.4414,-3.4414,-3.4414,-3.4414,-3.4414,-3.4414,-3.4414,-3.438,-3.4196,-3.4142,-3.4103,-3.3821,-3.3905,-3.416,-3.3974,-3.3815,-3.3669,-3.3445,-3.3782,-3.4371,-3.5062,-3.5653,-3.5899,-3.4944,-3.4539,-3.4347,-3.4264,-3.3691,-3.3365,-3.4181,-3.5115,-3.5494,-3.4555,-3.5762,-3.648,-3.4678,-3.5816,-3.673,-3.591,-3.6612,-3.7226,-3.7017,-3.767,-3.8345,-3.8832,-3.9616,-4.0237,-4.0674,-4.0887,-4.1184,-4.1704,-4.1745,-4.2088,-4.2963,-4.305,-4.3384,-4.4023,-4.4618,-4.4937,-4.4937,-4.5561,-4.588,-4.588,-4.588,-4.588,-4.588,-4.588,-4.588,-4.588,-4.588,-4.588,-4.588,-4.588,-4.588,-4.588,-4.588,-4.588,-4.588,-4.588,-4.588,-4.588,0.0,0.0,0.0,0.0,0.0,0.0,0.0,0.0,0.0,0.0,0.0,0.0,0.0,0.0,0.0,0.0,0.0,0.0,-3.8164,-3.7698,-3.7312,-3.7163,-3.6508,-3.5929,-3.54,-3.5252,-3.4905,-3.4414,-3.4414,-3.4414,-3.4414,-3.4414,-3.4414,-3.4414,-3.4414,-3.4414,-3.4414,-3.4414,-3.4414,-3.4414,-3.4414,-3.4414,-3.438,-3.4346,-3.4636,-3.5056,-3.4987,-3.5101,-3.5203,-3.4548,-3.4597,-3.4907,-3.4761,-3.4823,-3.5077,-3.5695,-3.5991,-3.583,-3.4714,-3.4859,-3.5033,-3.3691,-3.4194,-3.5074,-3.5278,-3.603,-3.6401,-3.5534,-3.6229,-3.6652,-3.5534,-3.6229,-3.694,-3.6691,-3.69,-3.707,-3.7017,-3.7552,-3.8225,-3.8832,-3.9492,-4.0111,-4.0645,-4.073,-4.1099,-4.1867,-4.2053,-4.2338,-4.2752,-4.3806,-4.4487,-4.4661,-4.5285,-4.5634,-4.5634,-4.5793,-4.588,-4.588,-4.588,-4.588,-4.588,-4.588,-4.588,-4.588,-4.588,-4.588,-4.588,-4.588,-4.588,-4.588,-4.588,-4.588,-4.588,-4.588,-4.588,-4.588,0.0,0.0,0.0,0.0,0.0,0.0,0.0,0.0,0.0,0.0,0.0,0.0,0.0,0.0,0.0,0.0,0.0,0.0,0.0,-3.8062,-3.7844,-3.7844,-3.7207,-3.6646,-3.6275,-3.5706,-3.5219,-3.4839,-3.4534,-3.4414,-3.4414,-3.4414,-3.4414,-3.4414,-3.4414,-3.4414,-3.4414,-3.4414,-3.4414,0.0,0.0,-3.4835,-3.4864,-3.5021,-3.5284,-3.5517,-3.546,-3.5647,-3.5824,-3.5461,-3.5317,-3.5356,-3.555,-3.5583,-3.5709,-3.6328,-3.6511,-3.6258,-3.5184,-3.5278,-3.5454,-3.4457,-3.465,-3.5196,-3.5629,-3.6084,-3.6282,-3.579,-3.6401,-3.6861,-3.6362,-3.6652,-3.6978,-3.6978,-3.6978,-3.6978,-3.6978,-3.7512,-3.8145,-3.8832,-3.9451,-4.0027,-4.0631,-4.0702,-4.0998,-4.1791,-4.2051,-4.2509,-4.3299,-4.4165,-4.4758,-4.5136,-4.5542,-4.579,-4.588,-4.588,-4.588,-4.588,-4.588,-4.588,-4.588,-4.588,-4.588,-4.588,-4.579,-4.5745,-4.5745,-4.5745,-4.564,-4.5549,-4.579,-4.5745,-4.5549,-4.57,-4.564,-4.5549,0.0,0.0,0.0,0.0,0.0,0.0,0.0,0.0,0.0,0.0,0.0,0.0,0.0,0.0,0.0,0.0,0.0,0.0,0.0,0.0,-3.8391,-3.8391,-3.7844,-3.7506,-3.7417,-3.6244,-3.561,-3.5514,-3.4971,-3.462,-3.4534,-3.4534,-3.4481,-3.4414,-3.4414,-3.4414,-3.4414,-3.4501,-3.4545,-3.4588,-3.5261,-3.5488,-3.5511,0.0,-3.5949,-3.5817,-3.577,-3.5967,-3.6268,-3.642,-3.6029,-3.5527,-3.6061,-3.623,-3.6328,-3.6838,-3.6978,-3.6822,-3.595,-3.579,-3.583,-3.5749,-3.5183,-3.4856,-3.5696,-3.587,-3.587,-3.587,-3.6494,-3.6978,-3.6978,-3.6978,-3.6978,-3.6978,-3.6978,-3.6978,-3.6978,-3.7442,-3.8046,-3.8818,-3.938,-3.9929,-4.0631,-4.0702,-4.0983,-4.1685,-4.1961,-4.269,-4.4079,-4.4267,-4.4657,-4.5475,-4.5504,-4.564,-4.588,-4.588,-4.588,-4.588,-4.588,-4.588,-4.588,-4.588,-4.588,-4.588,-4.5595,-4.5561,-4.5633,-4.5633,-4.5539,-4.5427,-4.5945,-4.5809,-4.5381,-4.5657,-4.5565,-4.5335,0.0,0.0,0.0,0.0,0.0,0.0,0.0,0.0,0.0,0.0,-3.8576,-3.8504,0.0,0.0,0.0,0.0,0.0,0.0,0.0,0.0,0.0,-3.8391,-3.8307,-3.7976,-3.7417,-3.7163,-3.6768,-3.6228,-3.6103,-3.577,-3.5219,-3.5219,-3.4938,-3.4414,-3.4414,-3.4414,-3.4443,-3.5,-3.5232,-3.529,-3.5894,-3.6034,-3.5892,-3.5971,0.0,0.0,-3.6883,-3.7009,-3.707,-3.694,-3.6792,-3.6722,-3.6796,-3.6824,-3.6838,-3.695,-3.6978,-3.6822,-3.595,-3.6243,-3.6612,-3.587,-3.611,-3.6559,-3.673,-3.6769,-3.6769,-3.6769,-3.69,-3.6978,-3.6978,-3.6978,-3.6978,-3.6978,-3.6978,-3.6978,-3.6978,-3.7077,-3.7569,-3.8775,-3.9,-3.9507,-4.0589,-4.0702,-4.1179,-4.2331,-4.246,-4.2904,-4.3823,-4.453,-4.5101,-4.5504,-4.5504,-4.564,-4.588,-4.588,-4.588,-4.588,-4.588,-4.588,-4.588,-4.588,-4.588,-4.588,-4.5595,-4.5792,-4.6235,-4.631,-4.6487,-4.6695,-4.7261,-4.712,-4.6709,-4.6946,-4.6899,-4.6662,0.0,0.0,0.0,0.0,0.0,0.0,0.0,-3.8672,-3.8683,-3.8616,-3.8588,-3.8588,-3.86,-3.856,-3.8504,0.0,0.0,0.0,0.0,0.0,0.0,-3.8391,-3.8391,-3.825,-3.7931,-3.7565,-3.7252,-3.6936,0.0,-3.6228,-3.5914,-3.5914,-3.5967,-3.6004,-3.6004,-3.5985,-3.599,-3.63,-3.6172,-3.5767,-3.6418,-3.6555,-3.6401,-3.673,0.0,0.0,-3.7112,-3.7148,-3.7148,-3.7017,-3.6978,-3.6978,-3.6978,-3.6978,-3.6978,-3.6978,-3.6978,-3.69,-3.6494,-3.6691,-3.69,-3.6494,-3.6691,-3.6978,-3.6978,-3.6978,-3.6978,-3.6978,-3.6978,-3.6978,-3.6978,-3.6978,-3.6978,-3.6978,-3.6978,-3.6978,-3.6978,-3.6978,-3.7456,-3.8761,-3.8902,-3.938,-4.0575,-4.0702,-4.1221,-4.2486,-4.2584,-4.3023,-4.4043,-4.4737,-4.517,-4.5307,-4.5549,-4.579,-4.588,-4.588,-4.588,-4.588,-4.588,-4.588,-4.588,-4.588,-4.6069,-4.6328,-4.5962,-4.6168,-4.6727,-4.6756,-4.6719,-4.6716,-4.7324,-4.7181,-4.6668,-4.6894,-4.686,-4.6619,0.0,0.0,0.0,0.0,0.0,0.0,0.0,-3.8655,-3.8711,-3.8616,-3.8616,-3.8683,-3.8805,-3.8683,-3.8588,0.0,0.0,0.0,0.0,0.0,0.0,0.0,0.0,0.0,-3.8391,0.0,0.0,-3.7862,-3.7337,0.0,0.0,0.0,0.0,0.0,-3.7661,-3.7514,-3.7168,-3.7475,-3.7063,0.0,0.0,-3.7046,-3.6864,0.0,0.0,0.0,0.0,-3.6978,-3.6978,-3.6978,-3.6978,-3.6978,-3.6978,-3.6978,-3.6978,-3.6978,-3.6978,-3.6978,-3.6978,-3.6978,-3.6978,-3.6978,-3.6978,-3.6978,-3.6978,-3.6978,-3.6978,-3.6978,-3.6978,-3.6978,-3.6978,-3.6978,-3.6978,-3.6978,-3.6978,-3.6978,-3.6978,-3.6978,-3.7456,-3.8761,-3.8902,-3.938,-4.0575,-4.0814,-4.1362,-4.25,-4.2823,-4.3399,-4.4355,-4.4815,-4.5032,-4.5124,-4.5549,-4.5835,-4.588,-4.588,-4.588,-4.588,-4.588,-4.5953,-4.6084,-4.6084,-4.6432,-4.6995,-4.6483,-4.6638,-4.7181,-4.7147,-4.6957,-4.6736,-4.7452,-4.7307,-4.6736,-4.6953,-4.6855,-4.6687,0.0,0.0,0.0,0.0,0.0,0.0,0.0,-3.8532,-3.8616,-3.8588,-3.8711,-3.8777,-3.8805,-3.8683,-3.8588,0.0,0.0,0.0,0.0,0.0,0.0,0.0,0.0,0.0,0.0,0.0,0.0,-3.9321,-3.9247,0.0,0.0,0.0,0.0,0.0,0.0,-3.7673,-3.6472,-3.7773,0.0,0.0,0.0,0.0,0.0,0.0,0.0,0.0,0.0,-3.6978,-3.6978,-3.6978,-3.6978,-3.6978,-3.6978,-3.6978,-3.6978,-3.6978,-3.6978,-3.6978,-3.6978,-3.6978,-3.6978,-3.6978,-3.6978,-3.6978,-3.6978,-3.6978,-3.6978,-3.6978,-3.6978,-3.6978,-3.6978,-3.6978,-3.6978,-3.6978,-3.6978,-3.6978,-3.6978,-3.6978,-3.7456,-3.8761,-3.8902,-3.938,-4.0575,-4.1207,-4.1826,-4.2528,-4.3624,-4.4284,-4.4397,-4.469,-4.4922,-4.5078,-4.5367,-4.564,-4.588,-4.588,-4.588,-4.588,-4.588,-4.6185,-4.6705,-4.6705,-4.7085,-4.7695,-4.7147,-4.7266,-4.7789,-4.7608,-4.768,-4.8002,-4.8539,-4.8439,-4.7951,-4.8225,-4.8189,-4.7951,0.0,0.0,0.0,0.0,0.0,0.0,-3.9055,-3.9453,-3.9742,-3.9742,-3.98,-3.9841,-3.9928,-3.9886,-3.9516,-3.8669,0.0,0.0,0.0,0.0,0.0,0.0,0.0,0.0,0.0,0.0,-3.98,-4.0092,-4.0092,0.0,0.0,0.0,0.0,0.0,0.0,-3.9776,-3.8787,-3.9358,0.0,0.0,0.0,0.0,0.0,0.0,0.0,0.0,0.0,0.0,-3.6978,-3.6978,-3.6978,-3.6978,-3.6978,-3.6978,-3.6978,-3.6978,-3.6978,-3.6978,-3.6978,-3.6978,-3.6978,-3.6978,-3.6978,-3.6978,-3.6978,-3.6978,-3.6978,-3.6978,-3.6978,-3.6978,-3.6978,-3.6978,-3.6978,-3.6978,-3.6978,-3.6978,-3.6978,-3.7109,-3.7614,-3.8761,-3.8998,-3.9518,-4.0575,-4.1264,-4.2036,-4.3048,-4.3919,-4.4411,-4.4411,-4.4644,-4.483,-4.4922,-4.5138,-4.5413,-4.564,-4.564,-4.5745,-4.588,-4.6272,-4.6592,-4.6792,-4.723,-4.7753,-4.83,-4.7952,-4.807,-4.8509,-4.8425,-4.8283,-4.812,-4.8495,-4.8409,-4.812,-4.8207,-4.817,-4.812,0.0,0.0,0.0,0.0,0.0,-3.9813,-3.9813,-4.0189,-4.0496,-4.0496,-4.0496,-4.0526,-4.0645,-4.0645,-4.0239,-3.9247,-3.9251,0.0,0.0,0.0,0.0,0.0,0.0,0.0,0.0,0.0,-4.0594,-4.082,-4.082,-4.0917,0.0,0.0,-4.1295,-4.1577,0.0,0.0,0.0,0.0,0.0,0.0,0.0,0.0,0.0,0.0,0.0,0.0,0.0,0.0,0.0,0.0,0.0,-3.6978,-3.6978,-3.6978,-3.6978,-3.6978,-3.6978,-3.6978,-3.6978,-3.6978,-3.6978,-3.6978,-3.6978,-3.6978,-3.6978,-3.6978,-3.6978,-3.6978,-3.6978,-3.6978,-3.6978,-3.6978,-3.6978,-3.6978,-3.6978,-3.6978,-3.6978,-3.7109,-3.7614,-3.8761,-3.9039,-3.9518,-4.0575,-4.1432,-4.2416,-4.368,-4.4172,-4.4411,-4.4411,-4.4597,-4.4705,-4.4797,-4.5,-4.5216,-4.5504,-4.5504,-4.564,-4.5895,-4.6519,-4.6879,-4.7143,-4.7767,-4.8406,-4.9001,-4.8711,-4.8726,-4.8895,-4.8795,-4.8509,-4.812,-4.8308,-4.8258,-4.812,-4.812,-4.812,-4.812,0.0,0.0,0.0,0.0,0.0,0.0,-4.048,-4.0496,-4.0496,-4.0496,-4.0496,-4.0496,-4.0496,-4.0496,-4.048,-4.0464,-4.0779,0.0,0.0,0.0,0.0,0.0,0.0,0.0,0.0,0.0,-4.0853,-4.1596,-4.1596,-4.1921,-4.257,-4.257,-4.219,-4.1509,0.0,0.0,0.0,0.0,0.0,0.0,0.0,0.0,0.0,0.0,0.0,0.0,0.0,0.0,0.0,0.0,0.0,0.0,0.0,-3.6978,-3.6978,-3.6978,-3.6978,-3.6978,-3.6978,-3.6978,-3.6978,-3.6978,-3.6978,-3.6978,-3.6978,-3.6978,-3.6978,-3.6978,-3.6978,-3.6978,-3.6978,-3.6978,-3.6978,-3.6978,-3.6978,-3.6978,-3.6978,-3.6978,-3.7456,-3.8761,-3.8902,-3.9394,-4.0575,-4.184,-4.3076,-4.4312,-4.4411,-4.4411,-4.4411,-4.4411,-4.4504,-4.4797,-4.5,-4.5216,-4.5504,-4.5504,-4.564,-4.5895,-4.6519,-4.7158,-4.7796,-4.8435,-4.9059,-4.9669,-4.9389,-4.9157,-4.8895,-4.8595,-4.8358,-4.812,-4.812,-4.812,-4.812,-4.812,-4.812,-4.812,0.0,0.0,0.0,0.0,0.0,0.0,0.0,-4.1646,-4.1923,-4.1923,-4.1923,-4.1923,-4.1923,-4.1923,-4.1923,-4.1923,-4.1349,0.0,0.0,0.0,0.0,0.0,0.0,0.0,0.0,-4.1923,-4.2036,-4.2294,-4.2294,-4.2376,-4.2602,-4.2602,-4.246,-4.2254,-4.2492,-4.2045,0.0,0.0,0.0,0.0,0.0,0.0,-3.7187,0.0,0.0,0.0,0.0,0.0,0.0,0.0,0.0,0.0,0.0,0.0,0.0,-3.6978,-3.6978,-3.6978,-3.6978,-3.6978,-3.6978,-3.6978,-3.6978,-3.6978,-3.6978,-3.6978,-3.6978,-3.6978,-3.6978,-3.6978,-3.6978,-3.6978,-3.6978,-3.6978,-3.6978,-3.6978,-3.6978,-3.7109,-3.7614,-3.8761,-3.9606,-4.0603,-4.1868,-4.2345,-4.309,-4.4326,-4.4411,-4.4411,-4.4411,-4.4411,-4.4504,-4.4797,-4.4876,-4.5106,-4.5504,-4.5504,-4.5857,-4.6534,-4.7172,-4.7811,-4.8449,-4.9088,-4.948,-4.9683,-4.9634,-4.9389,-4.9157,-4.8895,-4.8595,-4.8358,-4.817,-4.812,-4.812,-4.812,-4.812,-4.812,0.0,0.0,0.0,0.0,0.0,0.0,0.0,-4.2311,-4.2602,-4.2602,-4.2602,-4.2602,-4.2602,-4.2602,-4.2602,-4.2602,-4.2069,0.0,0.0,0.0,0.0,0.0,0.0,0.0,-4.2805,-4.2774,-4.2743,-4.2696,-4.2696,-4.2665,-4.2602,-4.2602,-4.2602,-4.2602,-4.2602,-4.2349,0.0,0.0,0.0,0.0,0.0,0.0,-3.7682,0.0,0.0,0.0,0.0,0.0,0.0,0.0,0.0,0.0,0.0,0.0,0.0,0.0,-3.6978,-3.6978,-3.6978,-3.6978,-3.6978,-3.6978,-3.6978,-3.6978,-3.6978,-3.6978,-3.6978,-3.6978,-3.6978,-3.6978,-3.6978,-3.6978,-3.6978,-3.6978,-3.6978,-3.6978,-3.6978,-3.7109,-3.7614,-3.8761,-3.9957,-4.1193,-4.2458,-4.2584,-4.309,-4.4326,-4.4411,-4.4411,-4.4411,-4.4504,-4.4644,-4.4922,-4.483,-4.5014,-4.5504,-4.5504,-4.5912,-4.6792,-4.7477,-4.8116,-4.8692,-4.9378,-4.9717,-4.9717,-4.9717,-4.9488,0.0,-4.8959,-4.8745,-4.8481,-4.8207,-4.817,-4.8258,-4.812,-4.812,-4.812,0.0,0.0,0.0,0.0,0.0,0.0,0.0,-4.2602,-4.2602,-4.2602,-4.2602,-4.2602,-4.2602,-4.2602,-4.2602,-4.2602,0.0,0.0,0.0,0.0,0.0,0.0,0.0,0.0,-4.3113,-4.3113,-4.3021,-4.2899,-4.2899,-4.2806,-4.2602,-4.2602,-4.2602,-4.2602,-4.2602,-4.2602,-4.2571,0.0,0.0,0.0,0.0,0.0,0.0,0.0,0.0,0.0,0.0,0.0,0.0,0.0,0.0,0.0,0.0,0.0,0.0,0.0,0.0,0.0,0.0,-3.6978,-3.6978,-3.6978,-3.6978,-3.6978,-3.6978,-3.6978,0.0,-3.6978,-3.6978,-3.6978,-3.6978,-3.6978,-3.6978,-3.6978,-3.6978,-3.6978,-3.6978,-3.7063,-3.7594,-3.8775,-3.9957,-4.1193,-4.2458,-4.2584,-4.309,-4.4326,-4.4411,-4.4411,-4.4411,-4.4644,-4.4922,-4.5124,-4.4968,-4.506,-4.5504,-4.5549,-4.5972,-4.6792,-4.7477,-4.8116,-4.8692,-4.9378,-4.9717,-4.9717,-4.9717,-4.9438,-4.8959,-4.8945,-4.8795,-4.8545,-4.8258,-4.8258,-4.8495,-4.8221,-4.812,-4.812,0.0,0.0,0.0,0.0,0.0,0.0,0.0,0.0,0.0,0.0,-4.2602,-4.2602,-4.2602,-4.2602,-4.2602,0.0,0.0,0.0,0.0,0.0,0.0,0.0,0.0,0.0,-4.3113,-4.3113,-4.3021,-4.2899,-4.2899,-4.2806,-4.2602,-4.2602,-4.2602,-4.2602,-4.2602,-4.2602,-4.2602,-4.2429,0.0,0.0,0.0,0.0,0.0,0.0,0.0,0.0,-3.6978,-3.6978,0.0,0.0,0.0,0.0,0.0,0.0,0.0,0.0,-3.6978,-3.6978,-3.6978,0.0,-3.6978,-3.6978,-3.6978,-3.6978,0.0,-3.6978,-3.6978,-3.6978,-3.6978,-3.6978,-3.6978,-3.6978,-3.6978,-3.6978,-3.6978,-3.6978,-3.6978,-3.7847,-3.8579,-3.8874,-3.9957,-4.1193,-4.2458,-4.2584,-4.309,-4.4326,-4.4411,-4.4504,-4.4705,-4.4797,-4.4968,-4.5413,-4.5367,-4.5473,-4.579,-4.579,-4.6154,-4.6792,-4.7477,-4.8116,-4.8692,-4.9378,-4.9717,-4.9717,-4.9717,-4.9634,-4.9488,-4.9305,-4.9157,-4.9058,-4.8595,-4.8445,-4.8495,-4.8221,-4.812,-4.812,0.0,0.0,0.0,0.0,0.0,0.0,0.0,0.0,0.0,0.0,0.0,-4.2602,0.0,0.0,0.0,0.0,0.0,0.0,0.0,0.0,0.0,0.0,0.0,-4.3432,-4.3342,-4.3265,-4.316,-4.2976,-4.293,-4.2806,-4.2602,-4.2602,-4.2602,-4.2602,-4.2602,-4.2602,-4.2602,-4.2602,-4.2317,0.0,-4.1525,0.0,0.0,0.0,0.0,0.0,-3.6978,-3.6978,0.0,-3.7327,-3.7211,-3.707,0.0,0.0,0.0,0.0,-3.6978,-3.6978,-3.6978,-3.6978,-3.6978,-3.6978,-3.6978,-3.6978,-3.6978,-3.6978,-3.6978,-3.6978,-3.6978,-3.6978,-3.6978,-3.6978,-3.6978,-3.6978,-3.6978,-3.7091,-3.7358,-3.8364,-3.9096,-3.9296,-4.0196,-4.1309,-4.2503,-4.2584,-4.309,-4.4326,-4.4411,-4.4504,-4.4797,-4.4876,-4.5092,-4.5504,-4.5595,-4.5745,-4.588,-4.588,-4.62,-4.6792,-4.7477,-4.8116,-4.8692,-4.9378,-4.9717,-4.9717,-4.9717,-4.9634,-4.9488,-4.9355,-4.9305,-4.9256,-4.8845,-4.8695,-4.8645,-4.8409,-4.8221,-4.812,0.0,0.0,0.0,0.0,0.0,0.0,0.0,0.0,0.0,0.0,0.0,0.0,0.0,0.0,0.0,0.0,0.0,0.0,0.0,0.0,0.0,0.0,-4.3402,-4.3598,-4.3598,-4.3479,-4.3312,-4.3113,-4.2976,-4.2806,-4.2602,-4.2602,-4.2602,-4.2602,-4.2602,-4.2602,-4.2602,-4.2602,-4.2602,-4.2539,-4.1916,0.0,0.0,0.0,0.0,0.0,0.0,0.0,0.0,-3.7582,-3.7429,-3.7095,-3.7582,0.0,0.0,0.0,0.0,0.0,-3.6978,-3.6978,-3.6978,-3.6978,-3.6978,-3.6978,-3.6978,-3.6978,-3.6978,-3.6978,-3.6978,-3.6978,-3.6978,-3.6978,-3.6978,-3.6978,-3.6978,-3.7203,-3.7821,-3.8615,-3.9305,-3.976,-4.0464,-4.1339,-4.2406,-4.2559,-4.3048,-4.4218,-4.4401,-4.4551,-4.483,-4.5046,-4.5261,-4.5549,-4.579,-4.588,-4.588,-4.588,-4.6156,-4.6647,-4.7332,-4.797,-4.8595,-4.9248,-4.9582,-4.9717,-4.9717,-4.9585,-4.9355,-4.9355,-4.9355,-4.9355,-4.9058,-4.8959,-4.8895,-4.8595,-4.8395,-4.8221,0.0,0.0,0.0,0.0,0.0,0.0,0.0,0.0,0.0,0.0,0.0,0.0,0.0,0.0,0.0,0.0,0.0,0.0,0.0,0.0,0.0,-4.3096,-4.3295,-4.3462,-4.3598,-4.3479,-4.3312,-4.3113,-4.2976,-4.2806,-4.2602,-4.2602,-4.2602,-4.2602,-4.2602,-4.2602,-4.2602,-4.2602,-4.2602,-4.2571,-4.2174,0.0,0.0,0.0,0.0,0.0,0.0,0.0,0.0,-3.7095,-3.7095,-3.7017,-3.7095,0.0,0.0,0.0,0.0,0.0,-3.6978,-3.6978,-3.6978,-3.6978,-3.6978,-3.6978,-3.6978,-3.6978,-3.6978,-3.6978,-3.6978,-3.6978,-3.6978,-3.6978,-3.6978,-3.6978,-3.6978,-3.7203,-3.7821,-3.8494,-3.9182,-3.9746,-4.0365,-4.1098,-4.2005,-4.2394,-4.2955,-4.3828,-4.4426,-4.483,-4.5032,-4.5321,-4.5549,-4.5835,-4.588,-4.588,-4.588,-4.588,-4.5938,-4.604,-4.6679,-4.7317,-4.7941,-4.858,-4.9161,-4.9717,-4.9717,-4.9683,-4.9634,-4.9634,-4.9634,-4.9634,-4.9355,-4.9256,-4.9157,-4.8695,-4.8595,-4.8745,0.0,0.0,0.0,0.0,0.0,0.0,0.0,0.0,0.0,0.0,0.0,0.0,0.0,0.0,0.0,0.0,0.0,0.0,0.0,0.0,-4.2821,-4.2976,-4.3068,-4.3221,-4.3509,-4.3267,-4.3068,-4.2976,-4.2821,-4.2696,-4.2602,-4.2602,-4.2602,-4.2602,-4.2602,-4.2602,-4.2602,-4.2602,-4.2602,-4.2571,0.0,0.0,0.0,0.0,0.0,0.0,0.0,0.0,0.0,0.0,-3.7772,-3.7544,-3.7886,0.0,0.0,0.0,0.0,0.0,-3.6978,-3.6978,-3.6978,-3.6978,-3.6978,-3.6978,-3.6978,-3.6978,-3.6978,-3.6978,-3.6978,-3.6978,-3.6978,-3.6978,-3.6978,-3.6978,-3.6978,-3.7316,-3.8285,-3.8801,-3.9391,-4.021,-4.0647,-4.1184,-4.1907,-4.2457,-4.3123,-4.3958,-4.4598,-4.5046,-4.5307,-4.5413,-4.5595,-4.588,-4.588,-4.588,-4.588,-4.588,-4.588,-4.5895,-4.6519,-4.6937,-4.7303,-4.8275,-4.8885,-4.9175,-4.9524,-4.9717,-4.9717,-4.9717,-4.9717,-4.9683,-4.9537,-4.9453,-4.9256,-4.8845,-4.8595,-4.8459,0.0,0.0,0.0,0.0,0.0,0.0,0.0,0.0,0.0,0.0,0.0,0.0,0.0,0.0,0.0,0.0,0.0,0.0,0.0,-4.2634,-4.2728,-4.2899,-4.2899,-4.3023,-4.3312,-4.3054,-4.2899,-4.2899,-4.2696,-4.2602,-4.2602,-4.2602,-4.2602,-4.2602,-4.2602,-4.2602,-4.2602,-4.2602,-4.2602,-4.2571,0.0,0.0,0.0,0.0,0.0,0.0,0.0,0.0,0.0,0.0,0.0,0.0,0.0,0.0,0.0,-3.7173,-3.6978,-3.6978,-3.6978,-3.6978,-3.6978,-3.6978,-3.6978,-3.6978,-3.6978,-3.6978,-3.6978,-3.6978,-3.6978,-3.6978,-3.6978,-3.6978,-3.6978,-3.6978,-3.7105,-3.7597,-3.8747,-3.9151,-3.9687,-4.0575,-4.0859,-4.1156,-4.1795,-4.249,-4.3231,-4.3983,-4.4772,-4.5261,-4.5504,-4.5549,-4.57,-4.588,-4.588,-4.588,-4.588,-4.588,-4.588,-4.5895,-4.6374,-4.6633,-4.6821,-4.7793,-4.8362,-4.8537,-4.9175,-4.9451,-4.9465,-4.9576,-4.9634,-4.9669,-4.9634,-4.9438,-4.9207,-4.9108,-4.866,-4.817,0.0,0.0,0.0,0.0,0.0,0.0,0.0,0.0,0.0,0.0,0.0,0.0,0.0,0.0,0.0,0.0,0.0,0.0,0.0,-4.2759,-4.2868,-4.2899,-4.2899,-4.2976,-4.3113,-4.2976,-4.2899,-4.2899,-4.2696,-4.2602,-4.2602,-4.2602,-4.2602,-4.2602,-4.2602,-4.2602,-4.2602,-4.2602,-4.2602,-4.2571,-4.2238,0.0,0.0,0.0,0.0,0.0,0.0,0.0,0.0,0.0,0.0,0.0,0.0,0.0,-3.7772,-3.7173,-3.6978,-3.6978,-3.6978,-3.6978,-3.6978,-3.6978,-3.6978,-3.6978,-3.6978,-3.6978,-3.6978,-3.6978,-3.6978,-3.6978,-3.6978,-3.6978,-3.6978,-3.6978,-3.7456,-3.8074,-3.8818,-3.9394,-3.9999,-4.0617,-4.0688,-4.093,-4.1411,-4.2336,-4.3105,-4.3602,-4.4768,-4.5504,-4.5504,-4.5745,-4.588,-4.588,-4.588,-4.588,-4.588,-4.588,-4.588,-4.588,-4.5924,-4.6258,-4.6778,-4.6879,-4.7288,-4.7883,-4.8522,-4.8798,-4.8793,-4.9158,-4.9502,-4.9683,-4.9453,-4.9157,-4.9009,-4.9488,-4.8994,-4.817,0.0,0.0,0.0,0.0,0.0,0.0,0.0,0.0,0.0,0.0,0.0,0.0,0.0,0.0,0.0,0.0,0.0,0.0,0.0,-4.2806,-4.2837,-4.2728,-4.2837,-4.2868,-4.2774,-4.2728,-4.2696,-4.2696,-4.2634,-4.2602,-4.2602,-4.2602,-4.2602,-4.2602,-4.2602,-4.2602,-4.2602,-4.2602,-4.2602,-4.2602,-4.246,-4.227,0.0,0.0,0.0,0.0,0.0,0.0,0.0,0.0,-3.9343,-3.9307,-3.909,-3.9017,-3.8819,-3.7848,-3.7544,-3.7481,-3.7095,-3.6978,-3.6978,-3.6978,-3.6978,-3.6978,-3.6978,-3.6978,-3.6978,-3.6978,-3.6978,-3.6978,-3.6978,-3.6978,-3.6978,-3.6978,-3.7498,-3.8131,-3.8818,-3.9436,-4.0013,-4.0631,-4.0702,-4.0873,-4.1354,-4.2481,-4.3355,-4.3806,-4.5021,-4.5745,-4.5745,-4.5835,-4.588,-4.588,-4.588,-4.588,-4.588,-4.588,-4.588,-4.588,-4.588,-4.6011,-4.6258,-4.665,-4.6969,-4.7216,-4.7869,-4.8035,-4.7907,-4.8263,-4.8316,-4.8283,-4.8591,-4.8603,-4.8597,-4.9196,-4.8994,-4.8395,0.0,0.0,0.0,0.0,0.0,0.0,0.0,0.0,0.0,0.0,0.0,0.0,0.0,0.0,0.0,0.0,0.0,0.0,-4.2602,-4.2806,-4.2806,-4.2602,-4.279,-4.2806,-4.2602,-4.2602,-4.2602,-4.2602,-4.2602,-4.2602,-4.2602,-4.2602,-4.2602,-4.2602,-4.2602,-4.2602,-4.2602,-4.2602,-4.2602,-4.2602,-4.2602,-4.246,0.0,0.0,0.0,0.0,0.0,0.0,0.0,0.0,-3.9965,-3.993,-3.9753,-3.9681,-3.9451,-3.8263,-3.7886,-3.7772,-3.7173,-3.6978,-3.6978,-3.6978,-3.6978,-3.6978,-3.6978,-3.6978,-3.6978,-3.6978,-3.6978,-3.6978,-3.6978,-3.6978,-3.6978,-3.6978,-3.7667,-3.8369,-3.8846,-3.9605,-4.0224,-4.0645,-4.0773,-4.0944,-4.1354,-4.2611,-4.3559,-4.3993,-4.5169,-4.588,-4.588,-4.588,-4.588,-4.588,-4.588,-4.588,-4.588,-4.588,-4.588,-4.588,-4.588,-4.588,-4.5895,-4.633,-4.6534,-4.6563,-4.7123,-4.7337,-4.7243,-4.7445,-4.7437,-4.7324,-4.7899,-4.7976,-4.784,-4.8494,-4.8438,-4.8112,0.0,0.0,0.0,0.0,0.0,0.0,0.0,0.0,0.0,0.0,0.0,0.0,0.0,0.0,0.0,0.0,0.0,0.0,-4.2602,-4.2806,-4.2806,-4.2602,-4.279,-4.2806,-4.2602,-4.2602,-4.2602,-4.2602,-4.2602,-4.2602,-4.2602,-4.2602,-4.2602,-4.2602,-4.2602,-4.2602,-4.2602,-4.2602,-4.2602,-4.2602,-4.2602,-4.2602,-4.2571,0.0,0.0,0.0,0.0,0.0,0.0,0.0,-4.0489,-4.042,-3.9859,-3.9717,-3.9451,-3.8263,-3.7924,-3.7772,-3.7173,-3.7017,-3.7017,-3.6978,-3.6978,-3.6978,-3.6978,-3.6978,-3.6978,-3.6978,-3.6978,-3.6978,-3.6978,-3.6978,-3.6978,-3.6993,-3.8086,-3.8902,-3.8916,-3.9929,-4.0702,-4.0702,-4.0887,-4.11,-4.1396,-4.2725,-4.3719,-4.3993,-4.5155,-4.588,-4.588,-4.588,-4.588,-4.588,-4.588,-4.588,-4.588,-4.588,-4.588,-4.588,-4.588,-4.588,-4.588,-4.588,-4.588,-4.5924,-4.6348,-4.6608,-4.6775,-4.6913,-4.6967,-4.7062,-4.7565,-4.7343,-4.6784,-4.7248,-4.7313,-4.7242,0.0,0.0,0.0,0.0,0.0,0.0,0.0,0.0,0.0,0.0,0.0,0.0,0.0,0.0,0.0,0.0,0.0,0.0,-4.2602,-4.2806,-4.2806,-4.2602,-4.279,-4.2806,-4.2602,-4.2602,-4.2602,-4.2602,-4.2602,-4.2602,-4.2602,-4.2602,-4.2602,-4.2602,-4.2602,-4.2602,-4.2602,-4.2602,-4.2602,-4.2602,-4.2602,-4.2602,-4.2602,0.0,0.0,0.0,0.0,0.0,0.0,0.0,0.0,0.0,-4.042,-4.0246,-4.0106,-3.9379,-3.9162,-3.8929,-3.7924,-3.762,-3.7544,-3.7095,-3.6978,-3.6978,-3.6978,-3.6978,-3.6978,-3.6978,-3.6978,-3.6978,-3.6978,-3.6978,-3.7133,-3.7555,-3.8368,-3.9057,-3.9493,-4.0196,-4.0702,-4.0702,-4.073,-4.0901,-4.11,-4.2081,-4.2969,-4.3647,-4.4631,-4.5387,-4.5866,-4.588,-4.588,-4.588,-4.588,-4.588,-4.588,-4.588,-4.588,-4.588,-4.588,-4.588,-4.588,-4.588,-4.588,-4.5895,-4.6053,-4.5989,-4.5898,-4.5933,-4.6065,-4.6261,-4.6648,-4.6695,-4.6627,-4.7213,-4.7152,-4.6931,0.0,0.0,0.0,0.0,0.0,0.0,0.0,0.0,0.0,0.0,-4.2602,-4.2602,0.0,0.0,0.0,0.0,0.0,0.0,0.0,-4.2696,-4.2728,-4.2602,-4.2713,-4.2728,-4.2602,-4.2602,-4.2602,-4.2602,-4.2602,-4.2602,-4.2602,-4.2602,-4.2602,-4.2602,-4.2602,-4.2602,-4.2602,-4.2602,-4.2602,-4.2602,-4.2602,-4.2602,-4.2602,0.0,0.0,0.0,0.0,0.0,0.0,0.0,0.0,0.0,-4.0799,-4.0627,-4.0351,-3.9559,-3.9343,-3.909,-3.7886,-3.7544,-3.7467,-3.7095,-3.6978,-3.6978,-3.6978,-3.6978,-3.6978,-3.6978,-3.6978,-3.6978,-3.6978,-3.6978,-3.7189,-3.7793,-3.844,-3.9127,-3.9704,-4.0308,-4.0702,-4.0702,-4.0773,-4.0887,-4.1001,-4.1782,-4.2568,-4.3185,-4.4079,-4.489,-4.5459,-4.5645,-4.579,-4.588,-4.588,-4.588,-4.588,-4.588,-4.588,-4.588,-4.588,-4.588,-4.588,-4.588,-4.588,-4.588,-4.588,-4.5745,-4.5504,-4.5595,-4.57,-4.5774,-4.6059,-4.608,-4.5999,-4.648,-4.6594,-4.6562,0.0,0.0,0.0,0.0,0.0,0.0,0.0,0.0,0.0,0.0,-4.2602,-4.2602,0.0,0.0,0.0,0.0,0.0,0.0,0.0,-4.2602,-4.2602,-4.2602,-4.2602,-4.2602,-4.2602,-4.2602,-4.2602,-4.2602,-4.2602,-4.2602,-4.2602,-4.2602,-4.2602,-4.2602,-4.2602,-4.2602,-4.2602,-4.2602,-4.2602,-4.2602,-4.2602,-4.2602,-4.2602,-4.2602,0.0,0.0,0.0,0.0,0.0,0.0,0.0,0.0,-4.1138,-4.0867,-4.037,-3.9292,-3.8929,-3.8671,-3.7481,-3.7134,-3.7056,-3.7017,-3.6978,-3.6978,-3.6978,-3.6978,-3.6978,-3.6978,-3.6978,-3.6978,-3.6978,-3.6978,-3.7203,-3.7878,-3.8482,-3.9141,-3.9774,-4.0336,-4.0702,-4.0702,-4.0845,-4.0958,-4.0958,-4.1725,-4.2324,-4.2624,-4.3556,-4.4348,-4.4791,-4.5234,-4.5595,-4.5835,-4.5835,-4.588,-4.588,-4.588,-4.588,-4.588,-4.588,-4.588,-4.588,-4.588,-4.588,-4.588,-4.588,-4.5745,-4.5549,-4.579,-4.5745,-4.5549,-4.579,-4.5595,-4.517,-4.5458,-4.574,-4.6095,0.0,0.0,0.0,0.0,0.0,0.0,0.0,0.0,0.0,0.0,0.0,0.0,0.0,0.0,0.0,0.0,0.0,0.0,0.0,-4.2602,-4.2602,-4.2602,-4.2602,-4.2602,-4.2602,-4.2602,-4.2602,-4.2602,-4.2602,-4.2602,-4.2602,-4.2602,-4.2602,-4.2602,-4.2602,-4.2602,-4.2602,-4.2602,-4.2602,-4.2602,-4.2602,-4.2602,-4.2602,-4.2602,-4.2397,0.0,0.0,0.0,0.0,0.0,0.0,0.0,-4.1272,-4.1223,-4.1223,-4.037,-4.0005,-3.9672,-3.8657,-3.8075,-3.7582,-3.7134,-3.6978,-3.6978,-3.6978,-3.6978,-3.6978,-3.6978,-3.6978,-3.6978,-3.6978,-3.6978,-3.7358,-3.8522,-3.8818,-3.9296,-4.0336,-4.0617,-4.0702,-4.0702,-4.073,-4.0773,-4.0773,-4.1085,-4.1497,-4.2109,-4.3141,-4.3918,-4.4346,-4.5068,-4.5549,-4.5595,-4.5595,-4.57,-4.588,-4.588,-4.588,-4.588,-4.588,-4.588,-4.588,-4.588,-4.588,-4.588,-4.588,-4.588,-4.5835,-4.588,-4.588,-4.5835,-4.588,-4.57,-4.5458,-4.5745,-4.559,-4.5424,0.0,0.0,0.0,0.0,0.0,0.0,0.0,0.0,0.0,0.0,0.0,0.0,0.0,0.0,0.0,0.0,0.0,0.0,0.0,0.0,-4.2602,-4.2602,-4.2602,-4.2602,-4.2602,-4.2602,-4.2602,-4.2602,-4.2602,-4.2602,-4.2602,-4.2602,-4.2602,-4.2602,-4.2602,-4.2602,-4.2602,-4.2602,-4.2602,-4.2602,-4.2602,-4.2602,-4.2602,-4.2602,-4.2492,-4.2365,-4.2539,0.0,0.0,0.0,0.0,0.0,0.0,0.0,-4.1223,-4.0543,-4.0409,-4.017,-3.8957,-3.8457,-3.8098,-3.7327,-3.707,-3.6978,-3.6978,-3.6978,-3.7017,-3.7109,-3.707,-3.6978,-3.6978,-3.6978,-3.74,-3.8705,-3.8902,-3.9338,-4.0519,-4.0702,-4.0702,-4.0702,-4.0702,-4.0702,-4.0702,-4.0802,-4.1028,-4.1482,-4.2208,-4.2837,-4.3267,-4.4167,-4.4817,-4.5057,-4.5345,-4.564,-4.588,-4.588,-4.588,-4.588,-4.588,-4.588,-4.588,-4.588,-4.588,-4.588,-4.588,-4.588,-4.588,-4.588,-4.588,-4.588,-4.588,-4.579,-4.57,-4.5835,-4.5745,-4.559,0.0,0.0,0.0,0.0,0.0,0.0,0.0,0.0,0.0,0.0,0.0,0.0,0.0,0.0,0.0,0.0,0.0,0.0,0.0,0.0,0.0,-4.2602,-4.2602,-4.2602,-4.2602,-4.2602,-4.2571,-4.2492,-4.2492,-4.2492,-4.2492,-4.2571,-4.2602,-4.2602,-4.2602,-4.2602,-4.2602,-4.2602,-4.2602,-4.2602,-4.2602,-4.2602,-4.2619,-4.2732,-4.278,-4.278,-4.278,-4.278,-4.2733,-4.2254,0.0,0.0,0.0,0.0,-4.1156,-4.0528,-4.0516,-4.0401,-3.9058,-3.8649,-3.842,-3.7519,-3.7187,-3.7017,-3.7017,-3.6978,-3.707,-3.7226,-3.7109,-3.7017,-3.707,-3.7017,-3.7358,-3.855,-3.8832,-3.931,-4.0378,-4.0631,-4.0702,-4.0702,-4.0702,-4.0702,-4.0702,-4.0702,-4.0773,-4.093,-4.138,-4.1833,-4.2152,-4.3115,-4.3901,-4.4419,-4.4982,-4.5434,-4.5835,-4.588,-4.588,-4.588,-4.588,-4.588,-4.588,-4.588,-4.588,-4.588,-4.588,-4.588,-4.588,-4.588,-4.588,-4.588,-4.588,-4.588,-4.588,-4.588,-4.588,-4.5953,0.0,0.0,0.0,0.0,0.0,0.0,0.0,0.0,0.0,0.0,-4.2602,-4.2602,0.0,0.0,0.0,0.0,0.0,0.0,-4.2602,0.0,0.0,-4.2602,-4.2602,-4.2602,-4.2602,-4.2602,-4.2476,-4.2174,-4.2174,-4.2174,-4.2174,-4.246,-4.2602,-4.2602,-4.2602,-4.2602,-4.2602,-4.2602,-4.2602,-4.2602,-4.2602,-4.2602,-4.2667,-4.3298,-4.3541,-4.3541,-4.3541,-4.3541,-4.3412,-4.2414,-4.2077,0.0,0.0,0.0,-4.1851,-4.1156,-4.0839,-4.0588,-4.008,-3.9133,-3.8113,-3.7457,-3.7264,-3.7226,-3.7017,-3.6978,-3.7017,-3.7017,-3.7017,-3.707,-3.7226,-3.7109,-3.7217,-3.792,-3.8496,-3.9155,-3.9802,-4.0364,-4.0702,-4.0702,-4.0702,-4.0702,-4.0702,-4.0702,-4.0702,-4.073,-4.148,-4.1877,-4.1688,-4.2541,-4.3312,-4.3896,-4.4222,-4.4762,-4.5549,-4.579,-4.588,-4.588,-4.588,-4.588,-4.588,-4.588,-4.588,-4.588,-4.588,-4.588,-4.588,-4.588,-4.588,-4.588,-4.588,-4.588,-4.588,-4.588,-4.588,-4.5895,0.0,0.0,0.0,0.0,0.0,0.0,0.0,0.0,0.0,0.0,0.0,-4.2775,0.0,0.0,0.0,-4.279,-4.3099,-4.3204,-4.3005,-4.2988,-4.2881,-4.2602,-4.2602,-4.2492,-4.2302,-4.2302,-4.2142,-4.1818,-4.1818,-4.1818,-4.1818,-4.198,-4.2238,-4.2602,-4.2602,-4.2602,-4.2635,-4.3023,-4.3201,-4.3233,-4.3686,-4.3703,-4.3572,-4.409,-4.4187,-4.4006,-4.4252,-4.4318,-4.4237,-4.3554,-4.3342,-4.3243,-4.2724,0.0,0.0,0.0,-4.2324,-4.2131,-4.0982,-3.9606,-3.8397,-3.8052,-3.7725,-3.7419,-3.7341,-3.7264,-3.7187,-3.7303,-3.7264,-3.7187,-3.7264,-3.7226,-3.7385,-3.7966,-3.8225,-3.8664,-3.9648,-4.0013,-4.0308,-4.0659,-4.0702,-4.0702,-4.0702,-4.0702,-4.073,-4.0845,-4.1113,-4.1325,-4.1497,-4.2092,-4.2634,-4.3182,-4.3628,-4.4279,-4.5181,-4.527,-4.5518,-4.588,-4.5745,-4.57,-4.57,-4.57,-4.5745,-4.588,-4.588,-4.588,-4.588,-4.588,-4.588,-4.588,-4.588,-4.588,-4.588,-4.588,-4.588,-4.588,0.0,0.0,0.0,0.0,0.0,0.0,0.0,0.0,0.0,0.0,0.0,0.0,0.0,0.0,0.0,0.0,-4.3489,-4.3591,-4.3306,-4.3306,-4.308,-4.2618,-4.2539,-4.2365,-4.2109,-4.2013,-4.1818,-4.1456,-4.1456,-4.1456,-4.1456,-4.1555,-4.2011,-4.2751,-4.2751,-4.2814,-4.2926,-4.3686,-4.3994,-4.4026,-4.4478,-4.4473,-4.4237,-4.4648,-4.4595,-4.4391,-4.478,-4.493,-4.4864,-4.4436,-4.4305,-4.4237,-4.3812,-4.3999,0.0,0.0,0.0,-4.3491,-4.1731,-4.0449,-3.945,-3.8996,-3.8566,-3.8179,-3.7926,-3.7749,-3.7634,-3.7534,-3.7495,-3.7419,-3.738,-3.738,-3.7536,-3.7951,-3.8046,-3.8349,-3.9253,-3.9703,-4.0111,-4.0492,-4.0731,-4.0873,-4.0873,-4.0873,-4.0944,-4.11,-4.0944,-4.1043,-4.1396,-4.1654,-4.2067,-4.2596,-4.3099,-4.3762,-4.4559,-4.4806,-4.514,-4.5558,-4.5522,-4.5504,-4.5504,-4.5504,-4.564,-4.588,-4.588,-4.588,-4.588,-4.588,-4.588,-4.588,-4.588,-4.588,-4.588,-4.588,-4.588,-4.588,0.0,0.0,0.0,0.0,0.0,0.0,0.0,0.0,0.0,0.0,0.0,0.0,-4.4333,-4.4322,-4.4226,-4.3972,-4.3972,-4.3798,-4.3336,-4.3306,-4.308,-4.2618,-4.2318,0.0,-4.2109,-4.1785,-4.1456,-4.1138,-4.1138,-4.1138,-4.1122,-4.1456,-4.2167,-4.315,-4.315,-4.3363,-4.3702,-4.4431,-4.4739,-4.4706,-4.439,-4.4221,-4.4234,-4.4592,-4.4689,-4.4725,-4.5125,-4.5264,-4.5168,-4.4529,-4.4305,-4.4237,-4.3812,-4.3999,-4.4305,0.0,0.0,0.0,-4.2454,-4.1975,-4.1593,-4.0262,-3.9935,-3.9711,-3.8765,-3.8609,-3.8368,-3.7519,-3.7625,-3.7815,-3.7625,-3.7586,-3.7586,-3.7629,-3.809,-3.841,-3.8309,-3.9505,-4.0315,-4.0165,-4.0857,-4.1354,-4.1354,-4.1354,-4.1354,-4.1396,-4.1354,-4.1354,-4.1396,-4.1424,-4.171,-4.231,-4.2582,-4.3041,-4.3661,-4.4501,-4.482,-4.467,-4.5216,-4.5504,-4.5504,-4.5504,-4.564,-4.588,-4.588,-4.588,-4.588,-4.588,-4.588,-4.588,-4.588,-4.588,-4.588,-4.588,-4.588,-4.588,0.0,0.0,0.0,0.0,0.0,0.0,0.0,0.0,0.0,0.0,0.0,0.0,0.0,-4.4902,-4.5173,-4.4908,-4.5537,-4.5702,-4.518,-4.515,-4.4632,-4.3378,-4.2993,-4.2476,-4.1785,-4.1456,-4.1088,-4.073,-4.073,-4.0962,-4.1426,-4.176,-4.2496,-4.3518,-4.3505,-4.3864,-4.4447,-4.5144,-4.5435,-4.545,-4.5511,-4.5549,-4.5546,-4.5681,-4.558,-4.5453,-4.5792,-4.5933,-4.5901,-4.568,-4.5773,-4.5945,-4.5808,-4.5842,-4.5864,-4.5396,-4.4961,-4.4458,-4.3699,-4.3298,-4.2921,-4.2186,-4.1858,-4.1607,-4.1232,-4.0666,-4.0142,-3.9815,-3.9853,-3.9636,-3.8606,-3.8088,-3.7777,-3.7777,-3.7849,-3.8043,-3.8339,-3.8859,-3.9444,-4.0201,-4.0583,-4.0924,-4.1353,-4.1396,-4.1438,-4.1577,-4.1465,-4.1522,-4.1829,-4.1689,-4.1776,-4.2161,-4.2259,-4.259,-4.3212,-4.395,-4.4472,-4.4805,-4.4873,-4.5115,-4.5504,-4.5504,-4.5549,-4.564,-4.5835,-4.588,-4.588,-4.588,-4.588,-4.588,-4.588,-4.588,-4.588,-4.588,-4.588,-4.588,0.0,0.0,0.0,0.0,0.0,0.0,0.0,0.0,0.0,-4.4569,0.0,0.0,0.0,0.0,-4.6563,-4.6192,-4.668,-4.673,-4.6237,-4.6041,-4.5377,-4.4124,-4.3732,-4.3177,-4.2333,-4.1946,-4.1584,-4.1197,-4.1197,-4.1478,-4.194,-4.2424,-4.3135,-4.406,-4.4278,-4.4674,-4.5176,-4.5872,-4.6164,-4.6178,-4.625,-4.6285,-4.6301,-4.6159,-4.5997,-4.5832,-4.6068,-4.6124,-4.6124,-4.6124,-4.6317,-4.6528,-4.6668,-4.6807,-4.6795,-4.6309,-4.584,-4.5402,-4.4924,-4.4591,-4.4286,-4.3733,-4.3455,-4.3255,-4.2958,-4.2398,-4.1878,-4.1558,-4.1558,-4.1273,-4.0214,-3.9498,-3.8824,-3.8101,-3.7877,-3.7906,-3.8259,-3.8542,-3.9025,-3.9817,-4.033,-4.0802,-4.1247,-4.1491,-4.1689,-4.1841,-4.1731,-4.1787,-4.2092,-4.1939,-4.1897,-4.2092,-4.2092,-4.2281,-4.2687,-4.334,-4.3805,-4.411,-4.444,-4.4828,-4.5187,-4.5403,-4.5549,-4.564,-4.5835,-4.588,-4.588,-4.588,-4.588,-4.588,-4.588,-4.588,-4.588,-4.588,-4.588,-4.5925,0.0,0.0,0.0,0.0,0.0,0.0,0.0,0.0,-4.4742,-4.5284,0.0,0.0,0.0,0.0,0.0,-4.7824,-4.7295,-4.6781,-4.6321,-4.5862,-4.5373,-4.4886,-4.4505,-4.4118,-4.3709,-4.329,-4.2931,-4.2602,-4.2602,-4.2617,-4.2669,-4.3372,-4.4088,-4.4772,-4.5518,-4.584,-4.5888,-4.6585,-4.6876,-4.6842,-4.6477,-4.6285,-4.6285,-4.5925,-4.5796,-4.5796,-4.5796,-4.5796,-4.5796,-4.5796,-4.5796,-4.5868,-4.6195,-4.6582,-4.6876,-4.6876,-4.6876,-4.673,0.0,0.0,0.0,-4.4862,-4.4765,-4.463,-4.378,-4.3689,-4.35,-4.2597,-4.2561,-4.2633,-4.2385,-4.1864,-4.0808,-3.8689,-3.8298,-3.8185,-3.7987,-3.8673,-3.9156,-3.8976,-4.0217,-4.1105,-4.112,-4.1715,-4.2092,-4.2092,-4.2092,-4.2092,-4.2092,-4.2092,-4.2092,-4.2092,-4.2092,-4.2092,-4.2092,-4.2673,-4.2836,-4.2653,-4.3949,-4.4569,-4.4627,-4.5246,-4.5671,-4.5925,-4.5925,-4.5925,-4.5925,-4.5925,-4.588,-4.588,-4.588,-4.588,-4.588,-4.588,-4.5925,-4.6046,0.0,0.0,0.0,0.0,0.0,-4.3713,-4.4563,-4.5261,-4.5922,0.0,0.0,0.0,-4.7565,-4.8248,-4.9052,-4.9866,-4.9463,-4.8927,-4.8399,-4.8264,-4.7565,-4.6175,-4.5484,-4.4701,-4.3725,-4.3074,-4.2695,-4.2602,-4.2602,-4.2994,-4.377,-4.4189,-4.4941,-4.5892,-4.6362,-4.6585,-4.6601,-4.6795,-4.6876,-4.6842,-4.6477,-4.6477,-4.6703,-4.6301,-4.6159,-4.6159,-4.6159,-4.5997,-4.5796,-4.5796,-4.5961,-4.623,-4.6617,-4.6807,-4.6876,-4.6876,-4.6876,-4.6878,-4.6633,0.0,0.0,0.0,0.0,0.0,-4.6019,-4.5555,-4.5076,-4.4824,-4.4788,-4.4486,-4.3389,-4.3516,-4.3257,-4.1635,-4.038,-3.9542,-3.9503,-3.9702,-4.0031,-4.043,-4.0833,-4.1279,-4.1773,-4.199,-4.2092,-4.2092,-4.2092,-4.2092,-4.2092,-4.2092,-4.2092,-4.2092,-4.2092,-4.2092,-4.2092,-4.2266,-4.2515,-4.2907,-4.327,-4.3921,-4.482,-4.4993,-4.5712,-4.6799,-4.6165,-4.6254,-4.6784,-4.618,-4.588,-4.588,-4.588,-4.588,-4.588,-4.588,-4.6299,-4.6872,0.0,0.0,0.0,-4.3306,-4.3413,-4.4015,-4.5574,-4.5976,-4.6515,0.0,0.0,0.0,-4.9194,-4.9247,-4.9584,-5.0391,-4.9971,-4.953,-4.9209,-4.8995,-4.8421,-4.7402,-4.6963,-4.6221,-4.5138,-4.4512,-4.4116,-4.3946,-4.3748,-4.4096,-4.4871,-4.5219,-4.5709,-4.6337,-4.6738,-4.6876,-4.6876,-4.6876,-4.6876,-4.6876,-4.6652,-4.6703,-4.6876,-4.6633,-4.6442,-4.6285,-4.6285,-4.6088,-4.5796,-4.5796,-4.6032,-4.6337,-4.6423,-4.6633,-4.6876,-4.6876,-4.6876,-4.6876,-4.6876,-4.6876,-4.6876,-4.6876,0.0,0.0,-4.6876,-4.6547,-4.6214,-4.6214,-4.6214,-4.5945,-4.5072,-4.5029,-4.4867,-4.4028,-4.2788,-4.1769,-4.1217,-4.0852,-4.0783,-4.118,-4.1157,-4.121,-4.1534,-4.1906,-4.2036,-4.1939,-4.2051,-4.2242,-4.2581,-4.293,-4.297,-4.2622,-4.2622,-4.2433,-4.2092,-4.2092,-4.2459,-4.311,-4.3375,-4.3904,-4.4639,-4.5554,-4.6256,-4.68,-4.6912,-4.7276,-4.7689,-4.7189,-4.655,-4.588,-4.588,-4.6135,-4.6462,-4.6462,-4.6988,-4.7816,0.0,0.0,-4.3066,-4.3844,-4.3939,-4.4682,-4.6917,-4.6782,-4.6985,0.0,-4.9398,-5.0154,-5.0813,-5.0373,-5.0022,-5.0063,-4.9649,-4.9316,-4.9286,-4.8824,-4.8543,-4.8511,-4.8431,-4.8015,-4.7118,-4.6708,-4.6269,-4.5796,-4.5431,-4.5505,-4.5941,-4.6195,-4.6391,-4.655,-4.6807,-4.6911,-4.6979,-4.6927,-4.6876,-4.6876,-4.6876,-4.6876,-4.6876,-4.6876,-4.6668,-4.6372,-4.6372,-4.614,-4.5868,-4.5868,-4.6052,-4.6266,-4.5997,-4.6353,-4.6876,-4.6876,-4.6876,-4.6876,-4.6876,-4.6876,-4.6876,-4.6876,-4.6876,0.0,-4.6876,-4.6876,-4.6876,-4.6876,-4.6876,-4.6876,-4.6876,-4.6337,-4.5841,-4.5841,-4.5221,-4.4304,-4.3009,-4.2195,-4.1738,-4.1738,-4.1568,-4.1394,-4.1207,-4.1893,-4.2228,-4.1895,-4.2022,-4.2474,-4.3245,-4.3974,-4.409,-4.3442,-4.3427,-4.3101,-4.2366,-4.2366,-4.2743,-4.3442,-4.3988,-4.4263,-4.4408,-4.6432,-4.7058,-4.6569,-4.793,-4.8553,-4.8636,-4.8553,-4.7518,-4.6046,-4.6135,-4.658,-4.7189,-4.7319,-4.79,-4.8759,0.0,-4.4169,-4.4581,-4.5544,-4.5846,-4.6448,-4.7988,-4.8434,-4.8967,-4.998,-5.0632,-5.113,-5.1495,-5.1008,-5.0612,-5.063,-5.0352,-5.0057,-4.986,-4.9742,-4.95,-4.9057,-4.8728,-4.8094,-4.7101,-4.6708,-4.6269,-4.5796,-4.5724,-4.6088,-4.6844,-4.6461,-4.688,-4.795,-4.7236,-4.7116,-4.7504,-4.7082,-4.6876,-4.6876,-4.6876,-4.6876,-4.6876,-4.6876,-4.6842,-4.6772,-4.6772,-4.6512,-4.6195,-4.6195,-4.6266,-4.6372,-4.6598,-4.6772,-4.6876,-4.6876,-4.6876,-4.6876,-4.6876,-4.6876,-4.6876,-4.6876,-4.6876,0.0,-4.6876,-4.6876,-4.6876,-4.6876,-4.6876,-4.6876,-4.6876,-4.6772,-4.6668,-4.6668,-4.6547,-4.5905,-4.4344,-4.3997,-4.3899,-4.3899,-4.3854,-4.3815,-4.3776,-4.3952,-4.3756,-4.3046,-4.2418,-4.2474,-4.3245,-4.3442,-4.3741,-4.4243,-4.4282,-4.4167,-4.4028,-4.4028,-4.4105,-4.4282,-4.4381,-4.4702,-4.5183,-4.6232,-4.7267,-4.8294,-4.8424,-4.8938,-4.9574,-4.88,-4.7885,-4.7031,-4.7731,-4.7689,-4.7276,-4.7969,-4.8856,-4.9654,-4.4702,-4.4872,-4.5377,-4.6756,-4.6965,-4.7513,-4.9225,-4.9589,-5.0003,-5.0955,-5.1231,-5.1281,-5.1245,-5.0847,-5.0564,-5.0397,-5.0274,-5.012,-5.0011,-5.0011,-4.9877,-4.9619,-4.9406,-4.8807,-4.7754,-4.7372,-4.7051,-4.6738,-4.6547,-4.6896,-4.7721,-4.722,-4.7354,-4.8032,-4.7236,-4.7184,-4.7704,-4.7523,-4.76,-4.7742,-4.716,-4.6876,-4.6876,-4.6876,-4.6772,-4.6617,-4.6807,-4.6772,-4.6582,-4.6372,-4.6442,-4.6582,-4.6582,-4.6738,-4.6876,-4.6876,-4.6876,-4.6876,-4.6876,-4.6876,-4.6876,-4.6876,-4.6876,0.0,0.0,-4.6876,-4.6876,-4.6876,-4.6876,-4.6876,-4.6876,-4.6876,-4.6876,-4.6876,-4.6876,-4.6633,-4.5805,-4.5369,-4.511,-4.511,-4.4737,-4.4472,-4.4312,-4.4419,-4.432,-4.3935,-4.3897,-4.409,-4.4495,-4.4871,-4.5095,-4.511,-4.511,-4.4924,-4.451,-4.451,-4.4699,-4.511,-4.511,-4.5282,-4.5588,-4.7089,-4.794,-4.8374,-4.9394,-5.0104,-5.0525,-5.0049,-4.9318,-4.8527,-4.8512,-4.8512,-4.8625,-4.9019,-4.9773,-5.0563,-4.5789,-4.5936,-4.6442,-4.8029,-4.8087,-4.8554,-5.0435,-5.0434,-5.0563,-5.15,-5.1436,-5.1202,-5.0928,-5.0647,-5.0359,-5.0109,-5.008,-5.0068,-4.9993,-5.0011,-5.0011,-5.0011,-5.0011,-4.9547,-4.8574,-4.8272,-4.8032,-4.782,-4.7522,-4.7754,-4.8543,-4.8065,-4.7951,-4.8114,-4.7471,-4.7554,-4.8199,-4.8273,-4.8549,-4.8839,-4.7854,-4.7401,-4.7297,-4.7297,-4.7106,-4.6843,-4.7176,-4.7297,-4.7262,-4.693,-4.7036,-4.7262,-4.6914,-4.6939,-4.7103,-4.7103,-4.6989,-4.6876,-4.6876,-4.6876,-4.6911,-4.703,-4.7048,-4.7082,0.0,0.0,0.0,-4.7082,-4.7116,-4.7134,-4.6945,-4.6979,-4.6965,-4.6732,-4.6795,-4.6828,-4.6698,-4.624,-4.5913,-4.5913,-4.5369,-4.4871,-4.4659,-4.4706,-4.4737,-4.4737,-4.5184,-4.5551,-4.5697,-4.6337,-4.6442,-4.5965,-4.5913,-4.5624,-4.4962,-4.4962,-4.5295,-4.5913,-4.5913,-4.5913,-4.5997,-4.7934,-4.8542,-4.8131,-5.0113,-5.1054,-5.1183,-5.1183,-5.0771,-5.0081,-4.9303,-4.9399,-4.9908,-5.0081,-5.0618,-5.1183,-4.8449,-4.8569,-4.89,-4.9987,-4.9978,-5.0193,-5.139,-5.1078,-5.0876,-5.1307,-5.1324,-5.1298,-5.1255,-5.0955,-5.063,-5.0387,-5.0359,-5.0246,-5.004,-5.0011,-5.0011,-5.0011,-5.0011,-4.9725,-4.9118,-4.9087,-4.8793,-4.8321,-4.8272,-4.8543,-4.9087,-4.8574,-4.881,-4.9683,-4.8685,-4.8895,-4.9978,-4.9602,-4.9543,-4.9765,-4.9597,-4.9232,-4.8751,-4.8751,-4.8735,-4.8699,-4.8751,-4.8751,-4.8735,-4.8699,-4.8699,-4.8735,-4.8699,-4.833,-4.788,-4.788,-4.741,-4.6876,-4.6876,-4.6876,-4.7014,-4.7504,-4.7605,-4.7721,-4.8129,0.0,-4.8096,-4.7688,0.0,-4.7967,-4.7082,0.0,0.0,-4.6102,-4.6455,-4.6649,-4.6018,-4.6403,-4.6772,-4.6772,-4.6687,-4.6617,-4.6566,-4.5949,-4.5551,-4.5551,-4.4999,-4.4962,-4.566,-4.5769,-4.6108,-4.6738,-4.6772,-4.6738,-4.6617,-4.6617,-4.6652,-4.6772,-4.6772,-4.6772,-4.6805,-4.7715,-4.8375,-4.8901,-4.9835,-5.06,-5.1183,-5.1183,-5.1146,-5.1054,-5.0924,-5.0486,-4.9986,-5.0771,-5.1092,-5.1183,-4.9398,-4.9405,-4.9755,-5.0789,-5.0862,-5.1012,-5.1612,-5.147,-5.1367,-5.1513,-5.1757,-5.1936,-5.1936,-5.2083,-5.1913,-5.1168,-5.1104,-5.0979,-5.0649,-5.0649,-5.0649,-5.0649,-5.0649,-5.0171,-4.9226,-4.9209,-4.9087,-4.8855,-4.8855,-4.9135,-4.9666,-4.9559,-4.9763,-5.015,-4.9875,-5.0197,-5.098,-5.0907,-5.1061,-5.1413,-5.1543,-5.1433,-5.1018,-4.9574,-4.8994,-4.8994,-4.8994,-4.8994,-4.8994,-4.8994,-4.8994,-4.8994,-4.8994,-4.8819,-4.8557,-4.8557,-4.8091,-4.754,-4.754,-4.7216,-4.6945,-4.7184,-4.7235,-4.7354,-4.7869,-4.8,-4.8032,-4.8081,0.0,0.0,0.0,0.0,0.0,0.0,-4.7157,-4.7154,-4.654,-4.6698,-4.6876,-4.6876,-4.6876,-4.6876,-4.6876,-4.6582,-4.6407,-4.6407,-4.6072,-4.6036,-4.6372,-4.6407,-4.6547,-4.6876,-4.6876,-4.6876,-4.6876,-4.6876,-4.6876,-4.6876,-4.6876,-4.6876,-4.6909,-4.767,-4.8382,-4.9026,-4.9791,-5.0519,-5.1183,-5.1183,-5.1183,-5.1183,-5.1183,-5.0978,-5.0695,-5.107,-5.1183,-5.1183,-5.0303,-5.018,-5.04,-5.127,-5.135,-5.1376,-5.1564,-5.1843,-5.2029,-5.2029,-5.2439,-5.2714,-5.2714,-5.2926,-5.2739,-5.1969,-5.1819,-5.1673,-5.1407,-5.1407,-5.1407,-5.1407,-5.1407,-5.0952,-5.0038,-5.0021,-5.0021,-5.0021,-5.0021,-5.0236,-5.0602,-5.0737,-5.0823,-5.0841,-5.1009,-5.1446,-5.2018,-5.2161,-5.2484,-5.2836,-5.2977,-5.294,-5.258,-5.0585,-4.9798,-4.9798,-4.9649,-4.9722,-4.9814,-4.9649,-4.9613,-4.9613,-4.9613,-4.9483,-4.9321,-4.9321,-4.8819,-4.8285,-4.8285,-4.7985,-4.7653,-4.7458,-4.7615,-4.7869,-4.8082,-4.8211,-4.8403,-4.8574,-4.8748,0.0,0.0,0.0,-4.8398,-4.7719,0.0,-4.7671,-4.7109,-4.7088,-4.7048,-4.6911,-4.6876,-4.6876,-4.6876,-4.6876,-4.6876,-4.6876,-4.6876,-4.6876,-4.6876,-4.6876,-4.6876,-4.6876,-4.6876,-4.6876,-4.6876,-4.6876,-4.6876,-4.6876,-4.6876,-4.6876,-4.6943,-4.7443,-4.8188,-4.901,-4.958,-5.0325,-5.1183,-5.1183,-5.1183,-5.1183,-5.1183,-5.1183,-5.1183,-5.1183,-5.1183,-5.1183,-5.1579,-5.1426,-5.1341,-5.164,-5.1462,-5.1281,-5.1307,-5.2197,-5.2858,-5.2858,-5.3274,-5.3564,-5.3564,-5.3063,-5.2689,-5.2672,-5.2376,-5.2183,-5.2153,-5.2153,-5.2153,-5.2153,-5.2153,-5.2153,-5.2119,-5.2119,-5.2119,-5.2119,-5.2119,-5.2119,-5.2119,-5.2136,-5.2153,-5.2153,-5.214,-5.2571,-5.3325,-5.336,-5.3489,-5.3666,-5.3667,-5.3315,-5.2715,-5.2153,-5.1921,-5.1849,-5.1327,-5.1443,-5.1813,-5.1311,-5.1118,-5.1118,-5.1118,-5.0633,-5.0066,-5.0066,-4.9564,-4.8961,-4.8961,-4.9393,-4.9615,-4.8856,-4.9439,-5.0014,-4.9318,-4.956,-4.9772,-4.9286,-4.959,-4.9637,-4.8606,-4.8824,-4.8806,-4.7606,-4.7933,0.0,0.0,-4.7536,-4.7471,-4.6945,-4.6876,-4.6876,-4.6876,-4.6876,-4.6876,-4.6876,-4.6876,-4.6876,-4.6876,-4.6876,-4.6876,-4.6876,-4.6876,-4.6876,-4.6876,-4.6876,-4.6876,-4.6876,-4.6876,-4.6876,-4.6876,-4.6909,-4.7686,-4.8994,-4.901,-4.9872,-5.1183,-5.1183,-5.1183,-5.1183,-5.1183,-5.1183,-5.1183,-5.1183,-5.1183,-5.1183,-5.1384,-5.1359,-5.1384,-5.164,-5.1615,-5.1742,-5.2276,-5.3084,-5.3557,-5.3371,-5.3937,-5.4277,-5.4081,-5.4337,-5.4267,-5.349,-5.3319,-5.3203,-5.3011,-5.2994,-5.2994,-5.2994,-5.2994,-5.2753,-5.2205,-5.2188,-5.2188,-5.2188,-5.2188,-5.2188,-5.2205,-5.2753,-5.2994,-5.3028,-5.3511,-5.3873,-5.4132,-5.4132,-5.4175,-5.4239,-5.4239,-5.3898,-5.3349,-5.2767,-5.231,-5.1987,-5.1786,-5.1858,-5.1915,-5.1392,-5.1429,-5.1712,-5.1712,-5.1549,-5.1352,-5.1352,-5.0828,-5.02,-4.9835,-4.9531,-4.9341,-4.948,-4.9774,-5.0059,-5.0118,-5.0173,-5.0158,-4.996,-4.9966,-4.9906,-4.9547,-4.9607,-4.9474,-4.8704,-4.8765,-4.8726,0.0,-4.785,-4.7638,-4.7471,-4.7688,-4.7787,-4.7454,-4.7437,-4.7302,-4.6927,-4.6876,-4.6876,-4.6876,-4.6876,-4.6876,-4.6876,-4.6876,-4.6876,-4.6876,-4.6876,-4.6876,-4.6876,-4.6876,-4.6876,-4.6876,-4.6876,-4.767,-4.8994,-4.8994,-4.9839,-5.1183,-5.1183,-5.1183,-5.1183,-5.1183,-5.1183,-5.1183,-5.1183,-5.1183,-5.1183,-5.1836,-5.2075,-5.2234,-5.2129,-5.2332,-5.2689,-5.3207,-5.3833,-5.4197,-5.4007,-5.4567,-5.492,-5.4747,-5.5086,-5.5024,-5.4291,-5.4135,-5.3969,-5.3787,-5.3787,-5.3787,-5.3787,-5.3787,-5.3563,-5.3046,-5.2998,-5.2998,-5.2998,-5.2998,-5.2998,-5.3046,-5.3563,-5.3787,-5.3822,-5.4287,-5.4512,-5.4512,-5.4512,-5.4512,-5.4512,-5.4512,-5.4303,-5.3931,-5.3533,-5.3077,-5.2592,-5.2345,-5.2416,-5.2522,-5.1984,-5.2004,-5.2274,-5.2274,-5.2274,-5.2274,-5.2274,-5.182,-5.1224,-5.0879,-5.0444,-5.0056,-5.0006,-5.0276,-5.0556,-5.0593,-5.0632,-5.0708,-5.068,-5.0602,-5.0442,-5.026,-4.9991,-4.9773,-4.9603,-4.9365,-4.9087,0.0,-4.8433,-4.8226,-4.8226,-4.8177,-4.8016,-4.7737,-4.7704,-4.7471,-4.6945,-4.6876,-4.6876,-4.6876,-4.6876,-4.6876,-4.6876,-4.6876,-4.6876,-4.6876,-4.6876,-4.6876,-4.6876,-4.6876,-4.6876,-4.6892,-4.7168,-4.7929,-4.8994,-4.9269,-5.0082,-5.1183,-5.1183,-5.1183,-5.1183,-5.1183,-5.1183,-5.1183,-5.1183,-5.1183,-5.1183,-5.2965,-5.3546,-5.3849,-5.3143,-5.3599,-5.4055,-5.4055,-5.4472,-5.473,-5.4747,-5.5173,-5.5472,-5.5472,-5.5204,-5.4992,-5.4992,-5.4714,-5.4512,-5.4512,-5.4512,-5.4512,-5.4512,-5.4512,-5.4512,-5.4512,-5.4512,-5.4512,-5.4512,-5.4512,-5.4512,-5.4512,-5.4512,-5.4512,-5.4512,-5.4512,-5.4512,-5.4512,-5.4512,-5.4512,-5.4512,-5.4512,-5.4512,-5.4512,-5.4512,-5.4175,-5.3667,-5.3043,-5.3196,-5.36,-5.3009,-5.2836,-5.2836,-5.2836,-5.2836,-5.2836,-5.2836,-5.2487,-5.2059,-5.2059,-5.2023,-5.175,-5.053,-5.1001,-5.1547,-5.0844,-5.1039,-5.1412,-5.138,-5.1378,-5.1216,-5.0742,-5.0057,-4.975,-5.0309,-4.9821,-4.9328,-4.9328,-4.9294,-4.9229,-4.9229,-4.8339,-4.7737,-4.777,-4.777,-4.7488,-4.6979,-4.6945,-4.6927,-4.6876,-4.6927,-4.6927,-4.6876,-4.6876,-4.6876,-4.6876,-4.6876,-4.6876,-4.6876,-4.6876,-4.6876,-4.6909,-4.767,-4.8382,-4.9026,-4.9791,-5.0519,-5.1183,-5.1183,-5.1183,-5.1183,-5.1183,-5.1183,-5.1183,-5.1183,-5.1183,-5.1183,-5.3724,-5.4367,-5.4848,-5.4652,-5.4777,-5.4902,-5.4902,-5.5289,-5.5532,-5.5302,-5.5201,-5.5144,-5.5144,-5.5053,-5.4992,-5.4992,-5.493,-5.4776,-5.4512,-5.4512,-5.4512,-5.4512,-5.4512,-5.4512,-5.4512,-5.4512,-5.4512,-5.4512,-5.4512,-5.4512,-5.4512,-5.4512,-5.4512,-5.4512,-5.4512,-5.4512,-5.4512,-5.4512,-5.4512,-5.4512,-5.4512,-5.4512,-5.4512,-5.4512,-5.4399,-5.4207,-5.3667,-5.3567,-5.36,-5.3009,-5.3094,-5.345,-5.345,-5.345,-5.345,-5.345,-5.3382,-5.3179,-5.2732,-5.2576,-5.2507,-5.2184,-5.2309,-5.2347,-5.1779,-5.1627,-5.1514,-5.1123,-5.0894,-5.0891,-5.1151,-5.1031,-5.1087,-5.1621,-5.1541,-5.1312,-5.0955,-5.0382,-5.0025,-5.0025,-4.8942,-4.837,-4.8779,-4.8448,-4.8016,-4.7521,-4.7504,-4.7336,-4.6911,-4.7302,-4.732,-4.6911,-4.6876,-4.6876,-4.6876,-4.6876,-4.6876,-4.6876,-4.6876,-4.6876,-4.6909,-4.767,-4.8382,-4.9026,-4.9791,-5.0519,-5.1183,-5.1183,-5.1183,-5.1183,-5.1183,-5.1183,-5.1183,-5.1183,-5.1183,-5.1183,-5.4518,-5.5187,-5.5723,-5.5723,-5.5614,-5.5532,-5.5532,-5.572,-5.5804,-5.5531,-5.5324,-5.5174,-5.5022,-5.4992,-5.493,-5.4776,-5.4776,-5.4683,-5.4512,-5.4512,-5.4512,-5.4512,-5.4512,-5.4512,-5.4512,-5.4512,-5.4512,-5.4512,-5.4669,-5.4714,-5.4714,-5.4869,-5.493,-5.493,-5.4776,-5.4807,-5.493,-5.4776,-5.4714,-5.4731,-5.4575,-5.4512,0.0,-5.4512,-5.4512,-5.448,-5.4143,-5.4045,-5.4013,-5.365,-5.3782,-5.4045,-5.4045,-5.4045,-5.4045,-5.4045,-5.3865,-5.3634,-5.3281,-5.3009,-5.2802,-5.2802,-5.2802,-5.2732,-5.2416,-5.2259,-5.2028,-5.1484,-5.1312,-5.1222,-5.1307,-5.1041,-5.0978,-5.1441,-5.1691,-5.1833,-5.1802,-5.1253,-5.0963,-5.13,-5.0509,-5.0206,-5.0873,-4.9289,-4.8193,-4.8242,-4.8081,-4.782,-4.7439,-4.7704,-4.7572,-4.6911,-4.6876,-4.6876,-4.6876,-4.6876,-4.6876,-4.6876,-4.6876,-4.6876,-4.6925,-4.7977,-4.8621,-4.9042,-5.0115,-5.0811,-5.1183,-5.1183,-5.1183,-5.1183,-5.1183,-5.1183,-5.1183,-5.1183,-5.1183,-5.1183,-5.5366,-5.5919,-5.6401,-5.6401,-5.6162,-5.5947,-5.5918,-5.5861,-5.5746,-5.5531,-5.5502,-5.5413,-5.5144,-5.5113,-5.4992,-5.4652,-5.4637,-5.4589,-5.4512,-5.4512,-5.4512,-5.4512,-5.4512,-5.4512,-5.4512,-5.4512,-5.4512,-5.4512,-5.4776,-5.493,-5.493,-5.5294,-5.5443,-5.5413,-5.5174,-5.5204,-5.5413,-5.5113,-5.4961,-5.49,-5.4637,-5.4512,-5.4512,-5.4512,-5.4512,-5.4512,-5.4512,-5.4512,-5.4512,-5.4512,-5.4512,-5.4512,-5.4512,-5.4512,-5.4512,-5.4512,-5.4175,-5.3799,-5.3799,-5.3399,-5.3009,-5.294,-5.2905,-5.2905,-5.2836,-5.2802,-5.2662,-5.2095,-5.1987,-5.1858,-5.1392,-5.0834,-5.0546,-5.0827,-5.1356,-5.1841,-5.2217,-5.1896,-5.189,-5.258,-5.214,0.0,-5.3052,-5.0322,-4.8716,-4.9325,-4.9077,-4.8763,-4.8426,-4.8491,-4.8084,-4.7073,-4.7056,-4.7008,-4.6876,-4.6876,-4.6876,-4.6876,-4.6876,-4.6941,-4.7087,-4.8414,-4.9042,-4.9204,-5.06,-5.1183,-5.1183,-5.1183,-5.1183,-5.1183,-5.1183,-5.1183,-5.1183,-5.1183,-5.1183,-5.1183,-5.6186,-5.6294,-5.6401,-5.6401,-5.6328,-5.6217,-5.5947,-5.5718,-5.5561,-5.5502,-5.5502,-5.5561,-5.57,-5.5729,-5.5631,-5.5354,-5.5324,-5.5083,-5.4543,-5.4512,-5.4512,-5.4512,-5.4512,-5.4512,-5.4512,-5.4512,-5.4512,-5.4512,-5.4575,-5.4606,-5.4589,-5.493,-5.5083,-5.5113,-5.5324,-5.5294,-5.5083,-5.5022,-5.4838,-5.4575,-5.4543,-5.4512,-5.4512,-5.4512,-5.4512,-5.4512,-5.4512,-5.4512,-5.4512,-5.4512,-5.4512,-5.4512,-5.4512,-5.4512,-5.4512,-5.4512,-5.4448,-5.4353,-5.4353,-5.4271,-5.4093,-5.365,-5.3534,-5.3416,-5.2905,-5.2802,-5.2662,-5.2095,-5.1987,-5.1951,-5.1895,-5.2103,-5.2359,-5.2399,-5.291,-5.316,-5.2758,-5.2469,-5.2372,-5.2501,-5.1762,-5.1654,-5.2706,-5.2052,-5.1653,-5.1773,-5.1743,-5.121,-5.0059,-5.0517,-4.9907,-4.7867,-4.7974,-4.7682,-4.6927,-4.6876,-4.6876,-4.6876,-4.6876,-4.7216,-4.7831,-4.8657,-4.9354,-4.9969,-5.0811,-5.1183,-5.1183,-5.1183,-5.1183,-5.1183,-5.1183,-5.1183,-5.1183,-5.1183,-5.1183,-5.1183,-5.6401,-5.6401,-5.6401,-5.6401,-5.6245,-5.6106,-5.5918,-5.5775,-5.5718,-5.5718,-5.5879,-5.5964,-5.5901,-5.5918,-5.5804,-5.5531,-5.5502,-5.5354,-5.5053,-5.5022,-5.493,-5.4776,-5.4745,-5.4683,-5.4512,-5.4512,-5.4606,-5.4745,-5.493,-5.5096,-5.5229,-5.5572,-5.5735,-5.5735,-5.5718,-5.5425,-5.4992,-5.4992,-5.49,-5.4745,-5.4575,-5.4512,-5.4512,-5.4512,-5.4512,-5.4512,-5.4512,-5.4512,-5.4512,-5.4512,-5.4512,-5.4512,-5.4512,-5.4512,-5.4512,-5.4512,-5.4512,-5.4512,-5.4512,-5.4512,-5.4448,-5.4175,-5.411,-5.3963,-5.3416,-5.3264,-5.3094,-5.2522,-5.2416,-5.2345,-5.2059,-5.1967,-5.2076,-5.2345,-5.2627,-5.2802,-5.2802,-5.2994,-5.3155,-5.3316,-5.32,-5.3445,-5.4273,-5.4267,-5.3696,-5.2448,-5.2602,-5.2033,-5.0376,-5.1129,-5.0654,-4.8563,-4.8689,-4.8562,-4.7993,-4.7993,-4.7993,-4.7993,-4.7993,-4.8188,-4.8524,-4.9256,-4.9775,-5.0147,-5.0876,-5.1183,-5.1183,-5.1183,-5.1183,-5.1183,-5.1183,-5.1183,-5.1183,-5.1183,-5.1183,-5.1183,-5.63,-5.6328,-5.6373,-5.63,-5.6116,-5.6003,-5.6003,-5.6003,-5.5975,-5.5918,-5.6189,-5.63,-5.6032,-5.6003,-5.589,-5.5619,-5.559,-5.5561,-5.5502,-5.5502,-5.5354,-5.5022,-5.4992,-5.4869,-5.4606,-5.4543,-5.4652,-5.4992,-5.5264,-5.5484,-5.5718,-5.6106,-5.63,-5.6273,-5.6032,-5.5572,-5.4992,-5.5083,-5.5022,-5.4869,-5.4745,-5.4724,-5.4736,-5.4799,-5.4903,-5.4994,-5.4994,-5.5009,-5.5104,-5.5104,-5.4834,-5.4512,-5.4512,-5.4512,-5.4512,-5.4512,-5.4512,-5.4512,-5.4512,-5.4512,-5.4512,-5.4512,-5.4512,-5.4367,-5.398,-5.3865,-5.37,-5.3128,-5.2905,-5.2662,-5.2238,-5.1729,-5.1561,-5.2095,-5.2059,-5.2203,-5.2715,-5.3128,-5.35,-5.3943,-5.4394,-5.4909,-5.5642,-5.5815,-5.5038,-5.2939,-5.3427,-5.3025,-5.1243,-5.2047,-5.1662,-4.9728,-4.9763,-4.9643,-4.9319,-4.9086,-4.8994,-4.8994,-4.8994,-4.9058,-4.9236,-4.9839,-5.0196,-5.0374,-5.094,-5.1183,-5.1183,-5.1183,-5.1183,-5.1183,-5.1183,-5.1183,-5.1183,-5.1183,-5.1183,-5.1183,-5.6003,-5.6189,-5.63,-5.6003,-5.6189,-5.6355,-5.6355,-5.6355,-5.6245,-5.5947,-5.6189,-5.6401,-5.6373,-5.6355,-5.6217,-5.589,-5.5861,-5.5746,-5.5531,-5.5502,-5.5354,-5.5022,-5.4992,-5.4992,-5.4961,-5.4669,-5.4652,-5.4992,-5.5022,-5.5053,-5.5113,-5.5689,-5.5947,-5.5947,-5.5901,-5.5572,-5.5022,-5.5324,-5.5113,-5.4606,-5.5174,-5.5453,-5.5544,-5.5845,-5.62,-5.6581,-5.6581,-5.6792,-5.7045,-5.7045,-5.592,-5.4512,-5.4512,-5.4512,-5.4512,-5.4512,-5.4512,-5.4512,-5.4512,-5.4512,-5.4512,-5.4512,-5.4512,-5.448,-5.4448,-5.4448,-5.4271,-5.3733,-5.3162,-5.2785,-5.2732,-5.2274,-5.2095,-5.2662,-5.231,-5.2203,-5.2715,-5.2451,-5.2557,-5.3617,-5.3566,-5.3893,-5.4974,-5.5572,-5.5496,-5.446,-5.5435,-5.5521,-5.424,-5.4734,-5.41,-5.1965,-5.1631,-5.1094,-5.0258,-4.9409,-4.8994,-4.8994,-4.8994,-4.937,-5.0001,-5.0066,-5.0455,-5.1086,-5.1151,-5.1183,-5.1183,-5.1183,-5.1183,-5.1183,-5.1183,-5.1183,-5.1183,-5.1183,-5.1183,-5.1183,-5.6217,-5.63,-5.6373,-5.6217,-5.63,-5.6401,-5.6401,-5.6401,-5.6328,-5.6217,-5.6318,-5.6401,-5.6401,-5.6401,-5.6346,-5.6217,-5.6217,-5.6162,-5.6049,-5.6049,-5.5908,-5.5572,-5.5383,-5.5294,-5.5294,-5.4961,-5.5035,-5.5543,-5.5543,-5.566,-5.585,-5.6106,-5.6088,-5.589,-5.5718,-5.5531,-5.5359,-5.5934,-5.6007,-5.5828,-5.6575,-5.6913,-5.6927,-5.6833,-5.7056,-5.7367,-5.7176,-5.7303,-5.7569,-5.7349,-5.679,-5.616,-5.616,-5.5689,-5.5167,-5.5167,-5.4856,-5.4512,-5.4512,-5.4512,-5.4512,-5.4512,-5.4512,-5.4512,-5.4512,-5.4512,-5.4448,-5.4207,-5.3733,-5.3349,-5.3349,-5.2871,-5.2557,-5.2767,-5.2345,-5.2203,-5.2715,-5.2627,-5.2767,-5.36,-5.3881,-5.4284,-5.493,-5.5396,-5.5584,-5.5385,-5.6014,-5.5733,-5.4178,-5.4451,-5.4187,-5.3203,-5.2453,-5.2096,-5.2135,-5.1239,-5.0808,-5.0788,-5.0477,-5.0471,-5.0746,-5.0746,-5.0908,-5.1183,-5.1183,-5.1183,-5.1183,-5.1183,-5.1183,-5.1183,-5.1183,-5.1183,-5.1183,-5.1183,-5.1183,-5.1248,-5.6273,-5.6328,-5.6373,-5.6273,-5.6328,-5.6401,-5.6401,-5.6597,-5.674,-5.674,-5.6936,-5.69,-5.6436,-5.6597,-5.674,-5.674,-5.6954,-5.7079,-5.7079,-5.6865,-5.6601,-5.6255,-5.5841,-5.5619,-5.5619,-5.5324,-5.5396,-5.5918,-5.5918,-5.6032,-5.6245,-5.6605,-5.6555,-5.6244,-5.63,-5.6276,-5.6222,-5.6839,-5.7037,-5.7012,-5.7756,-5.8078,-5.8105,-5.7964,-5.8153,-5.8457,-5.8206,-5.8363,-5.858,-5.8363,-5.8251,-5.815,-5.7379,-5.6586,-5.596,-5.596,-5.5598,-5.5184,-5.5184,-5.5075,-5.498,-5.498,-5.4824,-5.4669,-5.4669,-5.4575,-5.4512,-5.4512,-5.4207,-5.3948,-5.3948,-5.345,-5.3128,-5.3281,-5.2697,-5.247,-5.3213,-5.3009,-5.3111,-5.3979,-5.4237,-5.454,-5.4961,-5.5294,-5.559,-5.5775,-5.606,-5.5694,-5.4371,-5.4513,-5.4499,-5.4166,-5.3298,-5.3043,-5.3548,-5.2664,-5.2238,-5.2238,-5.1692,-5.1429,-5.1413,-5.128,-5.1183,-5.1183,-5.1183,-5.1183,-5.1183,-5.1183,-5.1183,-5.1183,-5.1183,-5.1183,-5.1183,-5.1183,-5.1183,-5.128,-5.5975,-5.6172,-5.63,-5.5975,-5.6189,-5.6401,-5.6401,-5.7061,-5.7606,-5.7606,-5.8221,-5.8085,-5.6561,-5.7096,-5.7606,-5.7606,-5.8256,-5.8674,-5.8674,-5.7989,-5.7448,-5.7098,-5.6325,-5.589,-5.589,-5.5631,-5.5648,-5.5918,-5.5918,-5.5918,-5.5936,-5.7046,-5.742,-5.7104,-5.7913,-5.8088,-5.7798,-5.8136,-5.8088,-5.7846,-5.8461,-5.8787,-5.8909,-5.9266,-5.9651,-6.0072,-6.0072,-6.0294,-6.0561,-6.0561,-6.0561,-6.0123,-5.7582,-5.6788,-5.6788,-5.6788,-5.6788,-5.6771,-5.6771,-5.6443,-5.6088,-5.6088,-5.5531,-5.4992,-5.4992,-5.4745,-5.4512,-5.4512,-5.4512,-5.448,-5.448,-5.4045,-5.3865,-5.4399,-5.3533,-5.3179,-5.4335,-5.35,-5.3332,-5.4821,-5.4471,-5.4328,-5.4944,-5.5294,-5.5502,-5.5502,-5.5746,-5.5775,-5.5502,-5.5746,-5.5584,-5.5005,-5.4408,-5.407,-5.4087,-5.3213,-5.2802,-5.2802,-5.2238,-5.1987,-5.1951,-5.145,-5.1183,-5.1183,-5.1183,-5.1183,-5.1183,-5.1183,-5.1183,-5.1183,-5.1183,-5.1183,-5.1183,-5.1183,-5.1183,-5.128,-5.6273,-5.6773,-5.7176,-5.7074,-5.7576,-5.796,-5.796,-5.8203,-5.8363,-5.8363,-5.8549,-5.8495,-5.8014,-5.8221,-5.8363,-5.8363,-5.8549,-5.8692,-5.8692,-5.846,-5.8289,-5.8203,-5.777,-5.7628,-5.7801,-5.7558,-5.7541,-5.7801,-5.7801,-5.7801,-5.7801,-5.7981,-5.8134,-5.8192,-5.8266,-5.8344,-5.8467,-5.9117,-5.9319,-5.9313,-6.0042,-6.0368,-6.0402,-6.025,-6.044,-6.0745,-6.0516,-6.0671,-6.0914,-6.0671,-6.0578,-6.0428,-5.9383,-5.8505,-5.7875,-5.7875,-5.7543,-5.7176,-5.743,-5.7363,-5.7263,-5.7263,-5.7088,-5.6773,-5.6217,-5.5449,-5.4838,-5.4838,-5.4652,-5.4575,-5.4807,-5.4697,-5.4634,-5.4807,-5.4203,-5.3895,-5.4431,-5.4042,-5.4008,-5.4882,-5.5018,-5.5139,-5.5324,-5.5601,-5.5775,-5.5775,-5.606,-5.6088,-5.5775,-5.5296,-5.5207,-5.5601,-5.4641,-5.4422,-5.5061,-5.4119,-5.3582,-5.3416,-5.2451,-5.1822,-5.145,-5.128,-5.1183,-5.1183,-5.1183,-5.1183,-5.1183,-5.1183,-5.1183,-5.1183,-5.1183,-5.1183,-5.1183,-5.1183,-5.1475,-5.1977,-5.7221,-5.7667,-5.8006,-5.8006,-5.8399,-5.8692,-5.8692,-5.8959,-5.9137,-5.9137,-5.9405,-5.9583,-5.9583,-5.9583,-5.9487,-5.9173,-5.9423,-5.9583,-5.9583,-5.9316,-5.9137,-5.9137,-5.8708,-5.8519,-5.8692,-5.8537,-5.8519,-5.8692,-5.8692,-5.8692,-5.8692,-5.8821,-5.8993,-5.9155,-5.9283,-5.9437,-5.9619,-6.0148,-6.0362,-6.0397,-6.0897,-6.1093,-6.1064,-6.0854,-6.0914,-6.1064,-6.0854,-6.0914,-6.1064,-6.0854,-6.0793,-6.0732,-6.0392,-5.9819,-5.9207,-5.9097,-5.8715,-5.838,-5.8601,-5.8545,-5.8408,-5.8408,-5.8197,-5.7814,-5.717,-5.6514,-5.5942,-5.554,-5.5348,-5.523,-5.5044,-5.5113,-5.5204,-5.5204,-5.4878,-5.4645,-5.4683,-5.4537,-5.4582,-5.4961,-5.5294,-5.5502,-5.5502,-5.5746,-5.5918,-5.5918,-5.6088,-5.6116,-5.5918,-5.5385,-5.5296,-5.5746,-5.5013,-5.4892,-5.5502,-5.4922,-5.4488,-5.419,-5.3111,-5.2255,-5.1487,-5.1487,-5.1392,-5.1183,-5.1183,-5.1183,-5.1183,-5.1183,-5.1183,-5.1183,-5.1183,-5.1183,-5.1216,-5.1475,-5.1831,-5.2349,-5.8567,-5.8745,-5.8781,-5.8781,-5.8816,-5.887,-5.887,-5.9523,-5.9987,-5.9987,-6.0647,-6.1093,-6.1093,-6.1093,-6.0808,-6.0058,-6.0665,-6.1093,-6.1093,-6.0415,-5.9987,-5.9987,-5.9262,-5.887,-5.887,-5.887,-5.887,-5.887,-5.887,-5.887,-5.887,-5.9619,-5.9987,-6.0023,-6.0772,-6.1093,-6.1093,-6.1093,-6.1093,-6.1093,-6.1093,-6.1093,-6.1093,-6.1093,-6.1093,-6.1093,-6.1093,-6.1093,-6.1093,-6.1093,-6.1093,-6.1034,-6.0732,-6.064,-6.0578,-6.0216,-6.0121,-6.0121,-6.0153,-5.9827,-5.9524,-5.9524,-5.897,-5.8314,-5.8026,-5.7899,-5.7561,-5.6553,-5.6519,-5.6365,-5.5392,-5.5452,-5.566,-5.5689,-5.5654,-5.5483,-5.5153,-5.507,-5.5053,-5.5053,-5.5354,-5.5561,-5.5561,-5.5775,-5.5947,-5.5947,-5.5947,-5.5947,-5.5947,-5.5947,-5.5804,-5.5531,-5.5531,-5.5531,-5.5531,-5.5531,-5.5336,-5.4944,-5.4126,-5.3128,-5.2059,-5.2023,-5.1712,-5.1221,-5.1221,-5.1183,-5.1183,-5.1183,-5.1183,-5.1183,-5.1183,-5.1216,-5.1329,-5.196,-5.2252,-5.2543,-5.8656,-5.9191,-5.963,-5.963,-6.013,-6.054,-6.054,-6.0701,-6.0826,-6.0826,-6.0986,-6.1093,-6.1093,-6.1093,-6.1022,-6.0826,-6.0986,-6.1093,-6.1093,-6.0915,-6.0826,-6.0826,-6.0629,-6.054,-6.054,-6.054,-6.054,-6.054,-6.054,-6.054,-6.054,-6.0736,-6.0826,-6.0826,-6.1022,-6.1093,-6.1093,-6.1093,-6.1093,-6.1093,-6.1093,-6.1093,-6.1093,-6.1093,-6.1093,-6.1093,-6.1093,-6.1093,-6.1093,-6.1093,-6.1093,-6.1093,-6.1004,-6.0974,-6.0914,-6.0578,-6.0485,-6.0547,-6.0793,-6.0772,-6.0689,-6.0689,-6.0084,-5.9514,-5.9426,-5.8769,-5.8113,-5.7846,-5.746,-5.7205,-5.7474,-5.7349,-5.7336,-5.7606,-5.7123,-5.66,-5.6272,-5.5912,-5.5689,-5.5689,-5.5975,-5.6189,-5.6189,-5.6245,-5.6273,-5.6273,-5.6273,-5.6273,-5.6273,-5.6273,-5.6134,-5.5804,-5.5804,-5.5804,-5.5804,-5.5804,-5.5432,-5.4686,-5.4232,-5.3499,-5.2594,-5.2186,-5.1802,-5.1424,-5.1258,-5.1183,-5.1183,-5.1183,-5.1183,-5.1183,-5.1183,-5.1491,-5.1977,-5.2139,-5.2916,-5.3936,-5.9708,-6.0165,-6.0451,-6.0451,-6.0808,-6.1093,-6.1093,-6.1093,-6.1093,-6.1093,-6.1093,-6.1093,-6.1093,-6.1093,-6.1093,-6.1093,-6.1093,-6.1093,-6.1093,-6.1093,-6.1093,-6.1093,-6.1093,-6.1093,-6.1093,-6.1093,-6.1093,-6.1093,-6.1093,-6.1093,-6.1093,-6.1093,-6.1093,-6.1093,-6.1093,-6.1093,-6.1093,-6.1093,-6.1093,-6.1093,-6.1093,-6.1093,-6.1093,-6.1093,-6.1093,-6.1093,-6.1093,-6.1093,-6.1093,-6.1093,-6.1093,-6.1093,-6.1093,-6.1093,-6.1064,-6.0884,-6.0823,-6.0854,-6.1034,-6.1093,-6.1093,-6.1093,-6.0772,-6.0451,-6.0451,-6.0012,-5.9438,-5.8899,-5.8648,-5.8451,-5.8326,-5.8273,-5.8255,-5.8461,-5.8105,-5.7734,-5.7411,-5.7158,-5.6922,-5.6776,-5.7038,-5.7114,-5.6758,-5.6853,-5.6793,-5.6418,-5.6401,-5.6401,-5.6401,-5.6401,-5.6318,-5.6116,-5.6116,-5.6116,-5.6116,-5.5975,-5.5653,-5.5189,-5.472,-5.4136,-5.3382,-5.2768,-5.2219,-5.1709,-5.1445,-5.1258,-5.1183,-5.1183,-5.1183,-5.1216,-5.1523,-5.1879,-5.2284,-5.2964,-5.3709,-5.4438,-6.0968,-6.1093,-6.1093,-6.1093,-6.1093,-6.1093,-6.1093,-6.1093,-6.1093,-6.1093,-6.1093,-6.1093,-6.1093,-6.1093,-6.1093,-6.1093,-6.1093,-6.1093,-6.1093,-6.1093,-6.1093,-6.1093,-6.1093,-6.1093,-6.1093,-6.1093,-6.1093,-6.1093,-6.1093,-6.1093,-6.1093,-6.1093,-6.1093,-6.1093,-6.1093,-6.1093,-6.1093,-6.1093,-6.1093,-6.1093,-6.1093,-6.1093,-6.1093,-6.1093,-6.1093,-6.1093,-6.1093,-6.1093,-6.1093,-6.1093,-6.1093,-6.1093,-6.1093,-6.1093,-6.1093,-6.1093,-6.1093,-6.1093,-6.1093,-6.1093,-6.1093,-6.1093,-6.1093,-6.1093,-6.1093,-6.1093,-6.0838,-5.9857,-5.9852,-5.9734,-5.8881,-5.8863,-5.8991,-5.9048,-5.8959,-5.8784,-5.855,-5.8432,-5.8255,-5.7985,-5.8196,-5.8095,-5.7422,-5.7598,-5.7471,-5.6793,-5.6633,-5.6579,-5.6579,-5.6472,-5.6401,-5.6401,-5.6401,-5.6401,-5.6401,-5.6116,-5.5975,-5.5975,-5.5366,-5.4786,-5.4261,-5.3582,-5.2889,-5.2222,-5.1818,-5.152,-5.1317,-5.1221,-5.1248,-5.1394,-5.1977,-5.2333,-5.2673,-5.3936,-5.447,-5.4632,-6.1075,-6.1093,-6.1093,-6.1093,-6.1093,-6.1093,-6.1093,-6.1093,-6.1093,-6.1093,-6.1093,-6.1093,-6.1093,-6.1093,-6.1093,-6.1093,-6.1093,-6.1093,-6.1093,-6.1093,-6.1093,-6.1093,-6.1093,-6.1093,-6.1093,-6.1093,-6.1093,-6.1093,-6.1093,-6.1093,-6.1093,-6.1093,-6.1093,-6.1093,-6.1093,-6.1093,-6.1093,-6.1093,-6.1093,-6.1093,-6.1093,-6.1093,-6.1093,-6.1093,-6.1093,-6.1093,-6.1093,-6.1093,-6.1093,-6.1093,-6.1093,-6.1093,-6.1093,-6.1093,-6.1093,-6.1093,-6.1093,-6.1093,-6.1093,-6.1093,-6.1093,-6.1093,-6.1093,-6.1093,-6.1093,-6.1093,-6.1058,-6.0873,-6.0628,-6.0519,-6.0636,-6.0468,-6.0408,-6.0677,-6.0165,-5.9708,-5.9679,-5.9062,-5.8606,-5.8577,-5.8606,-5.8599,-5.8456,-5.8485,-5.8478,-5.8335,-5.7774,-5.7428,-5.7428,-5.6757,-5.6401,-5.6401,-5.6401,-5.6401,-5.6401,-5.6328,-5.63,-5.6318,-5.5706,-5.5348,-5.5177,-5.4342,-5.373,-5.3315,-5.2664,-5.215,-5.1858,-5.1392,-5.1523,-5.2058,-5.2155,-5.2964,-5.4098,-5.4325,-5.4762,-5.528,-6.1093,-6.1093,-6.1093,-6.1093,-6.1093,-6.1093,-6.1093,-6.1093,-6.1093,-6.1093,-6.1093,-6.1093,-6.1093,-6.1093,-6.1093,-6.1093,-6.1093,-6.1093,-6.1093,-6.1093,-6.1093,-6.1093,-6.1093,-6.1093,-6.1093,-6.1093,-6.1093,-6.1093,-6.1093,-6.1093,-6.1093,-6.1093,-6.1093,-6.1093,-6.1093,-6.1093,-6.1093,-6.1093,-6.1093,-6.1093,-6.1093,-6.1093,-6.1093,-6.1093,-6.1093,-6.1093,-6.1093,-6.1093,-6.1093,-6.1093,-6.1093,-6.1093,-6.1093,-6.1093,-6.1093,-6.1093,-6.1093,-6.1093,-6.1093,-6.1093,-6.1093,-6.1093,-6.1093,-6.1093,-6.1093,-6.1093,-6.1093,-6.1093,-6.0974,-6.0914,-6.1064,-6.0974,-6.0914,-6.1064,-6.079,-6.0558,-6.0558,-6.0237,-6.0005,-6.0005,-6.0005,-5.9826,-5.9387,-5.9334,-5.9155,-5.8727,-5.8399,-5.8203,-5.8203,-5.7453,-5.7043,-5.7043,-5.6615,-5.6401,-5.6401,-5.6401,-5.6401,-5.6383,-5.5918,-5.5718,-5.5653,-5.4887,-5.4279,-5.3844,-5.3315,-5.2682,-5.202,-5.2171,-5.2215,-5.2268,-5.3078,-5.3806,-5.4438,-5.481,-5.5134,-5.5409,-6.1093,-6.1093,-6.1093,-6.1093,-6.1093,-6.1093,-6.1093,-6.1093,-6.1093,-6.1093,-6.1093,-6.1093,-6.1093,-6.1093,-6.1093,-6.1093,-6.1093,-6.1093,-6.1093,-6.1093,-6.1093,-6.1093,-6.1093,-6.1093,-6.1093,-6.1093,-6.1093,-6.1093,-6.1093,-6.1093,-6.1093,-6.1093,-6.1093,-6.1093,-6.1093,-6.1093,-6.1093,-6.1093,-6.1093,-6.1093,-6.1093,-6.1093,-6.1093,-6.1093,-6.1093,-6.1093,-6.1093,-6.1093,-6.1093,-6.1093,-6.1093,-6.1093,-6.1093,-6.1093,-6.1093,-6.1093,-6.1093,-6.1093,-6.1093,-6.1093,-6.1093,-6.1093,-6.1093,-6.1093,-6.1093,-6.1093,-6.1093,-6.1093,-6.1093,-6.1093,-6.1093,-6.1093,-6.1093,-6.1093,-6.1093,-6.1093,-6.1093,-6.1093,-6.1093,-6.1093,-6.1093,-6.0861,-6.0255,-6.0183,-5.9933,-5.928,-5.9066,-5.8977,-5.8977,-5.8256,-5.7774,-5.7624,-5.6811,-5.6401,-5.6401,-5.6401,-5.6401,-5.6401,-5.606,-5.5947,-5.6003,-5.5402,-5.4905,-5.4499,-5.4038,-5.3416,-5.2788,-5.3023,-5.3023,-5.3034,-5.3992,-5.4503,-5.4697,-5.5231,-5.5409,-5.5409,-6.1093,-6.1093,-6.1093,-6.1093,-6.1093,-6.1093,-6.1093,-6.1093,-6.1093,-6.1093,-6.1093,-6.1093,-6.1093,-6.1093,-6.1093,-6.1093,-6.1093,-6.1093,-6.1093,-6.1093,-6.1093,-6.1093,-6.1093,-6.1093,-6.1093,-6.1093,-6.1093,-6.1093,-6.1093,-6.1093,-6.1093,-6.1093,-6.1093,-6.1093,-6.1093,-6.1093,-6.1093,-6.1093,-6.1093,-6.1093,-6.1093,-6.1093,-6.1093,-6.1093,-6.1093,-6.1093,-6.1093,-6.1093,-6.1093,-6.1093,-6.1093,-6.1093,-6.1093,-6.1093,-6.1093,-6.1093,-6.1093,-6.1093,-6.1093,-6.1093,-6.1093,-6.1093,-6.1093,-6.1093,-6.1093,-6.1093,-6.1093,-6.1093,-6.1093,-6.1093,-6.1093,-6.1093,-6.1093,-6.1093,-6.1093,-6.1093,-6.1093,-6.1093,-6.1093,-6.1093,-6.1093,-6.1075,-6.1022,-6.1004,-6.0986,-6.0933,-6.0237,-5.9826,-5.9826,-5.9048,-5.8328,-5.7624,-5.6811,-5.6401,-5.6401,-5.6401,-5.6401,-5.6401,-5.606,-5.606,-5.6328,-5.6003,-5.5786,-5.5729,-5.49,-5.4738,-5.497,-5.364,-5.3877,-5.5018,-5.4579,-5.4794,-5.5345,-5.5393,-5.5409,-5.5409,-6.1093,-6.1093,-6.1093,-6.1093,-6.1093,-6.1093,-6.1093,-6.1093,-6.1093,-6.1093,-6.1093,-6.1093,-6.1093,-6.1093,-6.1093,-6.1093,-6.1093,-6.1211,-6.1466,-6.1223,-6.1093,-6.1093,-6.1093,-6.1093,-6.1093,-6.1093,-6.1093,-6.1093,-6.1093,-6.1093,-6.1093,-6.1093,-6.1093,-6.1093,-6.1093,-6.1093,-6.1093,-6.1093,-6.1093,-6.1093,-6.1093,-6.1093,-6.1093,-6.1093,-6.1093,-6.1093,-6.1093,-6.1093,-6.1093,-6.1093,-6.1093,-6.1093,-6.1093,-6.1093,-6.1093,-6.1093,-6.1093,-6.1093,-6.1093,-6.1093,-6.1093,-6.1093,-6.1093,-6.1093,-6.1093,-6.1093,-6.1093,-6.1093,-6.1093,-6.1093,-6.1093,-6.1093,-6.1093,-6.1093,-6.1093,-6.1093,-6.1093,-6.1093,-6.1093,-6.1093,-6.1093,-6.1093,-6.1093,-6.1093,-6.1093,-6.1093,-6.0826,-6.0647,-6.0647,-5.9898,-5.9095,-5.831,-5.8006,-5.7382,-5.6401,-5.6401,-5.6401,-5.6401,-5.6273,-5.6273,-5.6401,-5.6273,-5.6106,-5.5908,-5.5852,-5.5619,-5.5289,-5.5056,-5.5111,-5.5292,-5.5084,-5.5183,-5.5409,-5.5409,-5.5409,-5.5409,-6.1093,-6.1093,-6.1093,-6.1093,-6.1093,-6.1093,-6.1093,-6.1093,-6.1093,-6.1093,-6.1093,-6.1093,-6.1093,-6.1193,-6.1281,-6.1281,-6.1408,-6.1618,-6.1887,-6.1505,-6.1223,-6.1111,-6.1093,-6.1093,-6.1093,-6.1093,-6.1093,-6.1093,-6.1093,-6.1093,-6.1093,-6.1093,-6.1093,-6.1093,-6.1093,-6.1093,-6.1093,-6.1093,-6.1093,-6.1093,-6.1093,-6.1093,-6.1093,-6.1093,-6.1093,-6.1093,-6.1093,-6.1093,-6.1093,-6.1093,-6.1093,-6.1093,-6.1093,-6.1093,-6.1093,-6.1093,-6.1093,-6.1093,-6.1093,-6.1093,-6.1093,-6.1093,-6.1093,-6.1093,-6.1093,-6.1093,-6.1093,-6.1093,-6.1093,-6.1093,-6.1093,-6.1093,-6.1093,-6.1093,-6.1093,-6.1093,-6.1093,-6.1093,-6.1093,-6.1093,-6.1093,-6.1093,-6.1093,-6.1093,-6.1093,-6.1093,-6.1093,-6.1093,-6.1093,-6.0576,-5.9916,-5.9084,-5.9066,-5.847,-5.715,-5.6882,-5.665,-5.6401,-5.6401,-5.6401,-5.6401,-5.665,-5.6591,-5.6297,-5.6751,-5.6718,-5.6291,-5.6362,-5.6211,-5.5875,-5.5761,-5.5572,-5.5409,-5.5409,-5.5409,-5.5409,-6.1093,-6.1093,-6.1093,-6.1093,-6.1093,-6.1093,-6.1093,-6.1093,-6.1093,-6.1093,-6.1093,-6.1093,-6.1093,-6.1466,-6.1684,-6.1712,-6.2122,-6.2386,-6.2305,-6.1942,-6.1533,-6.1123,-6.1093,-6.1093,-6.1093,-6.1093,-6.1093,-6.1093,-6.1093,-6.1093,-6.1093,-6.1093,-6.1093,-6.1093,-6.1093,-6.1093,-6.1093,-6.1093,-6.1093,-6.1093,-6.1093,-6.1093,-6.1093,-6.1093,-6.1093,-6.1093,-6.1093,-6.1093,-6.1093,-6.1093,-6.1093,-6.1093,-6.1093,-6.1093,-6.1093,-6.1093,-6.1093,-6.1093,-6.1093,-6.1093,-6.1093,-6.1093,-6.1093,-6.1093,-6.1093,-6.1093,-6.1093,-6.1093,-6.1093,-6.1093,-6.1093,-6.1093,-6.1093,-6.1093,-6.1093,-6.1093,-6.1093,-6.1093,-6.1093,-6.1093,-6.1093,-6.1093,-6.1093,-6.1093,-6.1093,-6.1093,-6.1093,-6.1093,-6.1093,-6.1093,-6.0736,-5.9933,-5.9916,-5.9512,-5.8709,-5.7971,-5.7186,-5.6401,-5.6401,-5.6401,-5.6436,-5.7221,-5.7409,-5.7146,-5.7595,-5.8059,-5.8337,-5.7381,-5.7099,-5.7147,-5.6536,-5.5941,-5.5409,-5.5409,-5.5409,-5.5409,-6.1093,-6.1093,-6.1093,-6.1093,-6.1093,-6.1093,-6.1093,-6.1093,-6.1093,-6.1093,-6.1093,-6.1193,-6.1476,-6.1646,-6.1823,-6.2167,-6.2326,-6.2404,-6.2386,-6.2255,-6.2005,-6.1533,-6.1252,-6.1093,-6.1093,-6.1093,-6.1093,-6.1093,-6.1093,-6.1093,-6.1093,-6.1093,-6.1093,-6.1093,-6.1093,-6.1093,-6.1093,-6.1093,-6.1093,-6.1093,-6.1093,-6.1093,-6.1093,-6.1093,-6.1093,-6.1093,-6.1093,-6.1093,-6.1093,-6.1093,-6.1093,-6.1093,-6.1093,-6.1093,-6.1093,-6.1093,-6.1093,-6.1093,-6.1093,-6.1093,-6.1093,-6.1093,-6.1093,-6.1093,-6.1093,-6.1093,-6.1093,-6.1093,-6.1093,-6.1093,-6.1093,-6.1093,-6.1093,-6.1093,-6.1093,-6.1093,-6.1093,-6.1093,-6.1093,-6.1093,-6.1093,-6.1093,-6.1093,-6.1093,-6.1093,-6.1093,-6.1093,-6.1093,-6.1093,-6.1093,-6.0986,-6.0754,-6.0736,-6.0362,-5.9559,-5.8238,-5.7499,-5.7221,-5.6668,-5.6686,-5.7267,-5.7499,-5.7825,-5.8234,-5.8461,-5.8626,-5.8712,-5.8015,-5.7808,-5.7741,-5.6691,-5.6202,-5.5981,-5.5572,-5.5409,-5.5409,-6.1093,-6.1093,-6.1093,-6.1093,-6.1093,-6.1152,-6.1292,-6.1339,-6.1339,-6.1339,-6.1494,-6.1636,-6.1684,-6.2014,-6.2334,-6.261,-6.2787,-6.2861,-6.2861,-6.2712,-6.2456,-6.1987,-6.1579,-6.1252,-6.1093,-6.1093,-6.1093,-6.1093,-6.1093,-6.1093,-6.1093,-6.1093,-6.1093,-6.1093,-6.1093,-6.1093,-6.1093,-6.1093,-6.1093,-6.1093,-6.1093,-6.1093,-6.1093,-6.1093,-6.1093,-6.1093,-6.1093,-6.1093,-6.1093,-6.1093,-6.1093,-6.1093,-6.1093,-6.1093,-6.1093,-6.1093,-6.1093,-6.1093,-6.1093,-6.1093,-6.1093,-6.1093,-6.1093,-6.1093,-6.1093,-6.1093,-6.1093,-6.1093,-6.1093,-6.1093,-6.1093,-6.1093,-6.1093,-6.1093,-6.1093,-6.1093,-6.1093,-6.1093,-6.1093,-6.1093,-6.1093,-6.1093,-6.1093,-6.1093,-6.1093,-6.1093,-6.1093,-6.1093,-6.1093,-6.1093,-6.1093,-6.1093,-6.1093,-6.0861,-6.038,-5.9131,-5.8185,-5.7606,-5.74,-5.7418,-5.7624,-5.8221,-5.8699,-5.8987,-5.9395,-5.9419,-5.9167,-5.8822,-5.844,-5.7995,-5.7017,-5.6498,-5.6241,-5.5637,-5.5409,-5.5409,-6.1093,-6.1093,-6.1093,-6.1093,-6.1093,-6.1223,-6.1628,-6.1684,-6.1712,-6.1768,-6.2122,-6.2247,-6.1851,-6.2515,-6.3026,-6.3051,-6.3377,-6.3602,-6.3602,-6.3218,-6.2855,-6.2456,-6.196,-6.1533,-6.1152,-6.1123,-6.1093,-6.1093,-6.1093,-6.1093,-6.1093,-6.1093,-6.1093,-6.1093,-6.1093,-6.1093,-6.1093,-6.1093,-6.1093,-6.1093,-6.1093,-6.1093,-6.1093,-6.1093,-6.1093,-6.1093,-6.1093,-6.1093,-6.1093,-6.1093,-6.1093,-6.1093,-6.1093,-6.1093,-6.1093,-6.1093,-6.1093,-6.1093,-6.1093,-6.1093,-6.1093,-6.1093,-6.1093,-6.1093,-6.1093,-6.1093,-6.1093,-6.1093,-6.1093,-6.1093,-6.1093,-6.1093,-6.1093,-6.1093,-6.1093,-6.1093,-6.1093,-6.1093,-6.1093,-6.1093,-6.1093,-6.1093,-6.1093,-6.1093,-6.1093,-6.1093,-6.1093,-6.1093,-6.1093,-6.1093,-6.1093,-6.1093,-6.1093,-6.1093,-6.1093,-6.038,-5.9273,-5.782,-5.8417,-5.8399,-5.7828,-5.9255,-5.9758,-5.9577,-6.0291,-6.0248,-5.9668,-5.9635,-5.9029,-5.8067,-5.7483,-5.6844,-5.6241,-5.5653,-5.5409,-5.5409,-6.1093,-6.1093,-6.1093,-6.1093,-6.1093,-6.1223,-6.1628,-6.1684,-6.1823,-6.2194,-6.2326,-6.2482,-6.2693,-6.2886,-6.3123,-6.3424,-6.3557,-6.3602,-6.3602,-6.3218,-6.2959,-6.2861,-6.2122,-6.1656,-6.1561,-6.1252,-6.1093,-6.1093,-6.1093,-6.1093,-6.1093,-6.1093,-6.1093,-6.1093,-6.1093,-6.1093,-6.1093,-6.1093,-6.1093,-6.1093,-6.1093,-6.1093,-6.1093,-6.1093,-6.1093,-6.1093,-6.1093,-6.1093,-6.1093,-6.1093,-6.1093,-6.1093,-6.1093,-6.1093,-6.1093,-6.1093,-6.1093,-6.1093,-6.1093,-6.1093,-6.1093,-6.1093,-6.1093,-6.1093,-6.1093,-6.1093,-6.1093,-6.1093,-6.1093,-6.1093,-6.1093,-6.1093,-6.1093,-6.1093,-6.1093,-6.1093,-6.1093,-6.1093,-6.1093,-6.1093,-6.1093,-6.1093,-6.1093,-6.1093,-6.1093,-6.1093,-6.1093,-6.1093,-6.1093,-6.1093,-6.1093,-6.1093,-6.1093,-6.1093,-6.1093,-6.0933,-6.0362,-5.9398,-5.8906,-5.8941,-5.9416,-5.9755,-6.0207,-6.0725,-6.063,-6.0516,-6.0343,-5.9799,-5.9199,-5.8493,-5.7811,-5.703,-5.6241,-5.587,-5.5588,-5.5409,-6.2128,-6.2199,-6.2199,-6.2199,-6.2391,-6.2666,-6.3083,-6.3312,-6.357,-6.3797,-6.4037,-6.4162,-6.4144,-6.3964,-6.3803,-6.3616,-6.3602,-6.3602,-6.3602,-6.34,-6.3194,-6.3002,-6.2386,-6.1933,-6.1712,-6.131,-6.1093,-6.1093,-6.1093,-6.1093,-6.1093,-6.1093,-6.1093,-6.1093,-6.1093,-6.1093,-6.1093,-6.1093,-6.1093,-6.1093,-6.1093,-6.1093,-6.1093,-6.1093,-6.1093,-6.1093,-6.1093,-6.1093,-6.1093,-6.1093,-6.1093,-6.1093,-6.1093,-6.1093,-6.1093,-6.1093,-6.1093,-6.1093,-6.1093,-6.1093,-6.1093,-6.1093,-6.1093,-6.1093,-6.1093,-6.1093,-6.1093,-6.1093,-6.1093,-6.1093,-6.1093,-6.1093,-6.1093,-6.1093,-6.1093,-6.1093,-6.1093,-6.1093,-6.1093,-6.1093,-6.1093,-6.1093,-6.1093,-6.1093,-6.1093,-6.1093,-6.1093,-6.1093,-6.1093,-6.1093,-6.1093,-6.1093,-6.1093,-6.1093,-6.1093,-6.1093,-6.0897,-6.0469,-6.0058,-5.988,-5.9916,-6.0308,-6.0701,-6.1093,-6.0914,-6.0671,-6.036,-6.0171,-5.9518,-5.8545,-5.8029,-5.7368,-5.6586,-5.6006,-5.5645,-5.5409,-6.327,-6.3395,-6.3426,-6.35,-6.386,-6.4277,-6.4758,-6.5154,-6.5428,-6.5496,-6.5864,-6.5954,-6.5564,-6.5216,-6.4675,-6.3899,-6.3825,-6.3769,-6.362,-6.3602,-6.3465,-6.3123,-6.2712,-6.2281,-6.1805,-6.1494,-6.1252,-6.1093,-6.1093,-6.1093,-6.1093,-6.1093,-6.1093,-6.1093,-6.1093,-6.1093,-6.1093,-6.1093,-6.1093,-6.1093,-6.1093,-6.1093,-6.1093,-6.1093,-6.1093,-6.1093,-6.1093,-6.1093,-6.1093,-6.1093,-6.1093,-6.1093,-6.1093,-6.1093,-6.1093,-6.1093,-6.1093,-6.1093,-6.1093,-6.1093,-6.1093,-6.1093,-6.1093,-6.1093,-6.1093,-6.1093,-6.1093,-6.1093,-6.1093,-6.1093,-6.1093,-6.1093,-6.1093,-6.1093,-6.1093,-6.1093,-6.1093,-6.1093,-6.1093,-6.1093,-6.1093,-6.1093,-6.1093,-6.1093,-6.1093,-6.1093,-6.1093,-6.1093,-6.1093,-6.1093,-6.1093,-6.1093,-6.1093,-6.1093,-6.1093,-6.1093,-6.1093,-6.1093,-6.1093,-6.0754,-6.013,-6.0808,-6.1093,-6.1093,-6.1093,-6.0775,-6.028,-6.0516,-5.9781,-5.8491,-5.8244,-5.7611,-5.6757,-5.6046,-5.5645,-5.5409,-6.3377,-6.3395,-6.353,-6.393,-6.4047,-6.4372,-6.518,-6.5352,-6.5564,-6.5954,-6.6044,-6.6086,-6.602,-6.5975,-6.5589,-6.4693,-6.4638,-6.4322,-6.3635,-6.3602,-6.3579,-6.3511,-6.3123,-6.2693,-6.2227,-6.221,-6.1841,-6.1093,-6.1093,-6.1093,-6.1093,-6.1093,-6.1093,-6.1093,-6.1093,-6.1093,-6.1093,-6.1093,-6.1093,-6.1093,-6.1093,-6.1093,-6.1093,-6.1093,-6.1093,-6.1093,-6.1093,-6.1093,-6.1093,-6.1093,-6.1093,-6.1093,-6.1093,-6.1093,-6.1093,-6.1093,-6.1093,-6.1093,-6.1093,-6.1093,-6.1093,-6.1093,-6.1093,-6.1093,-6.1093,-6.1093,-6.1093,-6.1093,-6.1093,-6.1093,-6.1093,-6.1093,-6.1093,-6.1093,-6.1093,-6.1093,-6.1093,-6.1093,-6.1093,-6.1093,-6.1093,-6.1093,-6.1093,-6.1093,-6.1093,-6.1093,-6.1093,-6.1093,-6.1093,-6.1093,-6.1093,-6.1093,-6.1093,-6.1093,-6.1093,-6.1093,-6.1093,-6.1093,-6.1093,-6.104,-6.0933,-6.1058,-6.1093,-6.1093,-6.1093,-6.1034,-6.0944,-6.0701,-5.9794,-5.8582,-5.8423,-5.7463,-5.6205,-5.5903,-5.5645,-5.5409,-6.4644,-6.4733,-6.4871,-6.537,-6.5627,-6.5978,-6.6644,-6.6962,-6.7216,-6.7423,-6.7447,-6.7447,-6.7447,-6.7057,-6.6444,-6.5608,-6.5534,-6.5181,-6.4345,-6.4289,-6.4062,-6.3616,-6.3194,-6.2812,-6.2368,-6.2386,-6.1978,-6.1093,-6.1339,-6.1321,-6.1093,-6.1093,-6.1093,-6.1093,-6.1093,-6.1093,-6.1093,-6.1093,-6.1093,-6.1093,-6.1093,-6.1093,-6.1093,-6.1093,-6.1093,-6.1093,-6.1093,-6.1093,-6.1093,-6.1093,-6.1093,-6.1093,-6.1093,-6.1093,-6.1093,-6.1093,-6.1093,-6.1093,-6.1093,-6.1093,-6.1093,-6.1093,-6.1093,-6.1093,-6.1093,-6.1093,-6.1093,-6.1093,-6.1093,-6.1093,-6.1093,-6.1093,-6.1093,-6.1093,-6.1093,-6.1093,-6.1093,-6.1093,-6.1093,-6.1093,-6.1093,-6.1093,-6.1093,-6.1093,-6.1093,-6.1093,-6.1093,-6.1093,-6.1093,-6.1093,-6.1093,-6.1093,-6.1093,-6.1093,-6.1093,-6.1093,-6.1093,-6.1093,-6.1093,-6.1093,-6.1093,-6.1093,-6.1093,-6.1093,-6.1093,-6.1004,-6.0823,-6.0854,-6.0195,-5.9113,-5.9231,-5.8247,-5.6647,-5.6046,-5.5645,-5.5409]},{"header":{"parameterUnit":"m.s-1","parameterCategory":1,"la1":30.6,"la2":28.766,"lo1":-90.7593,"lo2":-88.6598,"dy":0.0162,"dx":0.0183,"nx":116,"ny":114,"refTime":"2023-10-07T12:00:00:Z","depth":0,"parameterNumber":3,"parameterNumberName":"V-component_of_WINDS"},"data":[0.0,0.0,0.0,0.0,0.0,0.0,0.0,0.0,0.0,0.0,0.0,0.0,0.0,0.0,0.0,0.0,0.0,0.0,0.0,0.0,0.0,0.0,0.0,0.0,0.0,0.0,0.0,0.0,0.0,0.0,0.0,0.0,0.0,0.0,0.0,0.0,0.0,0.0,0.0,0.0,0.0,0.0,0.0,0.0,0.0,0.0,0.0,0.0,0.0,0.0,0.0,0.0,0.0,0.0,0.0,0.0,0.0,0.0,0.0,0.0,0.0,0.0,0.0,0.0,0.0,0.0,0.0,0.0,0.0,0.0,0.0,0.0,0.0,0.0,0.0,0.0,0.0,0.0,0.0,0.0,0.0,0.0,0.0,0.0,0.0,0.0,0.0,0.0,0.0,0.0,0.0,0.0,0.0,0.0,0.0,0.0,0.0,0.0,0.0,0.0,0.0,0.0,0.0,0.0,0.0,0.0,0.0,0.0,0.0,0.0,0.0,0.0,0.0,0.0,0.0,0.0,0.0,0.0,0.0,0.0,0.0,0.0,0.0,0.0,0.0,0.0,0.0,0.0,0.0,0.0,0.0,0.0,0.0,0.0,0.0,0.0,0.0,0.0,0.0,0.0,0.0,0.0,0.0,0.0,0.0,0.0,0.0,0.0,0.0,0.0,0.0,0.0,0.0,0.0,0.0,0.0,0.0,0.0,0.0,0.0,0.0,0.0,0.0,0.0,0.0,0.0,0.0,0.0,0.0,0.0,0.0,0.0,0.0,0.0,0.0,0.0,0.0,0.0,0.0,0.0,0.0,0.0,0.0,0.0,0.0,0.0,0.0,0.0,0.0,0.0,0.0,0.0,0.0,0.0,0.0,0.0,0.0,0.0,0.0,0.0,0.0,0.0,0.0,0.0,0.0,0.0,0.0,0.0,0.0,0.0,0.0,0.0,0.0,0.0,0.0,0.0,0.0,0.0,0.0,0.0,0.0,0.0,0.0,0.0,0.0,0.0,0.0,0.0,0.0,0.0,0.0,0.0,0.0,0.0,0.0,0.0,0.0,0.0,0.0,0.0,0.0,0.0,0.0,0.0,0.0,0.0,0.0,0.0,0.0,0.0,0.0,0.0,0.0,0.0,0.0,0.0,0.0,0.0,0.0,0.0,0.0,0.0,0.0,0.0,0.0,0.0,0.0,0.0,0.0,0.0,0.0,0.0,0.0,0.0,0.0,0.0,0.0,0.0,0.0,0.0,0.0,0.0,0.0,0.0,0.0,0.0,0.0,0.0,0.0,0.0,0.0,0.0,0.0,0.0,0.0,0.0,0.0,0.0,0.0,0.0,0.0,0.0,0.0,0.0,0.0,0.0,0.0,0.0,0.0,0.0,0.0,0.0,0.0,0.0,0.0,0.0,0.0,0.0,0.0,0.0,0.0,0.0,0.0,0.0,0.0,0.0,0.0,0.0,0.0,0.0,0.0,0.0,0.0,0.0,0.0,0.0,0.0,0.0,0.0,0.0,0.0,0.0,0.0,0.0,0.0,0.0,0.0,0.0,0.0,0.0,0.0,0.0,0.0,0.0,0.0,0.0,0.0,0.0,0.0,0.0,0.0,0.0,0.0,0.0,0.0,0.0,0.0,0.0,0.0,0.0,0.0,0.0,0.0,0.0,0.0,0.0,0.0,0.0,0.0,0.0,0.0,0.0,0.0,0.0,0.0,0.0,0.0,0.0,0.0,0.0,0.0,0.0,0.0,0.0,0.0,0.0,0.0,0.0,0.0,0.0,0.0,0.0,0.0,0.0,0.0,0.0,0.0,0.0,0.0,0.0,0.0,0.0,0.0,0.0,0.0,0.0,0.0,0.0,0.0,0.0,0.0,0.0,0.0,0.0,0.0,0.0,0.0,0.0,0.0,0.0,0.0,0.0,0.0,0.0,0.0,0.0,0.0,0.0,0.0,0.0,0.0,0.0,0.0,0.0,0.0,0.0,0.0,0.0,0.0,0.0,0.0,0.0,0.0,0.0,0.0,0.0,0.0,0.0,0.0,0.0,0.0,0.0,0.0,0.0,0.0,0.0,0.0,0.0,0.0,0.0,0.0,0.0,0.0,0.0,0.0,0.0,0.0,0.0,0.0,0.0,0.0,0.0,0.0,0.0,0.0,0.0,0.0,0.0,0.0,0.0,0.0,0.0,0.0,0.0,0.0,0.0,0.0,0.0,0.0,0.0,0.0,0.0,0.0,0.0,0.0,0.0,0.0,0.0,0.0,0.0,0.0,0.0,0.0,0.0,0.0,0.0,0.0,0.0,0.0,0.0,0.0,0.0,0.0,0.0,0.0,0.0,0.0,0.0,0.0,0.0,0.0,0.0,0.0,0.0,0.0,0.0,0.0,0.0,0.0,0.0,0.0,0.0,0.0,0.0,0.0,0.0,0.0,0.0,0.0,0.0,0.0,0.0,0.0,0.0,0.0,0.0,0.0,0.0,0.0,0.0,0.0,0.0,0.0,0.0,0.0,0.0,0.0,0.0,0.0,0.0,0.0,0.0,0.0,0.0,0.0,0.0,0.0,0.0,0.0,0.0,0.0,0.0,0.0,0.0,0.0,0.0,0.0,0.0,0.0,0.0,0.0,0.0,0.0,0.0,0.0,0.0,0.0,0.0,0.0,0.0,0.0,0.0,0.0,0.0,0.0,0.0,0.0,0.0,0.0,0.0,0.0,0.0,0.0,0.0,0.0,0.0,0.0,0.0,0.0,0.0,0.0,0.0,0.0,0.0,0.0,0.0,0.0,0.0,0.0,0.0,0.0,0.0,0.0,0.0,0.0,0.0,0.0,0.0,0.0,0.0,0.0,0.0,0.0,0.0,0.0,0.0,0.0,0.0,0.0,0.0,0.0,0.0,0.0,0.0,0.0,0.0,0.0,0.0,0.0,0.0,0.0,0.0,0.0,0.0,0.0,0.0,0.0,0.0,0.0,0.0,0.0,0.0,0.0,0.0,0.0,0.0,0.0,0.0,0.0,0.0,0.0,0.0,0.0,0.0,0.0,0.0,0.0,0.0,0.0,0.0,0.0,0.0,0.0,0.0,0.0,0.0,0.0,0.0,0.0,0.0,0.0,0.0,0.0,0.0,0.0,0.0,0.0,0.0,0.0,0.0,0.0,0.0,0.0,0.0,0.0,0.0,0.0,0.0,0.0,0.0,0.0,0.0,0.0,0.0,0.0,0.0,0.0,0.0,0.0,0.0,0.0,0.0,0.0,0.0,0.0,0.0,0.0,0.0,0.0,0.0,0.0,0.0,0.0,0.0,0.0,0.0,0.0,0.0,0.0,0.0,0.0,0.0,0.0,0.0,0.0,0.0,0.0,0.0,0.0,0.0,0.0,0.0,0.0,0.0,0.0,0.0,0.0,0.0,0.0,0.0,0.0,0.0,0.0,0.0,0.0,0.0,0.0,0.0,0.0,0.0,0.0,0.0,0.0,0.0,0.0,0.0,0.0,0.0,0.0,0.0,0.0,0.0,0.0,0.0,0.0,0.0,0.0,0.0,0.0,0.0,0.0,0.0,0.0,0.0,0.0,0.0,0.0,0.0,0.0,0.0,0.0,0.0,0.0,0.0,0.0,0.0,0.0,0.0,0.0,0.0,0.0,0.0,0.0,0.0,0.0,0.0,0.0,0.0,0.0,0.0,0.0,0.0,0.0,0.0,0.0,0.0,0.0,0.0,0.0,0.0,0.0,0.0,0.0,0.0,0.0,0.0,0.0,0.0,0.0,0.0,0.0,0.0,0.0,0.0,0.0,0.0,0.0,0.0,0.0,0.0,0.0,0.0,0.0,0.0,0.0,0.0,0.0,0.0,0.0,0.0,0.0,0.0,0.0,0.0,0.0,0.0,0.0,0.0,0.0,0.0,0.0,0.0,0.0,0.0,0.0,0.0,0.0,0.0,0.0,0.0,0.0,0.0,0.0,0.0,0.0,0.0,0.0,0.0,0.0,0.0,0.0,0.0,0.0,0.0,0.0,0.0,0.0,0.0,0.0,0.0,0.0,0.0,0.0,0.0,0.0,0.0,0.0,0.0,0.0,0.0,0.0,0.0,0.0,0.0,0.0,0.0,0.0,0.0,0.0,0.0,0.0,0.0,0.0,0.0,0.0,0.0,0.0,0.0,0.0,0.0,0.0,0.0,0.0,0.0,0.0,0.0,0.0,0.0,0.0,0.0,0.0,0.0,0.0,0.0,0.0,0.0,0.0,0.0,0.0,0.0,0.0,0.0,0.0,0.0,0.0,0.0,0.0,0.0,0.0,0.0,0.0,0.0,0.0,0.0,0.0,0.0,0.0,0.0,0.0,0.0,0.0,0.0,0.0,0.0,0.0,0.0,0.0,0.0,0.0,0.0,0.0,0.0,0.0,0.0,0.0,0.0,0.0,0.0,0.0,0.0,0.0,0.0,0.0,0.0,0.0,0.0,0.0,0.0,0.0,0.0,0.0,0.0,0.0,0.0,0.0,0.0,0.0,0.0,0.0,0.0,0.0,0.0,0.0,0.0,0.0,0.0,0.0,0.0,0.0,0.0,0.0,0.0,0.0,0.0,0.0,0.0,0.0,0.0,0.0,0.0,0.0,0.0,0.0,0.0,0.0,0.0,0.0,0.0,0.0,0.0,0.0,0.0,0.0,0.0,0.0,0.0,0.0,0.0,0.0,0.0,0.0,0.0,0.0,0.0,0.0,0.0,0.0,0.0,0.0,0.0,0.0,0.0,0.0,0.0,0.0,0.0,0.0,0.0,0.0,0.0,0.0,0.0,0.0,0.0,0.0,0.0,0.0,0.0,0.0,0.0,0.0,0.0,0.0,0.0,0.0,0.0,0.0,0.0,0.0,0.0,0.0,0.0,0.0,0.0,0.0,0.0,0.0,0.0,0.0,0.0,0.0,0.0,0.0,0.0,0.0,0.0,0.0,0.0,0.0,0.0,0.0,0.0,0.0,0.0,0.0,0.0,0.0,0.0,0.0,0.0,0.0,0.0,0.0,0.0,0.0,0.0,0.0,0.0,0.0,0.0,0.0,0.0,0.0,0.0,0.0,0.0,0.0,0.0,0.0,0.0,0.0,0.0,0.0,0.0,0.0,0.0,0.0,0.0,0.0,0.0,0.0,0.0,0.0,0.0,0.0,0.0,0.0,0.0,0.0,0.0,0.0,0.0,0.0,0.0,0.0,0.0,0.0,0.0,0.0,0.0,0.0,0.0,0.0,0.0,0.0,0.0,0.0,0.0,0.0,0.0,0.0,0.0,0.0,0.0,0.0,0.0,0.0,0.0,0.0,0.0,0.0,0.0,0.0,0.0,0.0,0.0,0.0,0.0,0.0,0.0,0.0,0.0,0.0,0.0,0.0,0.0,0.0,0.0,0.0,0.0,0.0,0.0,0.0,0.0,0.0,0.0,0.0,0.0,0.0,0.0,0.0,0.0,0.0,0.0,0.0,0.0,0.0,0.0,0.0,0.0,0.0,0.0,0.0,0.0,0.0,0.0,0.0,0.0,0.0,0.0,0.0,0.0,0.0,0.0,0.0,0.0,0.0,0.0,0.0,0.0,0.0,0.0,0.0,0.0,0.0,0.0,0.0,0.0,0.0,0.0,0.0,0.0,0.0,0.0,0.0,0.0,0.0,0.0,0.0,0.0,0.0,0.0,0.0,0.0,0.0,0.0,0.0,0.0,0.0,0.0,0.0,0.0,0.0,0.0,0.0,0.0,0.0,0.0,0.0,0.0,0.0,0.0,0.0,0.0,0.0,0.0,0.0,0.0,0.0,0.0,0.0,0.0,0.0,0.0,0.0,0.0,0.0,0.0,0.0,0.0,0.0,0.0,0.0,0.0,0.0,0.0,0.0,0.0,0.0,0.0,0.0,0.0,0.0,0.0,0.0,0.0,0.0,0.0,0.0,0.0,0.0,0.0,0.0,0.0,0.0,0.0,0.0,0.0,0.0,0.0,0.0,0.0,0.0,0.0,0.0,0.0,0.0,0.0,0.0,0.0,0.0,0.0,0.0,0.0,0.0,0.0,0.0,0.0,0.0,0.0,0.0,0.0,0.0,0.0,0.0,0.0,0.0,0.0,0.0,0.0,3.361,3.3748,0.0,0.0,0.0,0.0,0.0,0.0,0.0,0.0,0.0,0.0,0.0,0.0,0.0,0.0,0.0,0.0,0.0,0.0,0.0,0.0,0.0,0.0,0.0,0.0,0.0,0.0,0.0,0.0,0.0,0.0,0.0,0.0,0.0,0.0,0.0,0.0,0.0,2.9393,2.9328,2.9747,3.0643,3.1043,3.1623,3.2287,0.0,0.0,0.0,0.0,0.0,0.0,0.0,0.0,0.0,0.0,0.0,0.0,0.0,0.0,0.0,0.0,0.0,0.0,0.0,0.0,0.0,0.0,0.0,0.0,0.0,0.0,0.0,0.0,0.0,0.0,0.0,0.0,0.0,0.0,0.0,0.0,0.0,0.0,0.0,0.0,0.0,0.0,0.0,0.0,0.0,0.0,0.0,0.0,0.0,0.0,0.0,0.0,0.0,0.0,0.0,0.0,0.0,0.0,0.0,0.0,0.0,0.0,0.0,0.0,0.0,0.0,0.0,0.0,0.0,0.0,3.4378,3.4172,0.0,0.0,0.0,0.0,0.0,0.0,0.0,0.0,0.0,0.0,0.0,0.0,0.0,0.0,0.0,0.0,0.0,0.0,0.0,0.0,0.0,0.0,0.0,2.7523,2.7556,2.7556,2.7901,2.8112,2.8112,0.0,0.0,0.0,0.0,0.0,2.8554,2.9425,2.9752,2.9467,3.0025,3.0554,3.097,3.1087,3.1509,3.215,3.2148,0.0,0.0,0.0,0.0,0.0,0.0,0.0,0.0,0.0,0.0,0.0,0.0,0.0,0.0,0.0,0.0,0.0,0.0,0.0,0.0,0.0,0.0,0.0,0.0,0.0,0.0,0.0,0.0,0.0,0.0,0.0,0.0,0.0,0.0,0.0,0.0,0.0,0.0,0.0,0.0,0.0,0.0,0.0,0.0,0.0,0.0,0.0,0.0,0.0,0.0,0.0,0.0,0.0,0.0,0.0,0.0,0.0,0.0,0.0,0.0,0.0,0.0,0.0,3.594,3.6089,3.5479,3.5854,3.6064,3.6042,3.5765,3.5311,3.4826,3.4441,0.0,0.0,0.0,0.0,0.0,0.0,0.0,0.0,0.0,0.0,0.0,0.0,0.0,0.0,0.0,0.0,0.0,0.0,0.0,2.749,2.749,2.7656,2.7756,2.7756,2.7967,2.8112,2.8112,0.0,0.0,0.0,0.0,2.8417,2.832,2.8468,2.9075,3.016,3.1102,3.1307,3.0837,3.1409,3.1756,3.1841,3.1394,3.1495,3.2066,0.0,0.0,0.0,0.0,0.0,0.0,0.0,0.0,0.0,0.0,0.0,0.0,0.0,0.0,0.0,0.0,0.0,0.0,0.0,0.0,0.0,0.0,0.0,0.0,0.0,0.0,0.0,0.0,0.0,0.0,0.0,0.0,0.0,0.0,0.0,0.0,0.0,0.0,0.0,0.0,0.0,3.5504,3.5504,0.0,0.0,0.0,0.0,0.0,0.0,0.0,0.0,0.0,0.0,0.0,0.0,0.0,3.6143,3.6031,3.6675,3.6999,3.6999,3.6485,3.6162,3.6056,3.5392,3.5091,3.5113,3.582,0.0,3.6896,3.5511,0.0,0.0,0.0,0.0,0.0,0.0,0.0,0.0,0.0,0.0,0.0,0.0,0.0,0.0,0.0,0.0,0.0,0.0,0.0,0.0,0.0,2.759,2.7623,2.7623,2.7822,2.7934,2.7934,2.8118,0.0,0.0,2.8249,2.8287,2.8287,2.8137,2.8629,2.9842,3.1043,3.1467,3.119,3.1511,3.1894,3.2342,3.199,3.2092,3.2587,3.2629,0.0,0.0,0.0,0.0,0.0,0.0,0.0,0.0,0.0,0.0,0.0,0.0,0.0,0.0,0.0,0.0,0.0,0.0,0.0,0.0,0.0,0.0,0.0,0.0,0.0,0.0,0.0,0.0,0.0,0.0,0.0,0.0,0.0,0.0,0.0,0.0,0.0,0.0,0.0,3.5504,3.5504,3.5504,3.4721,3.4423,0.0,0.0,0.0,0.0,0.0,0.0,0.0,0.0,0.0,3.6483,3.6816,3.6999,3.6906,3.7233,3.7404,3.7419,3.7416,3.7189,3.6758,3.6753,3.6486,3.6003,3.5941,3.6373,3.7075,3.6523,3.6284,3.6188,0.0,0.0,0.0,0.0,3.4908,3.5983,0.0,0.0,0.0,0.0,0.0,0.0,0.0,0.0,0.0,0.0,0.0,0.0,2.749,2.749,2.749,2.749,2.7656,2.7723,2.7723,2.7973,2.8072,2.8046,2.8118,2.8203,2.8235,2.8137,2.8532,2.9504,3.0673,3.1337,3.1471,3.1662,3.2079,3.2721,3.2736,3.2916,3.3182,3.3182,3.3576,3.4243,0.0,0.0,0.0,0.0,0.0,0.0,0.0,0.0,0.0,0.0,0.0,0.0,0.0,0.0,0.0,0.0,0.0,0.0,0.0,0.0,0.0,0.0,0.0,0.0,0.0,0.0,0.0,0.0,0.0,0.0,0.0,0.0,0.0,0.0,0.0,0.0,0.0,3.5504,3.5504,3.5504,3.4505,3.4244,0.0,0.0,0.0,0.0,0.0,0.0,3.7389,3.7404,3.7479,3.7659,3.7659,3.7749,3.7913,3.7913,3.7809,3.7599,3.7881,3.758,3.6816,3.711,3.6883,3.6227,3.5856,3.6042,3.6579,3.6746,3.6839,3.6731,3.5996,3.5548,3.5305,3.4868,3.5155,3.5749,0.0,0.0,0.0,0.0,0.0,0.0,0.0,0.0,0.0,0.0,0.0,2.749,2.749,2.749,2.749,2.749,2.749,2.7523,2.7523,2.7523,2.7623,2.7822,2.7809,2.7921,2.8112,2.8527,2.8998,2.9504,3.0208,3.0829,3.1424,3.2108,3.2433,3.2443,3.3131,3.3577,3.3744,3.3698,3.4182,3.4957,3.5126,0.0,0.0,0.0,0.0,0.0,0.0,0.0,0.0,0.0,0.0,0.0,0.0,0.0,0.0,0.0,0.0,0.0,0.0,0.0,0.0,0.0,0.0,0.0,0.0,0.0,0.0,0.0,0.0,0.0,0.0,0.0,0.0,0.0,0.0,0.0,0.0,0.0,0.0,3.5504,3.5439,0.0,0.0,0.0,0.0,3.6312,3.6966,3.7375,3.7404,3.7404,3.7689,3.8317,3.8347,3.8661,3.9269,3.932,3.8906,3.8138,3.7339,3.654,3.5735,3.4937,3.4551,3.4551,3.5345,3.5709,3.5736,3.5749,3.5775,3.5775,3.5736,3.5196,3.4551,3.5345,3.5669,3.5816,0.0,0.0,0.0,0.0,0.0,0.0,0.0,0.0,2.749,2.749,2.749,2.749,2.749,2.749,2.749,2.749,2.749,2.749,2.749,2.7623,2.7656,2.7623,2.8091,2.8541,2.8868,2.9531,2.9953,3.0019,3.1158,3.1826,3.2043,3.2309,3.2943,3.3878,3.3561,3.4021,3.5011,3.4527,3.4722,3.5322,3.5624,3.5636,0.0,0.0,0.0,0.0,0.0,0.0,0.0,0.0,0.0,0.0,0.0,0.0,0.0,0.0,0.0,0.0,0.0,0.0,0.0,0.0,0.0,0.0,0.0,0.0,0.0,0.0,0.0,0.0,0.0,0.0,0.0,0.0,0.0,0.0,0.0,0.0,0.0,3.6088,3.5674,0.0,3.6561,3.6497,3.6742,3.7588,3.7893,3.8227,3.8676,3.8706,3.8811,3.905,3.905,3.917,3.9388,3.8885,3.8464,3.8202,3.7333,3.6464,3.5709,3.5386,3.4909,3.4439,3.4716,3.4868,3.4868,3.4868,3.5494,3.6425,3.5896,3.5507,3.5196,3.495,3.4868,3.4909,0.0,0.0,0.0,0.0,0.0,0.0,0.0,2.7811,2.7811,2.7811,2.7811,2.7889,2.8098,2.8124,2.8124,2.8124,2.8124,2.8033,2.7837,2.8142,2.8202,2.7904,2.8591,2.9057,2.931,2.9832,3.0165,3.0295,3.1249,3.1778,3.1976,3.2207,3.2865,3.3806,3.3736,3.4281,3.5207,3.484,3.504,3.5683,3.5925,3.5767,3.5415,0.0,0.0,0.0,0.0,0.0,0.0,0.0,0.0,0.0,0.0,0.0,0.0,0.0,0.0,0.0,0.0,0.0,0.0,0.0,0.0,0.0,0.0,0.0,0.0,0.0,0.0,0.0,0.0,0.0,0.0,0.0,0.0,0.0,0.0,3.5833,3.6073,3.6731,3.6325,3.6458,3.7639,3.7301,3.7511,3.8656,3.8736,3.8931,3.9394,3.9388,3.9265,3.8995,3.901,3.8833,3.8546,3.8023,3.763,3.7376,3.6791,3.6042,3.5264,3.5264,3.495,3.4397,3.4397,3.4397,3.4397,3.4397,3.506,3.5989,3.5454,3.5264,3.5196,3.4592,3.4397,3.4397,0.0,0.0,0.0,0.0,0.0,0.0,2.8538,2.8446,2.8446,2.8446,2.8446,2.8669,2.9258,2.931,2.931,2.931,2.931,2.9061,2.8486,2.8996,2.9145,2.8765,2.9245,2.9455,2.9375,2.9362,2.9667,3.0315,3.035,3.062,3.1162,3.1848,3.2166,3.2182,3.3616,3.4245,3.4312,3.448,3.5106,3.5973,3.5973,3.5527,3.5023,0.0,0.0,0.0,0.0,0.0,0.0,0.0,0.0,0.0,0.0,0.0,0.0,0.0,0.0,0.0,0.0,0.0,0.0,0.0,0.0,0.0,0.0,0.0,0.0,0.0,0.0,0.0,0.0,0.0,0.0,0.0,0.0,0.0,3.6507,3.6507,3.6746,3.736,3.7434,3.7704,3.8362,3.8422,3.8691,3.9328,3.9388,3.9388,3.9388,3.9388,3.9046,3.8277,3.824,3.7834,3.6958,3.6919,3.6517,3.5736,3.5696,3.5263,3.445,3.445,3.445,3.445,3.445,3.445,3.445,3.4437,3.4424,3.4424,3.441,3.4397,3.4397,3.4397,3.4397,3.4397,0.0,0.0,0.0,0.0,0.0,0.0,2.9087,2.9039,2.9039,2.9039,2.9039,2.914,2.9297,2.931,2.931,2.931,2.931,2.9244,2.9039,2.9231,2.9428,2.9689,2.9846,3.0121,3.0503,3.0516,3.0627,3.0797,3.1339,3.1694,3.1843,3.2044,3.239,3.2897,3.2741,3.3304,3.4279,3.3802,3.4109,3.4975,3.4975,3.5136,3.5344,0.0,0.0,0.0,0.0,0.0,0.0,0.0,0.0,0.0,0.0,0.0,0.0,0.0,0.0,0.0,0.0,0.0,0.0,0.0,0.0,0.0,0.0,0.0,0.0,0.0,0.0,0.0,0.0,0.0,0.0,0.0,3.5851,3.715,3.715,3.715,3.7389,3.8048,3.8123,3.8392,3.9065,3.914,3.9215,3.9373,3.9388,3.9388,3.9388,3.9388,3.9301,3.9083,3.9083,3.8686,3.7872,3.7218,3.6686,3.6266,3.5685,3.5502,3.5639,3.5639,3.5639,3.5639,3.5639,3.5639,3.56,3.5208,3.5051,3.5012,3.4567,3.4397,3.4397,3.4397,3.4397,3.4397,0.0,0.0,0.0,0.0,0.0,0.0,2.968,2.964,2.964,2.964,2.964,2.9732,2.9967,2.9993,2.9993,2.9993,2.9993,2.9889,2.9653,2.964,2.9902,3.0464,3.049,3.0647,3.0973,3.0986,3.0986,3.0986,3.1431,3.176,3.1963,3.1963,3.2209,3.2613,3.2504,3.2811,3.3374,3.2918,3.3248,3.3973,3.3685,3.4192,3.5085,3.4787,3.4758,3.4861,3.4547,3.4728,3.5008,3.4629,0.0,0.0,0.0,0.0,0.0,0.0,0.0,0.0,0.0,0.0,0.0,0.0,0.0,0.0,0.0,0.0,0.0,0.0,0.0,0.0,0.0,0.0,0.0,0.0,3.6793,3.7913,3.8212,3.8003,3.8063,3.8736,3.8826,3.8975,3.9343,3.9388,3.9388,3.9388,3.9388,3.9388,3.9388,3.9083,3.8855,3.8716,3.8375,3.7898,3.7336,3.6838,3.6482,3.6356,3.5871,3.5796,3.6109,3.6109,3.6109,3.6109,3.6109,3.6109,3.6083,3.5757,3.5639,3.5547,0.0,0.0,0.0,0.0,3.4397,3.4397,0.0,0.0,0.0,0.0,0.0,0.0,3.027,3.0192,3.0192,3.0192,3.0192,3.0424,3.0934,3.0986,3.0986,3.0986,3.0986,3.0764,3.0231,3.0192,3.0451,3.096,3.0986,3.0986,3.0986,3.0986,3.0986,3.0986,3.1052,3.1339,3.1797,3.1863,3.1902,3.194,3.2562,3.2637,3.2182,3.2042,3.2412,3.3003,3.2268,3.2953,3.4361,3.3713,3.4293,3.5302,3.448,3.4747,3.5415,3.4581,0.0,0.0,0.0,0.0,0.0,0.0,0.0,0.0,0.0,0.0,0.0,0.0,0.0,0.0,0.0,0.0,0.0,0.0,0.0,0.0,0.0,0.0,0.0,0.0,3.8011,3.8742,3.937,3.8886,3.8736,3.9313,3.9316,3.9301,3.9388,3.9316,3.9301,3.9388,3.9361,3.9333,3.9333,3.8639,0.0,0.0,0.0,3.6582,3.6271,3.6227,3.6223,3.6201,3.6201,3.624,3.6305,3.6305,3.6305,3.6305,3.6305,3.6305,3.6305,3.6227,3.6162,3.6005,3.4986,3.458,3.458,3.458,3.458,3.458,0.0,0.0,0.0,0.0,0.0,0.0,3.083,3.083,3.083,3.083,3.083,3.0869,3.0973,3.0986,3.0986,3.0986,3.0986,3.0934,3.083,3.083,3.0869,3.0973,3.0986,3.0986,3.0986,3.0986,3.0986,3.0986,3.1444,3.1693,3.181,3.2319,3.2529,3.2502,3.2187,3.233,3.2769,3.1681,3.164,3.2268,3.1505,3.2137,3.3457,3.3318,3.3422,3.3665,3.3492,3.3905,3.4547,3.438,3.4758,3.5213,3.4576,3.4428,0.0,0.0,0.0,0.0,0.0,0.0,0.0,0.0,0.0,0.0,0.0,0.0,0.0,0.0,0.0,0.0,0.0,0.0,0.0,3.7296,3.8504,3.9495,3.9631,3.9397,3.9275,3.9373,3.8811,3.8701,3.9352,3.8811,3.8701,3.9337,3.9194,3.908,3.908,3.8728,3.8508,3.8458,3.8295,3.7869,3.7147,3.7147,3.7044,3.6828,3.6828,0.0,3.7547,3.7547,3.7547,3.7547,3.7547,3.7547,3.7521,3.7037,3.6541,3.6083,3.5861,3.577,3.577,3.577,3.577,3.577,0.0,0.0,0.0,0.0,0.0,0.0,3.0419,3.071,3.0986,3.0986,3.0986,3.0986,3.0986,3.0621,3.0545,3.0949,3.0986,3.0986,3.0986,3.0986,3.0986,3.0986,3.0986,3.0986,3.0986,3.0986,3.0986,3.0986,3.1274,3.1705,3.228,3.2555,3.2855,3.3117,3.2529,3.2291,3.2357,3.141,3.1222,3.1505,3.1161,3.1445,3.2101,3.2101,3.2791,3.3699,3.3318,3.3665,3.4312,3.4312,3.4327,3.4288,3.3988,3.365,3.3234,0.0,0.0,0.0,0.0,0.0,0.0,0.0,0.0,0.0,0.0,0.0,0.0,0.0,0.0,3.617,3.6621,0.0,3.8157,3.8585,3.9242,3.9732,3.9839,3.9307,3.8914,3.8914,3.8833,3.8811,3.8811,3.9106,3.9283,3.9194,3.9372,3.9293,3.8806,3.8281,3.8144,3.8433,3.8022,3.7768,3.7665,3.7665,3.7603,3.7456,3.7456,3.7612,3.79,3.79,3.79,3.79,3.79,3.79,3.7874,3.7573,3.7273,3.6998,3.6998,3.6632,3.6109,3.6109,3.6109,3.6109,0.0,0.0,0.0,0.0,0.0,0.0,2.9781,3.0305,3.0823,3.0986,3.0861,3.0748,3.0748,2.9986,2.9742,3.0419,3.0659,3.0748,3.0748,3.0911,3.0986,3.0986,3.0986,3.0986,3.0986,3.0986,3.0986,3.0986,3.1091,3.1627,3.2529,3.2646,3.2947,3.3391,3.279,3.228,3.1758,3.1222,3.0986,3.0986,3.0986,3.0986,3.0986,3.0986,3.2101,3.3581,3.3003,3.3248,3.3891,3.4027,3.3802,3.3422,3.3422,3.3129,3.2741,3.2475,3.1982,0.0,0.0,0.0,0.0,0.0,0.0,0.0,0.0,3.4834,3.5353,3.6461,3.6896,3.7346,3.8222,3.8602,3.9045,3.9889,3.9732,3.961,3.996,3.906,3.8316,3.819,3.8559,3.8714,3.8376,3.9262,3.9589,3.8966,3.9384,3.9339,3.8574,3.7886,3.7712,3.8196,3.7527,3.7416,3.79,3.79,3.79,3.79,3.79,3.79,3.79,3.79,3.79,3.79,3.79,3.79,3.79,3.79,3.79,3.79,3.79,3.7312,3.6449,3.6449,3.6449,3.6449,0.0,0.0,0.0,0.0,0.0,0.0,0.0,0.0,3.0139,3.0911,3.0343,2.9871,2.9871,2.9069,2.8585,2.8664,2.9381,2.9871,2.9871,3.0583,3.0986,3.0986,3.0986,3.0986,3.0986,3.0986,3.0986,3.0986,3.1496,3.1771,3.1902,3.245,3.2725,3.2764,3.215,3.1863,3.1758,3.1222,3.0986,3.0986,3.0986,3.0986,3.0986,3.0986,3.1161,3.1371,3.1272,3.1713,3.247,3.3108,3.3699,3.4177,3.4177,3.4681,3.4927,3.296,3.2925,3.3241,3.2155,3.2828,3.4034,3.4772,3.5267,3.6121,0.0,3.768,3.7274,3.9501,3.9343,3.9079,3.9894,4.006,4.0086,3.9996,3.9328,3.9081,3.9889,3.898,3.8023,3.7396,3.703,3.7364,3.8755,3.8178,3.7979,3.861,3.8531,3.8433,3.8347,3.802,3.7867,3.7933,3.7841,3.7835,3.79,3.79,3.79,3.79,3.79,3.79,3.79,3.79,3.79,3.79,3.79,3.79,3.79,3.79,3.79,3.79,3.79,3.7821,3.7704,3.7704,3.7704,3.7704,0.0,0.0,0.0,0.0,0.0,0.0,0.0,0.0,2.9691,3.0177,2.9947,2.9704,2.9704,2.89,2.8187,2.773,2.8912,2.9704,2.9704,3.0508,3.0986,3.0986,3.0986,3.0986,3.0986,3.0986,3.0986,3.0986,3.1222,3.1471,3.181,3.2045,3.2372,3.2659,3.2058,3.1797,3.1758,3.1222,3.0986,3.0986,3.0986,3.0986,3.0986,3.0986,3.0986,3.1061,3.1629,3.1932,0.0,3.2605,3.2569,3.2376,3.2376,3.272,3.2967,3.2178,3.2214,3.2701,3.3499,3.4229,3.5008,3.6069,3.6449,3.6823,3.7783,3.7813,3.8003,3.9489,3.9864,4.0036,4.0366,4.0331,4.0141,3.9651,3.922,3.9038,3.943,3.8211,3.7567,3.8333,3.7262,3.6791,3.7462,3.8228,3.86,3.8445,3.8648,3.8607,3.8081,3.7939,3.79,3.79,3.79,3.79,3.79,3.8214,3.837,3.8383,3.8723,3.8893,3.8893,3.8893,3.8893,3.8893,3.8893,3.8893,3.8893,3.8893,3.8893,3.8893,3.8893,3.8893,3.8815,3.8148,3.79,3.79,0.0,0.0,0.0,0.0,0.0,0.0,0.0,0.0,0.0,0.0,2.9147,2.8912,2.8676,2.8079,2.7487,2.6899,2.8171,2.9108,2.9342,3.0139,3.0748,3.0986,3.0986,3.0986,3.0986,3.0986,3.0986,3.0986,3.0986,3.1196,3.1562,3.1562,3.1823,3.2202,3.1784,3.1562,3.1536,3.1156,3.0986,3.0986,3.0986,3.0986,3.0986,3.0986,3.0986,3.1099,3.1776,3.1932,3.1846,3.2259,3.1946,3.1421,3.1445,3.1763,3.2019,3.178,3.1827,3.2347,3.4028,3.5131,3.6035,3.6925,3.7407,3.7675,3.7587,3.7655,3.8078,3.9088,3.9391,3.9707,4.0385,4.0056,3.96,3.9356,3.8752,3.8449,3.8723,3.7438,3.699,3.8527,3.7579,3.6826,3.6828,3.8232,3.886,3.8232,3.8608,3.8549,3.7946,3.79,3.79,3.79,3.8044,3.8122,3.8122,3.8684,3.8958,3.8958,3.9403,3.9612,3.9612,3.9612,3.9612,3.9612,3.9612,3.9612,3.9612,3.9612,3.9612,3.9612,3.9612,3.9612,3.9507,3.8671,3.837,3.837,0.0,0.0,0.0,0.0,0.0,0.0,0.0,0.0,0.0,0.0,2.777,2.694,2.6104,2.5979,2.5979,2.5937,2.6745,2.7609,2.8386,2.9264,3.0101,3.0949,3.0986,3.0986,3.0986,3.0986,3.0986,3.0986,3.0986,3.0999,3.1013,3.1013,3.1013,3.1039,3.1013,3.1013,3.1013,3.0999,3.0986,3.0986,3.0986,3.0986,3.0986,3.0986,3.0986,3.0986,3.1024,3.1061,3.1161,3.2092,3.2381,3.2381,3.2596,3.329,3.3728,3.23,3.2442,3.3074,3.3125,3.5099,3.7136,3.7201,3.8229,3.9239,3.9239,3.804,3.7372,3.8979,3.8092,3.7715,4.0076,3.9233,3.8399,3.9196,3.7663,3.6741,3.781,3.6819,3.6329,3.7164,3.751,3.7663,3.7664,3.7857,3.792,3.792,3.7933,3.7946,3.79,3.79,3.79,3.79,3.841,3.8684,3.8684,3.9285,3.9586,3.9586,3.9599,3.9612,3.9612,3.9612,3.9612,3.9612,3.9612,3.9612,3.9612,3.9612,3.9612,3.9612,3.9612,3.9612,3.9612,3.9573,3.956,3.956,0.0,0.0,0.0,0.0,0.0,0.0,0.0,0.0,0.0,0.0,0.0,0.0,0.0,0.0,0.0,0.0,2.6704,2.7296,2.7568,2.8912,2.9819,3.0139,3.071,3.0986,3.0986,3.0986,3.0986,3.0986,3.0986,3.0986,3.0986,3.0986,3.0986,3.0986,3.0986,3.0986,3.0986,3.0986,3.0986,3.0986,3.0986,3.0986,3.0986,3.0986,3.0986,3.0986,0.0,3.0986,3.1099,3.1656,3.179,3.1666,3.174,3.2164,3.2657,3.268,3.2901,3.3512,3.5337,3.651,3.755,3.9028,3.896,3.8509,3.8509,3.7663,3.7193,3.8287,3.8063,3.8115,3.9463,3.8818,3.8026,3.7753,3.7155,3.678,3.7081,3.6681,3.6757,3.769,3.7888,3.8068,3.8287,3.8153,3.8089,3.8089,3.8089,3.8057,3.79,3.824,3.8436,3.8436,3.8998,3.9311,3.9311,3.986,4.0148,4.0148,4.0553,4.0736,4.0736,4.0736,4.0736,4.0736,4.0736,4.0736,4.0736,4.0736,4.0736,4.0736,4.0736,4.0736,4.0736,4.0736,4.0736,4.0631,0.0,0.0,0.0,0.0,0.0,0.0,0.0,0.0,0.0,0.0,0.0,0.0,0.0,0.0,0.0,0.0,0.0,2.6869,2.7185,2.8211,2.8912,2.9225,3.0063,3.0545,3.0545,3.0823,3.0986,3.0986,3.0986,3.0986,3.0986,3.0986,3.0986,3.0986,3.0986,3.0986,3.0986,3.0986,3.0986,3.0986,3.0986,3.0986,3.1024,3.1099,3.1099,0.0,3.1286,3.1248,3.1174,3.1485,3.1559,3.1545,3.1619,3.1951,3.2469,3.3162,3.3525,3.4142,3.6205,3.7133,3.785,3.9286,3.9088,3.8436,3.8175,3.7486,3.7116,3.7951,3.7648,3.7587,3.8672,3.7988,3.7179,3.6922,3.6584,3.6362,3.635,3.6429,3.6822,3.7756,3.8,3.8317,3.8805,3.8621,3.8381,3.82,3.82,3.8214,3.8187,3.8514,3.8815,3.9024,3.9586,3.9899,3.9899,4.0448,4.0736,4.0736,4.1128,4.1311,4.1311,4.1311,4.1311,4.1311,4.1311,4.1311,4.1311,4.1311,4.1311,4.1311,4.1311,4.1311,4.1311,4.1311,4.1311,4.1206,0.0,0.0,0.0,0.0,0.0,0.0,0.0,0.0,0.0,0.0,0.0,0.0,0.0,0.0,0.0,0.0,0.0,0.0,2.7062,2.7185,2.7528,2.8307,2.9186,2.9665,2.9704,3.0508,3.0949,3.0986,3.0986,3.0986,3.0986,3.0986,3.0986,3.0986,3.0986,3.0986,3.0986,3.0986,3.0986,3.0986,3.0986,3.0986,3.1024,3.1198,3.1286,3.1386,3.1746,3.1686,3.1439,3.1612,3.181,3.2021,3.2227,3.2694,3.3264,3.3786,3.4355,3.4971,3.5871,3.7039,3.8063,3.8138,3.8672,3.8979,3.8213,3.741,3.7078,3.7875,3.6791,3.6163,3.7762,3.6766,3.5937,3.6702,3.6057,3.548,3.5669,3.6061,3.6627,3.7418,3.7841,3.8435,3.9193,3.9056,3.8742,3.8298,3.8253,3.8398,3.8684,3.8762,3.9063,3.9638,4.0174,4.0461,4.0461,4.1023,4.1311,4.1311,4.1311,4.1311,4.1311,4.1311,4.1311,4.1311,4.1311,4.1311,4.1311,4.1311,4.1311,4.1311,4.1311,4.1311,4.1311,4.1311,4.1311,4.1311,0.0,0.0,0.0,0.0,0.0,0.0,0.0,0.0,0.0,0.0,0.0,0.0,0.0,0.0,0.0,0.0,0.0,0.0,2.6229,2.6828,2.7296,2.7499,2.8267,2.903,2.9704,2.9909,3.0343,3.0986,3.0986,3.0986,3.0986,3.0986,3.0986,3.0986,3.0986,3.0986,3.0986,3.0986,3.0986,3.0986,3.0986,3.0986,3.1024,3.1061,3.1323,3.1703,3.178,3.2234,3.2756,3.257,3.2831,3.327,3.3422,3.3555,3.3799,3.4395,3.468,3.521,3.7063,3.7382,3.7486,3.8672,3.8227,3.7448,3.7256,3.6584,3.6243,3.7039,3.6387,3.6017,3.7039,3.6387,3.575,3.5977,3.579,3.5642,3.5669,3.6184,3.6752,3.7418,3.7971,3.8566,3.9251,3.9247,3.9258,3.9385,3.9215,3.9051,3.9004,3.9616,4.0056,4.0213,4.0775,4.1089,4.1089,4.1232,4.1311,4.1311,4.1311,4.1311,4.1311,4.1311,4.1311,4.1311,4.1311,4.1311,4.1311,4.1311,4.1311,4.1311,4.1311,4.1311,4.1311,4.1311,4.1311,4.1311,0.0,0.0,0.0,0.0,0.0,0.0,0.0,0.0,0.0,0.0,0.0,0.0,0.0,0.0,0.0,0.0,0.0,0.0,0.0,2.6343,2.6622,2.6622,2.7406,2.8119,2.8597,2.9303,2.9947,3.0419,3.0823,3.0986,3.0986,3.0986,3.0986,3.0986,3.0986,3.0986,3.0986,3.0986,3.0986,0.0,0.0,3.1365,3.1392,3.1742,3.212,3.2474,3.2565,3.3169,3.3921,3.3651,3.3661,3.3846,3.418,3.4287,3.4409,3.5005,3.5181,3.5553,3.7157,3.7256,3.7116,3.8017,3.7814,3.7333,3.6975,3.6559,3.6362,3.6819,3.6243,3.5831,3.6282,3.6017,3.571,3.571,3.571,3.571,3.571,3.6225,3.6836,3.7418,3.8014,3.8654,3.9237,3.9305,3.9505,3.9919,3.9731,3.9727,4.0025,4.0469,4.0834,4.0999,4.1277,4.1411,4.1311,4.1311,4.1311,4.1311,4.1311,4.1311,4.1311,4.1311,4.1311,4.1311,4.1411,4.1461,4.1461,4.1461,4.1547,4.1647,4.1411,4.1461,4.1647,4.1511,4.1547,4.1647,0.0,0.0,0.0,0.0,0.0,0.0,0.0,0.0,0.0,0.0,0.0,0.0,0.0,0.0,0.0,0.0,0.0,0.0,0.0,0.0,2.5895,2.5895,2.6622,2.7062,2.7185,2.8636,2.942,2.9537,3.0266,3.0697,3.0823,3.0823,3.0911,3.0986,3.0986,3.0986,3.0986,3.1065,3.1104,3.1143,3.168,3.1954,3.2045,0.0,3.3158,3.3473,3.3723,3.4281,3.4871,3.4712,3.4415,3.4233,3.4748,3.491,3.5005,3.5574,3.571,3.5871,3.6663,3.6819,3.678,3.6858,3.7319,3.7625,3.6883,3.6741,3.6741,3.6741,3.6177,3.571,3.571,3.571,3.571,3.571,3.571,3.571,3.571,3.6157,3.6741,3.7404,3.7946,3.8559,3.9237,3.9305,3.9576,4.0255,4.0081,4.0334,4.1194,4.1279,4.1462,4.167,4.1696,4.1547,4.1311,4.1311,4.1311,4.1311,4.1311,4.1311,4.1311,4.1311,4.1311,4.1311,4.1597,4.1749,4.1815,4.1815,4.2004,4.2269,4.1734,4.1884,4.2318,4.2021,4.212,4.2368,0.0,0.0,0.0,0.0,0.0,0.0,0.0,0.0,0.0,0.0,2.5654,2.5728,0.0,0.0,0.0,0.0,0.0,0.0,0.0,0.0,0.0,2.5895,2.6021,2.6467,2.7185,2.7499,2.7959,2.8624,2.8782,2.9225,2.9947,2.9947,3.0305,3.0986,3.0986,3.0986,3.1013,3.1445,3.1654,3.1706,3.2319,3.266,3.2817,3.2961,0.0,0.0,3.4848,3.5197,3.5332,3.544,3.5453,3.5385,3.5533,3.556,3.5574,3.5683,3.571,3.5871,3.6663,3.6401,3.6057,3.6741,3.6506,3.6084,3.5937,3.5897,3.5897,3.5897,3.579,3.571,3.571,3.571,3.571,3.571,3.571,3.571,3.571,3.5805,3.628,3.7363,3.758,3.8068,3.9197,3.9305,3.9766,4.0879,4.0914,4.1072,4.1495,4.1798,4.1874,4.1696,4.1696,4.1547,4.1311,4.1311,4.1311,4.1311,4.1311,4.1311,4.1311,4.1311,4.1311,4.1311,4.1597,4.196,4.2459,4.2435,4.2878,4.3544,4.2929,4.3083,4.3557,4.3302,4.3353,4.3608,0.0,0.0,0.0,0.0,0.0,0.0,0.0,2.5475,2.5422,2.5559,2.5601,2.5601,2.5549,2.5644,2.5728,0.0,0.0,0.0,0.0,0.0,0.0,2.5895,2.5895,2.6104,2.6498,2.6981,2.7377,2.777,0.0,2.8624,2.9018,2.9018,2.9386,3.0077,3.0077,3.0464,3.1148,3.1417,3.1861,3.2489,3.308,3.3423,3.3648,3.3953,0.0,0.0,3.5373,3.5562,3.5562,3.5669,3.571,3.571,3.571,3.571,3.571,3.571,3.571,3.579,3.6177,3.5977,3.579,3.6177,3.5977,3.571,3.571,3.571,3.571,3.571,3.571,3.571,3.571,3.571,3.571,3.571,3.571,3.571,3.571,3.571,3.6171,3.735,3.7485,3.7946,3.9183,3.9305,3.9807,4.1028,4.1123,4.1456,4.2255,4.2177,4.2029,4.1881,4.1647,4.1411,4.1311,4.1311,4.1311,4.1311,4.1311,4.1311,4.1311,4.1311,4.1481,4.1806,4.2208,4.2677,4.3194,4.322,4.3661,4.4235,4.3555,4.3709,4.4286,4.4017,4.4082,4.4337,0.0,0.0,0.0,0.0,0.0,0.0,0.0,2.5464,2.538,2.5559,2.5559,2.5422,2.52,2.5422,2.5601,0.0,0.0,0.0,0.0,0.0,0.0,0.0,0.0,0.0,2.5895,0.0,0.0,2.7069,2.7691,0.0,0.0,0.0,0.0,0.0,2.9424,3.0176,3.1605,3.1515,3.2147,0.0,0.0,3.4245,3.4527,0.0,0.0,0.0,0.0,3.571,3.571,3.571,3.571,3.571,3.571,3.571,3.571,3.571,3.571,3.571,3.571,3.571,3.571,3.571,3.571,3.571,3.571,3.571,3.571,3.571,3.571,3.571,3.571,3.571,3.571,3.571,3.571,3.571,3.571,3.571,3.6171,3.735,3.7485,3.7946,3.9183,3.9414,3.9943,4.1042,4.1354,4.191,4.2833,4.2435,4.2177,4.2079,4.1647,4.1361,4.1311,4.1311,4.1311,4.1311,4.1311,4.1376,4.1494,4.1494,4.1808,4.2408,4.2969,4.3491,4.3997,4.4062,4.4463,4.5034,4.425,4.4405,4.5034,4.4751,4.4854,4.5085,0.0,0.0,0.0,0.0,0.0,0.0,0.0,2.5686,2.5559,2.5601,2.538,2.5242,2.52,2.5422,2.5601,0.0,0.0,0.0,0.0,0.0,0.0,0.0,0.0,0.0,0.0,0.0,0.0,2.6647,2.6722,0.0,0.0,0.0,0.0,0.0,0.0,3.0848,3.2553,3.219,0.0,0.0,0.0,0.0,0.0,0.0,0.0,0.0,0.0,3.571,3.571,3.571,3.571,3.571,3.571,3.571,3.571,3.571,3.571,3.571,3.571,3.571,3.571,3.571,3.571,3.571,3.571,3.571,3.571,3.571,3.571,3.571,3.571,3.571,3.571,3.571,3.571,3.571,3.571,3.571,3.6171,3.735,3.7485,3.7946,3.9183,3.9794,4.039,4.1069,4.2127,4.2765,4.2873,4.2595,4.2351,4.2128,4.1845,4.1547,4.1311,4.1311,4.1311,4.1311,4.1311,4.1585,4.2146,4.2146,4.2396,4.2944,4.3487,4.4077,4.4662,4.4883,4.5545,4.6254,4.5661,4.5767,4.6306,4.5964,4.603,4.6306,0.0,0.0,0.0,0.0,0.0,0.0,2.6343,2.6487,2.6617,2.6617,2.6531,2.6433,2.6302,2.64,2.6217,2.5655,0.0,0.0,0.0,0.0,0.0,0.0,0.0,0.0,0.0,0.0,2.6846,2.7042,2.7042,0.0,0.0,0.0,0.0,0.0,0.0,2.9973,3.2045,3.1872,0.0,0.0,0.0,0.0,0.0,0.0,0.0,0.0,0.0,0.0,3.571,3.571,3.571,3.571,3.571,3.571,3.571,3.571,3.571,3.571,3.571,3.571,3.571,3.571,3.571,3.571,3.571,3.571,3.571,3.571,3.571,3.571,3.571,3.571,3.571,3.571,3.571,3.571,3.571,3.5602,3.6007,3.735,3.7414,3.7831,3.9183,3.9848,4.0594,4.1571,4.2412,4.2887,4.2887,4.2644,4.2449,4.2351,4.2092,4.1796,4.1547,4.1547,4.1461,4.1311,4.1664,4.1951,4.2224,4.2526,4.2997,4.3585,4.394,4.4532,4.5236,4.5355,4.5818,4.6469,4.602,4.6139,4.6469,4.635,4.6416,4.6469,0.0,0.0,0.0,0.0,0.0,2.6791,2.6791,2.7108,2.7315,2.7315,2.7315,2.7271,2.7094,2.7094,2.6823,2.6162,2.598,0.0,0.0,0.0,0.0,0.0,0.0,0.0,0.0,0.0,2.7381,2.7534,2.7534,2.7599,0.0,0.0,2.8051,2.8642,0.0,0.0,0.0,0.0,0.0,0.0,0.0,0.0,0.0,0.0,0.0,0.0,0.0,0.0,0.0,0.0,0.0,3.571,3.571,3.571,3.571,3.571,3.571,3.571,3.571,3.571,3.571,3.571,3.571,3.571,3.571,3.571,3.571,3.571,3.571,3.571,3.571,3.571,3.571,3.571,3.571,3.571,3.571,3.5602,3.6007,3.735,3.7371,3.7831,3.9183,4.0011,4.096,4.2181,4.2656,4.2887,4.2887,4.2693,4.2609,4.2511,4.2239,4.198,4.1696,4.1696,4.1547,4.1324,4.1886,4.2303,4.2448,4.301,4.3585,4.4121,4.444,4.4944,4.5595,4.5702,4.6034,4.6469,4.6245,4.6297,4.6469,4.6469,4.6469,4.6469,0.0,0.0,0.0,0.0,0.0,0.0,2.7304,2.7315,2.7315,2.7315,2.7315,2.7315,2.7315,2.7315,2.7304,2.7293,2.6927,0.0,0.0,0.0,0.0,0.0,0.0,0.0,0.0,0.0,2.7555,2.7991,2.7991,2.8276,2.8781,2.8781,2.9268,3.0158,0.0,0.0,0.0,0.0,0.0,0.0,0.0,0.0,0.0,0.0,0.0,0.0,0.0,0.0,0.0,0.0,0.0,0.0,0.0,3.571,3.571,3.571,3.571,3.571,3.571,3.571,3.571,3.571,3.571,3.571,3.571,3.571,3.571,3.571,3.571,3.571,3.571,3.571,3.571,3.571,3.571,3.571,3.571,3.571,3.6171,3.735,3.7485,3.796,3.9183,4.0404,4.1598,4.2792,4.2887,4.2887,4.2887,4.2887,4.279,4.2511,4.2239,4.198,4.1696,4.1696,4.1547,4.1324,4.1886,4.2461,4.3036,4.3611,4.4173,4.4722,4.5059,4.5341,4.5595,4.5914,4.6192,4.6469,4.6469,4.6469,4.6469,4.6469,4.6469,4.6469,0.0,0.0,0.0,0.0,0.0,0.0,0.0,2.8091,2.8344,2.8344,2.8344,2.8344,2.8344,2.8344,2.8344,2.8344,2.7304,0.0,0.0,0.0,0.0,0.0,0.0,0.0,0.0,2.8344,2.842,2.8528,2.8528,2.865,2.8803,2.8803,2.8978,2.9244,2.8932,2.9509,0.0,0.0,0.0,0.0,0.0,0.0,3.5521,0.0,0.0,0.0,0.0,0.0,0.0,0.0,0.0,0.0,0.0,0.0,0.0,3.571,3.571,3.571,3.571,3.571,3.571,3.571,3.571,3.571,3.571,3.571,3.571,3.571,3.571,3.571,3.571,3.571,3.571,3.571,3.571,3.571,3.571,3.5602,3.6007,3.735,3.8247,3.921,4.0431,4.0892,4.1612,4.2806,4.2887,4.2887,4.2887,4.2887,4.279,4.2511,4.24,4.2155,4.1696,4.1696,4.1745,4.1899,4.2474,4.3049,4.3624,4.4199,4.4552,4.4735,4.4789,4.5059,4.5341,4.5595,4.5914,4.6192,4.6416,4.6469,4.6469,4.6469,4.6469,4.6469,0.0,0.0,0.0,0.0,0.0,0.0,0.0,2.8606,2.8803,2.8803,2.8803,2.8803,2.8803,2.8803,2.8803,2.8803,2.7845,0.0,0.0,0.0,0.0,0.0,0.0,0.0,2.8466,2.8513,2.856,2.8664,2.8664,2.871,2.8803,2.8803,2.8803,2.8803,2.8803,2.9106,0.0,0.0,0.0,0.0,0.0,0.0,3.4909,0.0,0.0,0.0,0.0,0.0,0.0,0.0,0.0,0.0,0.0,0.0,0.0,0.0,3.571,3.571,3.571,3.571,3.571,3.571,3.571,3.571,3.571,3.571,3.571,3.571,3.571,3.571,3.571,3.571,3.571,3.571,3.571,3.571,3.571,3.5602,3.6007,3.735,3.8586,3.978,4.1001,4.1123,4.1612,4.2806,4.2887,4.2887,4.2887,4.279,4.2644,4.2351,4.2449,4.2253,4.1696,4.1696,4.1887,4.2224,4.2748,4.3323,4.3939,4.446,4.4668,4.4668,4.4668,4.4951,0.0,4.5555,4.5755,4.6007,4.635,4.6416,4.6297,4.6469,4.6469,4.6469,0.0,0.0,0.0,0.0,0.0,0.0,0.0,2.8803,2.8803,2.8803,2.8803,2.8803,2.8803,2.8803,2.8803,2.8803,0.0,0.0,0.0,0.0,0.0,0.0,0.0,0.0,2.7998,2.7998,2.8139,2.8395,2.8395,2.8535,2.8803,2.8803,2.8803,2.8803,2.8803,2.8803,2.885,0.0,0.0,0.0,0.0,0.0,0.0,0.0,0.0,0.0,0.0,0.0,0.0,0.0,0.0,0.0,0.0,0.0,0.0,0.0,0.0,0.0,0.0,3.571,3.571,3.571,3.571,3.571,3.571,3.571,0.0,3.571,3.571,3.571,3.571,3.571,3.571,3.571,3.571,3.571,3.571,3.5791,3.6225,3.7363,3.8586,3.978,4.1001,4.1123,4.1612,4.2806,4.2887,4.2887,4.2887,4.2644,4.2351,4.2079,4.2302,4.2204,4.1696,4.1647,4.185,4.2224,4.2748,4.3323,4.3939,4.446,4.4668,4.4668,4.4668,4.5005,4.5555,4.5542,4.5702,4.5967,4.6297,4.6297,4.602,4.6364,4.6469,4.6469,0.0,0.0,0.0,0.0,0.0,0.0,0.0,0.0,0.0,0.0,2.8803,2.8803,2.8803,2.8803,2.8803,0.0,0.0,0.0,0.0,0.0,0.0,0.0,0.0,0.0,2.7998,2.7998,2.8139,2.8395,2.8395,2.8535,2.8803,2.8803,2.8803,2.8803,2.8803,2.8803,2.8803,2.9024,0.0,0.0,0.0,0.0,0.0,0.0,0.0,0.0,3.571,3.571,0.0,0.0,0.0,0.0,0.0,0.0,0.0,0.0,3.571,3.571,3.571,0.0,3.571,3.571,3.571,3.571,0.0,3.571,3.571,3.571,3.571,3.571,3.571,3.571,3.571,3.571,3.571,3.571,3.571,3.6469,3.7174,3.7458,3.8586,3.978,4.1001,4.1123,4.1612,4.2806,4.2887,4.279,4.2609,4.2511,4.2302,4.1796,4.1845,4.1759,4.1411,4.1411,4.1649,4.2224,4.2748,4.3323,4.3939,4.446,4.4668,4.4668,4.4668,4.4789,4.4951,4.518,4.5341,4.5448,4.5914,4.6073,4.602,4.6364,4.6469,4.6469,0.0,0.0,0.0,0.0,0.0,0.0,0.0,0.0,0.0,0.0,0.0,2.8803,0.0,0.0,0.0,0.0,0.0,0.0,0.0,0.0,0.0,0.0,0.0,2.7536,2.7678,2.7762,2.7961,2.8243,2.8348,2.8535,2.8803,2.8803,2.8803,2.8803,2.8803,2.8803,2.8803,2.8803,2.9152,0.0,3.017,0.0,0.0,0.0,0.0,0.0,3.571,3.571,0.0,3.5345,3.5467,3.5642,0.0,0.0,0.0,0.0,3.571,3.571,3.571,3.571,3.571,3.571,3.571,3.571,3.571,3.571,3.571,3.571,3.571,3.571,3.571,3.571,3.571,3.571,3.571,3.5818,3.6076,3.6805,3.7509,3.7865,3.8648,3.9631,4.0955,4.1123,4.1612,4.2806,4.2887,4.279,4.2511,4.24,4.2141,4.1696,4.1597,4.1461,4.1311,4.1311,4.1598,4.2224,4.2748,4.3323,4.3939,4.446,4.4668,4.4668,4.4668,4.4789,4.4951,4.5126,4.518,4.5234,4.5649,4.5808,4.5861,4.6139,4.6364,4.6469,0.0,0.0,0.0,0.0,0.0,0.0,0.0,0.0,0.0,0.0,0.0,0.0,0.0,0.0,0.0,0.0,0.0,0.0,0.0,0.0,0.0,0.0,2.7584,2.7309,2.7309,2.7499,2.7726,2.7998,2.8243,2.8535,2.8803,2.8803,2.8803,2.8803,2.8803,2.8803,2.8803,2.8803,2.8803,2.8896,2.976,0.0,0.0,0.0,0.0,0.0,0.0,0.0,0.0,3.5046,3.5209,3.5588,3.5046,0.0,0.0,0.0,0.0,0.0,3.571,3.571,3.571,3.571,3.571,3.571,3.571,3.571,3.571,3.571,3.571,3.571,3.571,3.571,3.571,3.571,3.571,3.5927,3.6524,3.6966,3.7545,3.8312,3.8735,3.9487,4.0773,4.1009,4.1571,4.2608,4.2784,4.2741,4.2449,4.219,4.1931,4.1647,4.1411,4.1311,4.1311,4.1311,4.1559,4.2094,4.2618,4.3193,4.3755,4.4343,4.4643,4.4668,4.4668,4.4843,4.5126,4.5126,4.5126,4.5126,4.5448,4.5555,4.5595,4.5914,4.6126,4.6364,0.0,0.0,0.0,0.0,0.0,0.0,0.0,0.0,0.0,0.0,0.0,0.0,0.0,0.0,0.0,0.0,0.0,0.0,0.0,0.0,0.0,2.7987,2.7715,2.7489,2.7309,2.7499,2.7726,2.7998,2.8243,2.8535,2.8803,2.8803,2.8803,2.8803,2.8803,2.8803,2.8803,2.8803,2.8803,2.885,2.9393,0.0,0.0,0.0,0.0,0.0,0.0,0.0,0.0,3.5588,3.5588,3.5669,3.5588,0.0,0.0,0.0,0.0,0.0,3.571,3.571,3.571,3.571,3.571,3.571,3.571,3.571,3.571,3.571,3.571,3.571,3.571,3.571,3.571,3.571,3.571,3.5927,3.6524,3.7092,3.7673,3.8298,3.8895,3.9429,3.9949,4.0673,4.1301,4.1773,4.225,4.2449,4.2177,4.1895,4.1647,4.1361,4.1311,4.1311,4.1311,4.1311,4.1363,4.1455,4.203,4.2605,4.3167,4.3742,4.4264,4.4668,4.4668,4.4735,4.4789,4.4789,4.4789,4.4789,4.5126,4.5234,4.5341,4.5808,4.5914,4.5755,0.0,0.0,0.0,0.0,0.0,0.0,0.0,0.0,0.0,0.0,0.0,0.0,0.0,0.0,0.0,0.0,0.0,0.0,0.0,0.0,2.8477,2.8243,2.8102,2.7867,2.7452,2.7831,2.8102,2.8243,2.8477,2.8664,2.8803,2.8803,2.8803,2.8803,2.8803,2.8803,2.8803,2.8803,2.8803,2.885,0.0,0.0,0.0,0.0,0.0,0.0,0.0,0.0,0.0,0.0,3.484,3.5087,3.4716,0.0,0.0,0.0,0.0,0.0,3.571,3.571,3.571,3.571,3.571,3.571,3.571,3.571,3.571,3.571,3.571,3.571,3.571,3.571,3.571,3.571,3.571,3.6035,3.6971,3.7225,3.7709,3.8746,3.8996,3.9253,3.9769,4.0466,4.1012,4.1352,4.1954,4.219,4.1881,4.1796,4.1597,4.1311,4.1311,4.1311,4.1311,4.1311,4.1311,4.1324,4.1886,4.2355,4.2592,4.3467,4.4016,4.4278,4.4591,4.4668,4.4668,4.4668,4.4668,4.4735,4.4897,4.5018,4.5234,4.5649,4.5914,4.6086,0.0,0.0,0.0,0.0,0.0,0.0,0.0,0.0,0.0,0.0,0.0,0.0,0.0,0.0,0.0,0.0,0.0,0.0,0.0,2.8757,2.8617,2.8395,2.8395,2.8207,2.7726,2.816,2.8395,2.8395,2.8664,2.8803,2.8803,2.8803,2.8803,2.8803,2.8803,2.8803,2.8803,2.8803,2.8803,2.885,0.0,0.0,0.0,0.0,0.0,0.0,0.0,0.0,0.0,0.0,0.0,0.0,0.0,0.0,0.0,3.5507,3.571,3.571,3.571,3.571,3.571,3.571,3.571,3.571,3.571,3.571,3.571,3.571,3.571,3.571,3.571,3.571,3.571,3.571,3.5832,3.6307,3.7336,3.7479,3.7909,3.9183,3.9114,3.9141,3.9489,4.0233,4.0757,4.0925,4.1568,4.1931,4.1696,4.1647,4.1511,4.1311,4.1311,4.1311,4.1311,4.1311,4.1311,4.1324,4.1755,4.2081,4.2251,4.3127,4.3546,4.3702,4.4278,4.4526,4.4539,4.4737,4.4789,4.4722,4.4789,4.5005,4.5287,4.5395,4.5875,4.6416,0.0,0.0,0.0,0.0,0.0,0.0,0.0,0.0,0.0,0.0,0.0,0.0,0.0,0.0,0.0,0.0,0.0,0.0,0.0,2.8571,2.8441,2.8395,2.8395,2.8243,2.7998,2.8243,2.8395,2.8395,2.8664,2.8803,2.8803,2.8803,2.8803,2.8803,2.8803,2.8803,2.8803,2.8803,2.8803,2.885,2.9301,0.0,0.0,0.0,0.0,0.0,0.0,0.0,0.0,0.0,0.0,0.0,0.0,0.0,3.484,3.5507,3.571,3.571,3.571,3.571,3.571,3.571,3.571,3.571,3.571,3.571,3.571,3.571,3.571,3.571,3.571,3.571,3.571,3.571,3.6171,3.6768,3.7404,3.796,3.8542,3.9224,3.9292,3.9096,3.8701,3.9913,4.0549,4.0129,4.1112,4.1696,4.1696,4.1461,4.1311,4.1311,4.1311,4.1311,4.1311,4.1311,4.1311,4.1311,4.135,4.1651,4.2211,4.2303,4.2579,4.3114,4.3689,4.3938,4.403,4.4849,4.4964,4.4735,4.5018,4.5341,4.5502,4.4951,4.5488,4.6416,0.0,0.0,0.0,0.0,0.0,0.0,0.0,0.0,0.0,0.0,0.0,0.0,0.0,0.0,0.0,0.0,0.0,0.0,0.0,2.8535,2.8488,2.8617,2.8488,2.8441,2.8513,2.8617,2.8664,2.8664,2.8757,2.8803,2.8803,2.8803,2.8803,2.8803,2.8803,2.8803,2.8803,2.8803,2.8803,2.8803,2.8978,2.9255,0.0,0.0,0.0,0.0,0.0,0.0,0.0,0.0,3.3086,3.3129,3.3386,3.3471,3.367,3.4758,3.5087,3.5182,3.5588,3.571,3.571,3.571,3.571,3.571,3.571,3.571,3.571,3.571,3.571,3.571,3.571,3.571,3.571,3.571,3.6212,3.6822,3.7404,3.8,3.864,3.9237,3.9305,3.9127,3.8647,3.9701,4.0253,3.979,4.0805,4.1461,4.1461,4.1361,4.1311,4.1311,4.1311,4.1311,4.1311,4.1311,4.1311,4.1311,4.1311,4.1428,4.1651,4.2004,4.2291,4.2513,4.3101,4.3441,4.3612,4.3743,4.3888,4.3953,4.4428,4.4732,4.4825,4.4981,4.5488,4.6126,0.0,0.0,0.0,0.0,0.0,0.0,0.0,0.0,0.0,0.0,0.0,0.0,0.0,0.0,0.0,0.0,0.0,0.0,2.8803,2.8535,2.8535,2.8803,2.8524,2.8535,2.8803,2.8803,2.8803,2.8803,2.8803,2.8803,2.8803,2.8803,2.8803,2.8803,2.8803,2.8803,2.8803,2.8803,2.8803,2.8803,2.8803,2.8978,0.0,0.0,0.0,0.0,0.0,0.0,0.0,0.0,3.2363,3.2407,3.2624,3.2711,3.2957,3.4301,3.4716,3.484,3.5507,3.571,3.571,3.571,3.571,3.571,3.571,3.571,3.571,3.571,3.571,3.571,3.571,3.571,3.571,3.571,3.6375,3.7053,3.7431,3.8163,3.8844,3.9251,3.9203,3.9024,3.8647,3.9562,4.0002,3.9612,4.0671,4.1311,4.1311,4.1311,4.1311,4.1311,4.1311,4.1311,4.1311,4.1311,4.1311,4.1311,4.1311,4.1311,4.1324,4.1716,4.1899,4.1925,4.2616,4.2904,4.3007,4.3191,4.3373,4.3555,4.3795,4.4058,4.432,4.4534,4.5169,4.5856,0.0,0.0,0.0,0.0,0.0,0.0,0.0,0.0,0.0,0.0,0.0,0.0,0.0,0.0,0.0,0.0,0.0,0.0,2.8803,2.8535,2.8535,2.8803,2.8524,2.8535,2.8803,2.8803,2.8803,2.8803,2.8803,2.8803,2.8803,2.8803,2.8803,2.8803,2.8803,2.8803,2.8803,2.8803,2.8803,2.8803,2.8803,2.8803,2.885,0.0,0.0,0.0,0.0,0.0,0.0,0.0,3.1705,3.1793,3.2494,3.2667,3.2957,3.4301,3.4675,3.484,3.5507,3.5669,3.5669,3.571,3.571,3.571,3.571,3.571,3.571,3.571,3.571,3.571,3.571,3.571,3.571,3.5723,3.6699,3.7485,3.7499,3.8559,3.9305,3.9305,3.9056,3.8832,3.8602,3.9409,3.9799,3.9612,4.0657,4.1311,4.1311,4.1311,4.1311,4.1311,4.1311,4.1311,4.1311,4.1311,4.1311,4.1311,4.1311,4.1311,4.1311,4.1311,4.1311,4.135,4.2192,4.2428,4.2302,4.3366,4.3797,4.3694,4.3205,4.3477,4.4106,4.358,4.4313,4.5522,0.0,0.0,0.0,0.0,0.0,0.0,0.0,0.0,0.0,0.0,0.0,0.0,0.0,0.0,0.0,0.0,0.0,0.0,2.8803,2.8535,2.8535,2.8803,2.8524,2.8535,2.8803,2.8803,2.8803,2.8803,2.8803,2.8803,2.8803,2.8803,2.8803,2.8803,2.8803,2.8803,2.8803,2.8803,2.8803,2.8803,2.8803,2.8803,2.8803,0.0,0.0,0.0,0.0,0.0,0.0,0.0,0.0,0.0,3.1793,3.2013,3.2189,3.3043,3.33,3.3543,3.4675,3.5005,3.5087,3.5588,3.571,3.571,3.571,3.571,3.571,3.571,3.571,3.571,3.571,3.571,3.5859,3.6266,3.697,3.7634,3.8055,3.8817,3.9305,3.9305,3.9247,3.9069,3.8832,3.9241,3.9634,3.982,4.0363,4.0867,4.1298,4.1311,4.1311,4.1311,4.1311,4.1311,4.1311,4.1311,4.1311,4.1311,4.1311,4.1311,4.1311,4.1311,4.1311,4.1324,4.1557,4.1773,4.1874,4.2182,4.2211,4.2113,4.2558,4.2882,4.3101,4.3358,4.397,4.4633,0.0,0.0,0.0,0.0,0.0,0.0,0.0,0.0,0.0,0.0,2.8803,2.8803,0.0,0.0,0.0,0.0,0.0,0.0,0.0,2.8664,2.8617,2.8803,2.8675,2.8617,2.8803,2.8803,2.8803,2.8803,2.8803,2.8803,2.8803,2.8803,2.8803,2.8803,2.8803,2.8803,2.8803,2.8803,2.8803,2.8803,2.8803,2.8803,2.8803,0.0,0.0,0.0,0.0,0.0,0.0,0.0,0.0,0.0,3.1306,3.1528,3.1881,3.2828,3.3086,3.3386,3.4716,3.5087,3.5168,3.5588,3.571,3.571,3.571,3.571,3.571,3.571,3.571,3.571,3.571,3.571,3.5913,3.6497,3.7121,3.7702,3.8342,3.8925,3.9305,3.9305,3.9203,3.9056,3.8908,3.9219,3.9435,3.9572,4.0303,4.0775,4.0932,4.128,4.1411,4.1311,4.1311,4.1311,4.1311,4.1311,4.1311,4.1311,4.1311,4.1311,4.1311,4.1311,4.1311,4.1311,4.1311,4.1461,4.1696,4.1597,4.1511,4.1487,4.1929,4.2224,4.2428,4.2684,4.3165,4.3801,0.0,0.0,0.0,0.0,0.0,0.0,0.0,0.0,0.0,0.0,2.8803,2.8803,0.0,0.0,0.0,0.0,0.0,0.0,0.0,2.8803,2.8803,2.8803,2.8803,2.8803,2.8803,2.8803,2.8803,2.8803,2.8803,2.8803,2.8803,2.8803,2.8803,2.8803,2.8803,2.8803,2.8803,2.8803,2.8803,2.8803,2.8803,2.8803,2.8803,2.8803,0.0,0.0,0.0,0.0,0.0,0.0,0.0,0.0,3.0859,3.1217,3.1825,3.3116,3.3543,3.3839,3.5182,3.5548,3.5629,3.5669,3.571,3.571,3.571,3.571,3.571,3.571,3.571,3.571,3.571,3.571,3.5927,3.6578,3.7161,3.7716,3.841,3.8952,3.9305,3.9305,3.91,3.8953,3.8953,3.9165,3.9296,3.9144,4.0351,4.0905,4.0507,4.1268,4.1597,4.1361,4.1361,4.1311,4.1311,4.1311,4.1311,4.1311,4.1311,4.1311,4.1311,4.1311,4.1311,4.1311,4.1311,4.1461,4.1647,4.1411,4.1461,4.1647,4.1411,4.1597,4.2029,4.1746,4.2189,4.2984,0.0,0.0,0.0,0.0,0.0,0.0,0.0,0.0,0.0,0.0,0.0,0.0,0.0,0.0,0.0,0.0,0.0,0.0,0.0,2.8803,2.8803,2.8803,2.8803,2.8803,2.8803,2.8803,2.8803,2.8803,2.8803,2.8803,2.8803,2.8803,2.8803,2.8803,2.8803,2.8803,2.8803,2.8803,2.8803,2.8803,2.8803,2.8803,2.8803,2.8803,2.9071,0.0,0.0,0.0,0.0,0.0,0.0,0.0,3.0679,3.0713,3.0713,3.1825,3.2251,3.263,3.3827,3.4509,3.5046,3.5548,3.571,3.571,3.571,3.571,3.571,3.571,3.571,3.571,3.571,3.571,3.6076,3.7119,3.7404,3.7865,3.8952,3.9224,3.9305,3.9305,3.9247,3.9203,3.9203,3.9074,3.9208,3.9612,3.9966,4.042,4.0993,4.1478,4.1647,4.1597,4.1597,4.1511,4.1311,4.1311,4.1311,4.1311,4.1311,4.1311,4.1311,4.1311,4.1311,4.1311,4.1311,4.1311,4.1361,4.1311,4.1311,4.1361,4.1311,4.1511,4.1746,4.1461,4.1776,4.2358,0.0,0.0,0.0,0.0,0.0,0.0,0.0,0.0,0.0,0.0,0.0,0.0,0.0,0.0,0.0,0.0,0.0,0.0,0.0,0.0,2.8803,2.8803,2.8803,2.8803,2.8803,2.8803,2.8803,2.8803,2.8803,2.8803,2.8803,2.8803,2.8803,2.8803,2.8803,2.8803,2.8803,2.8803,2.8803,2.8803,2.8803,2.8803,2.8803,2.8803,2.8932,2.9117,2.8896,0.0,0.0,0.0,0.0,0.0,0.0,0.0,3.0713,3.1605,3.1713,3.1952,3.342,3.4024,3.4454,3.5345,3.5642,3.571,3.571,3.571,3.5669,3.5602,3.5642,3.571,3.571,3.571,3.6117,3.7296,3.7485,3.7905,3.9129,3.9305,3.9305,3.9305,3.9305,3.9305,3.9305,3.9145,3.919,3.9365,3.9792,4.0121,4.0347,4.1186,4.1519,4.1287,4.1551,4.1547,4.1311,4.1311,4.1311,4.1311,4.1311,4.1311,4.1311,4.1311,4.1311,4.1311,4.1311,4.1311,4.1311,4.1311,4.1311,4.1311,4.1311,4.1411,4.1511,4.1361,4.1461,4.1776,0.0,0.0,0.0,0.0,0.0,0.0,0.0,0.0,0.0,0.0,0.0,0.0,0.0,0.0,0.0,0.0,0.0,0.0,0.0,0.0,0.0,2.8803,2.8803,2.8803,2.8803,2.8803,2.885,2.8932,2.8932,2.8932,2.8932,2.885,2.8803,2.8803,2.8803,2.8803,2.8803,2.8803,2.8803,2.8803,2.8803,2.8803,2.8814,2.8891,2.8924,2.8924,2.8924,2.8924,2.8959,2.9381,0.0,0.0,0.0,0.0,3.0802,3.1593,3.1512,3.1565,3.3212,3.3746,3.4066,3.5141,3.5521,3.5669,3.5669,3.571,3.5642,3.548,3.5602,3.5669,3.5642,3.5669,3.6076,3.7147,3.7418,3.7878,3.8993,3.9237,3.9305,3.9305,3.9305,3.9305,3.9305,3.9305,3.9203,3.9011,3.9699,3.9959,3.9566,4.0737,4.1298,4.0971,4.1399,4.1541,4.1361,4.1311,4.1311,4.1311,4.1311,4.1311,4.1311,4.1311,4.1311,4.1311,4.1311,4.1311,4.1311,4.1311,4.1311,4.1311,4.1311,4.1311,4.1311,4.1311,4.1311,4.1376,0.0,0.0,0.0,0.0,0.0,0.0,0.0,0.0,0.0,0.0,2.8803,2.8803,0.0,0.0,0.0,0.0,0.0,0.0,2.8803,0.0,0.0,2.8803,2.8803,2.8803,2.8803,2.8803,2.8989,2.9393,2.9393,2.9393,2.9393,2.8978,2.8803,2.8803,2.8803,2.8803,2.8803,2.8803,2.8803,2.8803,2.8803,2.8803,2.8847,2.9274,2.9438,2.9438,2.9438,2.9438,2.942,2.9492,2.9531,0.0,0.0,0.0,2.9852,3.0802,3.1125,3.1356,3.2096,3.3275,3.4468,3.5236,3.544,3.548,3.5669,3.571,3.5669,3.5669,3.5669,3.5642,3.548,3.5602,3.594,3.6619,3.7175,3.7729,3.8437,3.8979,3.9305,3.9305,3.9305,3.9305,3.9305,3.9305,3.9305,3.9247,3.9622,3.9914,4.0083,4.0547,4.1012,4.1474,4.1328,4.1378,4.1647,4.1411,4.1311,4.1311,4.1311,4.1311,4.1311,4.1311,4.1311,4.1311,4.1311,4.1311,4.1311,4.1311,4.1311,4.1311,4.1311,4.1311,4.1311,4.1311,4.1311,4.1324,0.0,0.0,0.0,0.0,0.0,0.0,0.0,0.0,0.0,0.0,0.0,2.8581,0.0,0.0,0.0,2.8524,2.8055,2.7857,2.8128,2.8117,2.8315,2.8803,2.8803,2.8932,2.9209,2.9209,2.9439,2.9897,2.9897,2.9897,2.9897,2.9669,2.9301,2.8803,2.8803,2.8803,2.8825,2.9088,2.9208,2.923,2.9467,2.9756,3.0016,2.995,3.0086,3.0315,2.9989,2.9893,2.9908,3.0214,3.0278,3.042,3.1112,0.0,0.0,0.0,3.0399,3.04,3.1163,3.2649,3.4121,3.4564,3.4949,3.5277,3.5358,3.544,3.5521,3.5399,3.544,3.5521,3.544,3.548,3.571,3.6345,3.6752,3.7338,3.8288,3.864,3.8925,3.9264,3.9305,3.9305,3.9305,3.9305,3.9247,3.91,3.9357,3.9474,3.9293,3.9857,4.0194,4.018,4.0418,4.0663,4.0949,4.0851,4.0984,4.1311,4.1461,4.1511,4.1511,4.1511,4.1461,4.1311,4.1311,4.1311,4.1311,4.1311,4.1311,4.1311,4.1311,4.1311,4.1311,4.1311,4.1311,4.1311,0.0,0.0,0.0,0.0,0.0,0.0,0.0,0.0,0.0,0.0,0.0,0.0,0.0,0.0,0.0,0.0,2.7373,2.7173,2.7589,2.7589,2.7977,2.8746,2.8896,2.9117,2.9485,2.9623,2.9897,3.0397,3.0397,3.0397,3.0397,3.0261,2.9828,2.9176,2.9176,2.9083,2.9022,2.9467,2.9674,2.9696,3.0213,3.0637,3.0975,3.0829,3.1009,3.13,3.0776,3.0591,3.0618,3.0827,3.0879,3.0975,3.154,3.1312,0.0,0.0,0.0,3.003,3.088,3.2103,3.3323,3.3973,3.4195,3.4452,3.5135,3.5124,3.5018,3.5154,3.5195,3.5277,3.5318,3.5318,3.5465,3.5936,3.6262,3.6792,3.7741,3.809,3.8398,3.8932,3.9077,3.9127,3.9127,3.9127,3.9024,3.8832,3.9024,3.8948,3.8602,3.9184,3.94,3.9203,3.958,3.9925,4.0297,4.0344,4.0644,4.1201,4.1531,4.1696,4.1696,4.1696,4.1547,4.1311,4.1311,4.1311,4.1311,4.1311,4.1311,4.1311,4.1311,4.1311,4.1311,4.1311,4.1311,4.1311,0.0,0.0,0.0,0.0,0.0,0.0,0.0,0.0,0.0,0.0,0.0,0.0,2.579,2.5848,2.6051,2.6552,2.6552,2.6839,2.7542,2.7589,2.7977,2.8746,2.922,0.0,2.9485,2.9943,3.0397,3.0859,3.0859,3.0859,3.0847,3.0397,3.0147,3.0144,3.0144,2.9872,2.9478,2.9969,3.0177,3.0225,3.0722,3.0964,3.1117,3.2028,3.2394,3.2345,3.1818,3.1621,3.1553,3.1035,3.0879,3.0975,3.154,3.1312,3.0879,0.0,0.0,0.0,3.1414,3.163,3.2132,3.3784,3.314,3.2736,3.5289,3.4763,3.4095,3.5141,3.5086,3.488,3.5086,3.5127,3.5127,3.5167,3.5675,3.6133,3.6354,3.7163,3.7842,3.8115,3.8434,3.8647,3.8647,3.8647,3.8647,3.8602,3.8647,3.8647,3.8602,3.8629,3.8895,3.9455,3.9276,3.944,4.0008,4.0245,4.0533,4.0843,4.1433,4.1696,4.1696,4.1696,4.1547,4.1311,4.1311,4.1311,4.1311,4.1311,4.1311,4.1311,4.1311,4.1311,4.1311,4.1311,4.1311,4.1311,0.0,0.0,0.0,0.0,0.0,0.0,0.0,0.0,0.0,0.0,0.0,0.0,0.0,2.5859,2.6015,2.6585,2.6556,2.6854,2.7686,2.7736,2.8161,2.919,2.9686,2.9949,2.9943,3.0397,3.0892,3.1395,3.1395,3.1574,3.1931,3.1397,3.1159,3.1113,3.0181,2.9796,2.998,3.045,3.0646,3.0729,3.1572,3.1894,3.1966,3.2284,3.2662,3.2872,3.2363,3.2163,3.214,3.1911,3.1606,3.1356,3.1556,3.1506,3.1301,3.0982,3.0684,3.0555,3.1027,3.1385,3.1833,3.2737,3.2777,3.2874,3.3838,3.4274,3.4589,3.4994,3.495,3.499,3.5376,3.5131,3.4921,3.4921,3.5217,3.5553,3.6066,3.6396,3.6943,3.7735,3.7927,3.8163,3.8562,3.8602,3.8557,3.8349,3.8498,3.8466,3.8161,3.8285,3.8364,3.8464,3.8385,3.8601,3.9165,3.966,4.0131,4.052,4.0939,4.134,4.1696,4.1696,4.1647,4.1547,4.1361,4.1311,4.1311,4.1311,4.1311,4.1311,4.1311,4.1311,4.1311,4.1311,4.1311,4.1311,0.0,0.0,0.0,0.0,0.0,0.0,0.0,0.0,0.0,2.5538,0.0,0.0,0.0,0.0,2.5413,2.6201,2.641,2.6912,2.7713,2.8076,2.87,2.9692,3.0197,3.0514,3.0686,3.118,3.1693,3.2259,3.2259,3.2406,3.2767,3.2041,3.1773,3.1865,3.0574,3.0133,3.0472,3.0941,3.1138,3.1221,3.2085,3.2409,3.242,3.2622,3.2885,3.3147,3.2784,3.2672,3.2672,3.2672,3.2432,3.2128,3.1924,3.1721,3.1564,3.1236,3.0919,3.0696,3.0876,3.1151,3.1516,3.2213,3.2228,3.23,3.3112,3.3574,3.3912,3.4334,3.4334,3.4402,3.4804,3.4792,3.4728,3.4684,3.4784,3.504,3.5522,3.5706,3.6074,3.6887,3.7281,3.7634,3.8045,3.827,3.8285,3.8089,3.8239,3.8207,3.79,3.8011,3.8057,3.79,3.79,3.807,3.8436,3.9024,3.9529,3.9979,4.0544,4.0988,4.1406,4.1604,4.1647,4.1547,4.1361,4.1311,4.1311,4.1311,4.1311,4.1311,4.1311,4.1311,4.1311,4.1311,4.1311,4.1261,0.0,0.0,0.0,0.0,0.0,0.0,0.0,0.0,2.5314,2.4205,0.0,0.0,0.0,0.0,0.0,2.5295,2.6149,2.6941,2.7763,2.8588,2.9395,3.0133,3.0659,3.1179,3.1683,3.2253,3.2794,3.3284,3.3284,3.3296,3.3262,3.2241,3.1959,3.238,3.1357,3.0919,3.0952,3.1422,3.1618,3.1669,3.2167,3.2409,3.2409,3.2985,3.3197,3.3197,3.3197,3.3197,3.3197,3.3197,3.3197,3.3097,3.2572,3.2015,3.1618,3.1618,3.1618,3.152,0.0,0.0,0.0,3.2222,3.1345,3.0889,3.3291,3.2698,3.1969,3.3131,3.3178,3.3085,3.3339,3.4053,3.447,3.438,3.4408,3.4533,3.4809,3.5128,3.5411,3.5637,3.645,3.7011,3.7024,3.756,3.79,3.79,3.79,3.79,3.79,3.79,3.79,3.79,3.79,3.79,3.79,3.8423,3.8824,3.9084,4.0184,4.0751,4.0803,4.137,4.1484,4.1261,4.1261,4.1261,4.1261,4.1261,4.1311,4.1311,4.1311,4.1311,4.1311,4.1311,4.1261,4.1097,0.0,0.0,0.0,0.0,0.0,2.7051,2.547,2.5347,2.4998,0.0,0.0,0.0,2.4695,2.5117,2.5263,2.4998,2.5955,2.6912,2.7732,2.8006,2.8651,2.9772,3.0679,3.13,3.1695,3.2606,3.3133,3.3284,3.3284,3.3289,3.3208,3.2549,3.2279,3.2358,3.1715,3.1422,3.1433,3.1564,3.1618,3.1669,3.2167,3.2167,3.1874,3.242,3.2622,3.2622,3.2622,3.2885,3.3197,3.3197,3.2935,3.2521,3.1964,3.1721,3.1618,3.1618,3.1618,3.1545,3.1455,0.0,0.0,0.0,0.0,0.0,3.2074,3.2494,3.2825,3.3168,3.3217,3.3295,3.3671,3.3315,3.3043,3.3341,3.4641,3.5682,3.5725,3.5826,3.6044,3.6564,3.6847,3.7168,3.7612,3.7808,3.79,3.79,3.79,3.79,3.79,3.79,3.79,3.79,3.79,3.79,3.79,3.8057,3.8364,3.8804,3.9131,3.9721,4.0533,4.069,4.0532,4.0147,4.0933,4.0833,4.0134,4.0946,4.1311,4.1311,4.1311,4.1311,4.1311,4.1311,4.0782,4.0032,0.0,0.0,0.0,2.7589,2.7458,2.6709,2.4616,2.4898,2.4928,0.0,0.0,0.0,2.4595,2.5568,2.6018,2.5606,2.65,2.7314,2.777,2.8145,2.8665,2.9405,2.9991,3.0666,3.1459,3.234,3.2943,3.3266,3.3494,3.3456,3.3203,3.2628,3.2379,3.237,3.1823,3.1618,3.1618,3.1618,3.1618,3.1618,3.1913,3.1874,3.1618,3.1975,3.2218,3.2409,3.2409,3.2723,3.3197,3.3197,3.2835,3.237,3.228,3.1975,3.1618,3.1618,3.1618,3.1618,3.1618,3.1618,3.1618,3.1618,0.0,0.0,3.1618,3.2066,3.251,3.251,3.251,3.2621,3.2897,3.2791,3.2748,3.3027,3.4495,3.536,3.4893,3.52,3.5608,3.5955,3.6573,3.7187,3.7644,3.7815,3.7933,3.8011,3.7946,3.7703,3.7261,3.6828,3.6781,3.7214,3.7214,3.7459,3.79,3.79,3.7813,3.7724,3.7955,3.8418,3.9061,3.9079,3.9159,3.927,3.9714,3.9494,3.8963,3.9597,4.0465,4.1311,4.1311,4.0997,4.0567,4.0567,3.9866,3.8807,0.0,0.0,2.8034,2.6802,2.6794,2.6123,2.3776,2.4548,2.4917,0.0,2.3827,2.4191,2.4578,2.5597,2.6318,2.6409,2.7098,2.7618,2.7672,2.8402,2.888,2.8933,2.9029,2.9713,3.1187,3.1728,3.2398,3.3197,3.3694,3.3595,3.2996,3.2572,3.2258,3.1993,3.1721,3.1567,3.1465,3.1578,3.1618,3.1618,3.1618,3.1618,3.1618,3.1618,3.1924,3.2319,3.2319,3.2684,3.3097,3.3097,3.2773,3.2471,3.2885,3.2381,3.1618,3.1618,3.1618,3.1618,3.1618,3.1618,3.1618,3.1618,3.1618,0.0,3.1618,3.1618,3.1618,3.1618,3.1618,3.1618,3.1618,3.237,3.3001,3.3001,3.3845,3.4149,3.3301,3.4017,3.4636,3.4636,3.5896,3.6864,3.7103,3.7391,3.769,3.7972,3.792,3.7413,3.6367,3.5451,3.5307,3.6131,3.6118,3.6568,3.7564,3.7564,3.7074,3.6131,3.6666,3.6977,3.7016,3.71,3.7599,3.8388,3.804,3.7849,3.7743,3.7849,3.9171,4.1097,4.0997,4.0402,3.9597,3.9442,3.8703,3.7583,0.0,2.6147,2.5869,2.5441,2.5217,2.4762,2.373,2.4413,2.4481,2.2909,2.3409,2.3774,2.34,2.4398,2.5165,2.5174,2.5725,2.6336,2.6791,2.7008,2.7368,2.8038,2.8489,2.9472,3.1176,3.1728,3.2398,3.3197,3.3296,3.2723,3.1597,3.2156,3.1472,2.9817,3.1043,3.1259,3.0703,3.1311,3.1618,3.1618,3.1618,3.1618,3.1618,3.1618,3.1669,3.1772,3.1772,3.2117,3.2572,3.2572,3.2471,3.2319,3.2026,3.1772,3.1618,3.1618,3.1618,3.1618,3.1618,3.1618,3.1618,3.1618,3.1618,0.0,3.1618,3.1618,3.1618,3.1618,3.1618,3.1618,3.1618,3.1772,3.1924,3.1924,3.2066,3.2744,3.4257,3.4607,3.4763,3.4763,3.5039,3.5244,3.5291,3.5354,3.575,3.6602,3.7446,3.7413,3.6367,3.6131,3.5738,3.5114,3.5066,3.521,3.5415,3.5415,3.5319,3.5066,3.5223,3.5478,3.594,3.6283,3.6351,3.6227,3.741,3.7382,3.6599,3.753,3.869,3.9815,3.8911,3.8963,3.9494,3.8586,3.7489,3.6491,2.6397,2.63,2.5935,2.5057,2.5038,2.4668,2.3282,2.3653,2.3783,2.2887,2.3415,2.3913,2.3896,2.4731,2.5348,2.5679,2.5962,2.63,2.6591,2.6591,2.68,2.7152,2.7457,2.8392,3.013,3.0691,3.1216,3.1823,3.2066,3.1483,3.0182,3.1032,3.0826,2.9796,3.1043,3.1157,3.0464,3.1529,3.1731,3.1375,3.1511,3.1618,3.1618,3.1618,3.1772,3.1964,3.1721,3.1772,3.2015,3.2319,3.2218,3.2015,3.2015,3.1823,3.1618,3.1618,3.1618,3.1618,3.1618,3.1618,3.1618,3.1618,3.1618,0.0,0.0,3.1618,3.1618,3.1618,3.1618,3.1618,3.1618,3.1618,3.1618,3.1618,3.1618,3.1975,3.3051,3.3648,3.3993,3.3993,3.4483,3.4824,3.4933,3.486,3.5017,3.5499,3.5547,3.5307,3.4763,3.4276,3.3981,3.3993,3.3993,3.4239,3.4775,3.4775,3.4532,3.3993,3.3993,3.4122,3.4431,3.4606,3.4831,3.5065,3.5887,3.5904,3.5378,3.5947,3.6911,3.7914,3.7902,3.7902,3.782,3.7275,3.6329,3.5323,2.6237,2.6255,2.5876,2.4604,2.4833,2.4606,2.2852,2.3184,2.3511,2.3199,2.3576,2.408,2.4565,2.5183,2.5798,2.6364,2.6418,2.6482,2.6582,2.6591,2.6591,2.6591,2.6591,2.7323,2.8827,2.9292,2.9723,3.0172,3.0567,3.013,2.888,2.9743,2.9963,2.9701,3.0681,3.0734,3.0118,3.1349,3.1604,3.1264,3.1524,3.1747,3.1902,3.1902,3.2149,3.2496,3.2046,3.1902,3.1954,3.2405,3.2251,3.1954,3.2394,3.2185,3.1771,3.1771,3.1695,3.1618,3.1618,3.1618,3.1567,3.1424,3.1362,3.1311,0.0,0.0,0.0,3.1311,3.1259,3.1197,3.1516,3.1465,3.1381,3.1447,3.1564,3.1586,3.1498,3.2303,3.2901,3.2901,3.3648,3.4276,3.4423,3.4459,3.4483,3.4483,3.3895,3.34,3.3201,3.237,3.2218,3.2862,3.2901,3.33,3.419,3.419,3.3747,3.2901,3.2901,3.2901,3.2885,3.2944,3.344,3.4332,3.4361,3.4436,3.4524,3.4524,3.5058,3.597,3.69,3.6804,3.6177,3.597,3.5279,3.4524,2.35,2.3296,2.3193,2.2846,2.3239,2.3472,2.3015,2.3886,2.4403,2.3857,2.3865,2.3921,2.3968,2.4509,2.5174,2.5743,2.5798,2.6017,2.6537,2.6591,2.6591,2.6591,2.6591,2.6999,2.7931,2.7985,2.8455,2.925,2.9292,2.888,2.7985,2.8827,2.8465,2.7116,2.8678,2.909,2.8709,2.9583,3.0658,3.1627,3.1673,3.2201,3.296,3.296,3.2949,3.3003,3.296,3.296,3.2949,3.3003,3.3003,3.2949,3.3003,3.2676,3.2295,3.2295,3.1979,3.1618,3.1618,3.1618,3.1414,3.0703,3.0547,3.0328,2.9565,0.0,2.9618,3.038,0.0,2.9828,3.1311,0.0,0.0,3.095,3.1334,3.1465,3.104,3.1447,3.1772,3.1772,3.1863,3.1964,3.2004,3.2851,3.34,3.34,3.4141,3.419,3.325,3.3101,3.2661,3.1823,3.1772,3.1823,3.1964,3.1964,3.1913,3.1772,3.1772,3.1772,3.1794,3.226,3.2783,3.3296,3.3693,3.413,3.4524,3.4524,3.4579,3.468,3.4836,3.5433,3.6068,3.5058,3.4624,3.4524,2.3827,2.3631,2.3532,2.3347,2.3515,2.3517,2.3046,2.3456,2.368,2.3408,2.386,2.4218,2.4218,2.4912,2.553,2.5931,2.5969,2.6256,2.693,2.693,2.693,2.693,2.693,2.7241,2.778,2.777,2.7985,2.8349,2.8349,2.7941,2.7107,2.8182,2.8298,2.7727,2.9159,2.9421,2.8843,2.9986,3.0529,3.0664,3.1431,3.1983,3.2424,3.289,3.3124,3.3124,3.3124,3.3124,3.3124,3.3124,3.3124,3.3124,3.3124,3.2929,3.2829,3.2829,3.2437,3.2066,3.2066,3.1848,3.1516,3.1157,3.1116,3.0899,3.0057,2.9848,2.9796,2.9681,0.0,0.0,0.0,0.0,0.0,0.0,3.0771,3.0989,3.1244,3.1498,3.1618,3.1618,3.1618,3.1618,3.1618,3.2015,3.2269,3.2269,3.2711,3.2762,3.2319,3.2269,3.2066,3.1618,3.1618,3.1618,3.1618,3.1618,3.1618,3.1618,3.1618,3.1618,3.164,3.2154,3.2634,3.3146,3.3584,3.4076,3.4524,3.4524,3.4524,3.4524,3.4524,3.4791,3.5168,3.4691,3.4524,3.4524,2.4061,2.4002,2.404,2.3704,2.3809,2.3753,2.3296,2.315,2.3165,2.3165,2.3967,2.4581,2.4581,2.5457,2.6151,2.6337,2.6546,2.6828,2.7334,2.7334,2.7334,2.7334,2.7334,2.7521,2.7808,2.7799,2.7799,2.7799,2.7799,2.7489,2.6976,2.7835,2.8244,2.8254,2.9228,2.9329,2.8909,2.9888,3.0149,3.0045,3.105,3.1574,3.1907,3.2772,3.3117,3.3117,3.341,3.3302,3.3128,3.341,3.3464,3.3464,3.3464,3.3377,3.3268,3.3268,3.2929,3.2569,3.2569,3.2139,3.1616,3.1486,3.107,3.0569,2.9827,2.9544,2.9227,2.8827,2.8572,0.0,0.0,0.0,2.9009,2.9746,0.0,3.0224,3.0666,3.1019,3.1362,3.1567,3.1618,3.1618,3.1618,3.1618,3.1618,3.1618,3.1618,3.1618,3.1618,3.1618,3.1618,3.1618,3.1618,3.1618,3.1618,3.1618,3.1618,3.1618,3.1618,3.1618,3.1589,3.2001,3.2503,3.3135,3.3442,3.3945,3.4524,3.4524,3.4524,3.4524,3.4524,3.4524,3.4524,3.4524,3.4524,3.4524,2.3167,2.3504,2.3736,2.3127,2.352,2.3913,2.3857,2.365,2.3465,2.3465,2.4348,2.4977,2.4977,2.6024,2.6774,2.6765,2.7338,2.7746,2.7803,2.7803,2.7803,2.7803,2.7803,2.7803,2.7785,2.7785,2.7785,2.7785,2.7785,2.7785,2.7785,2.7794,2.7803,2.7803,2.7869,2.81,2.8428,2.8447,2.9194,3.0363,3.0441,3.1014,3.191,3.2747,3.3077,3.3191,3.4134,3.3888,3.3247,3.4123,3.448,3.448,3.448,3.4152,3.377,3.377,3.3431,3.3103,3.3103,3.2383,3.1608,3.12,2.9779,2.8369,2.7974,2.726,2.6954,2.7672,2.7206,2.7161,2.8774,2.8402,2.7965,2.8393,2.8872,0.0,0.0,2.9632,3.0754,3.1516,3.1618,3.1618,3.1618,3.1618,3.1618,3.1618,3.1618,3.1618,3.1618,3.1618,3.1618,3.1618,3.1618,3.1618,3.1618,3.1618,3.1618,3.1618,3.1618,3.1618,3.1618,3.164,3.2164,3.3124,3.3135,3.3639,3.4524,3.4524,3.4524,3.4524,3.4524,3.4524,3.4524,3.4524,3.4524,3.4524,2.3689,2.3745,2.3689,2.3127,2.3183,2.3376,2.3617,2.3773,2.4055,2.4463,2.5008,2.5527,2.594,2.6576,2.6983,2.7181,2.7387,2.7696,2.8187,2.8177,2.8177,2.8177,2.8177,2.8049,2.7831,2.7822,2.7822,2.7822,2.7822,2.7822,2.7831,2.8049,2.8177,2.8196,2.8452,2.8645,2.8783,2.8783,2.9033,2.945,2.945,3.003,3.0956,3.1862,3.2607,3.3119,3.347,3.3356,3.3233,3.4177,3.4121,3.3582,3.3582,3.3476,3.3348,3.3348,3.3008,3.2756,3.3378,3.3095,3.2427,3.1674,3.1027,3.0377,2.9669,2.8604,2.7874,2.8266,2.7413,2.6745,2.7323,2.7215,2.7213,2.7907,2.8154,2.8416,0.0,2.9755,3.0495,3.0754,3.0307,3.0151,3.0744,3.0806,3.1013,3.1578,3.1618,3.1618,3.1618,3.1618,3.1618,3.1618,3.1618,3.1618,3.1618,3.1618,3.1618,3.1618,3.1618,3.1618,3.1618,3.1618,3.2154,3.3124,3.3124,3.3617,3.4524,3.4524,3.4524,3.4524,3.4524,3.4524,3.4524,3.4524,3.4524,3.4524,2.3828,2.3869,2.3804,2.3277,2.33,2.3459,2.3689,2.425,2.4771,2.5184,2.5736,2.6269,2.6628,2.7091,2.7434,2.7588,2.7807,2.817,2.8599,2.8599,2.8599,2.8599,2.8599,2.848,2.8205,2.8254,2.8254,2.8254,2.8254,2.8254,2.8205,2.848,2.8599,2.8618,2.8865,2.8984,2.8984,2.8984,2.8984,2.8984,2.8984,2.9331,2.9971,3.0597,3.1343,3.215,3.255,3.2436,3.2264,3.3197,3.313,3.2664,3.2664,3.2664,3.2664,3.2664,3.2617,3.279,3.3358,3.3309,3.2975,3.2552,3.1952,3.1285,3.055,2.9528,2.8689,2.8819,2.8121,2.7602,2.7931,2.7853,2.7803,2.8064,2.793,2.7985,0.0,2.9102,2.9481,2.9481,2.9523,2.9785,3.0339,3.0391,3.0754,3.1516,3.1618,3.1618,3.1618,3.1618,3.1618,3.1618,3.1618,3.1618,3.1618,3.1618,3.1618,3.1618,3.1618,3.1618,3.1629,3.1815,3.2328,3.3124,3.331,3.3781,3.4524,3.4524,3.4524,3.4524,3.4524,3.4524,3.4524,3.4524,3.4524,3.4524,2.3512,2.384,2.3975,2.3591,2.3864,2.4137,2.4137,2.4968,2.5666,2.5675,2.6464,2.7056,2.7056,2.7599,2.802,2.802,2.8558,2.8984,2.8984,2.8984,2.8984,2.8984,2.8984,2.8984,2.8984,2.8984,2.8984,2.8984,2.8984,2.8984,2.8984,2.8984,2.8984,2.8984,2.8984,2.8984,2.8984,2.8984,2.8984,2.8984,2.8984,2.8984,2.8984,2.8984,2.9568,3.0441,3.1401,3.1179,3.0558,3.1459,3.1747,3.1747,3.1747,3.1747,3.1747,3.1747,3.2322,3.3006,3.3006,3.3063,3.3127,3.3604,3.2413,3.1049,3.0626,2.9915,2.931,2.9366,2.929,2.9495,3.0264,3.0077,2.9525,2.8681,2.8116,2.7837,2.7837,2.7818,2.7853,2.7853,2.9333,3.0339,3.0287,3.0287,3.0692,3.1465,3.1516,3.1578,3.1618,3.1578,3.1578,3.1618,3.1618,3.1618,3.1618,3.1618,3.1618,3.1618,3.1618,3.1618,3.164,3.2154,3.2634,3.3146,3.3584,3.4076,3.4524,3.4524,3.4524,3.4524,3.4524,3.4524,3.4524,3.4524,3.4524,3.4524,2.392,2.4206,2.442,2.4333,2.4388,2.4444,2.4444,2.5342,2.6117,2.66,2.7297,2.7719,2.7719,2.79,2.802,2.802,2.814,2.8439,2.8984,2.8984,2.8984,2.8984,2.8984,2.8984,2.8984,2.8984,2.8984,2.8984,2.8984,2.8984,2.8984,2.8984,2.8984,2.8984,2.8984,2.8984,2.8984,2.8984,2.8984,2.8984,2.8984,2.8984,2.8984,2.8984,2.9153,2.9509,3.0441,3.0616,3.0558,3.1459,3.1353,3.0781,3.0781,3.0781,3.0781,3.0781,3.0898,3.1247,3.192,3.214,3.2176,3.2292,3.1977,3.1765,3.2277,3.1482,3.08,3.1482,3.0883,3.0052,2.9607,2.9463,2.9051,2.8174,2.7912,2.8005,2.8609,2.8432,2.8231,2.8231,2.8973,2.9207,2.8518,2.9039,2.9785,3.064,3.0703,3.0961,3.1567,3.1013,3.095,3.1567,3.1618,3.1618,3.1618,3.1618,3.1618,3.1618,3.1618,3.1618,3.164,3.2154,3.2634,3.3146,3.3584,3.4076,3.4524,3.4524,3.4524,3.4524,3.4524,3.4524,3.4524,3.4524,3.4524,3.4524,2.4344,2.4571,2.4809,2.4809,2.5052,2.5234,2.5234,2.5761,2.6319,2.6935,2.7358,2.7659,2.796,2.802,2.814,2.8439,2.8439,2.8618,2.8984,2.8984,2.8984,2.8984,2.8984,2.8984,2.8984,2.8984,2.8984,2.8984,2.8687,2.8558,2.8558,2.8259,2.814,2.814,2.8439,2.8379,2.814,2.8439,2.8558,2.8567,2.8865,2.8984,0.0,2.8984,2.8984,2.9044,2.9627,2.9804,2.9863,3.0431,3.0197,2.9804,2.9804,2.9804,2.9804,2.9804,3.0089,3.0499,3.1073,3.1459,3.1805,3.1805,3.1805,3.192,3.2436,3.1946,3.1649,3.2563,3.2141,3.162,3.1518,3.1355,3.0706,2.9178,2.8653,2.8437,2.8493,2.8557,2.8395,2.7781,2.8287,2.8189,2.705,2.8457,2.946,2.9418,2.9681,3.0099,3.066,3.0245,3.0526,3.1567,3.1618,3.1618,3.1618,3.1618,3.1618,3.1618,3.1618,3.1618,3.1651,3.2361,3.2873,3.3157,3.3803,3.4272,3.4524,3.4524,3.4524,3.4524,3.4524,3.4524,3.4524,3.4524,3.4524,3.4524,2.465,2.4897,2.5111,2.5111,2.5594,2.6014,2.6075,2.6197,2.6441,2.6935,2.6995,2.7177,2.7719,2.7779,2.802,2.8677,2.8746,2.8797,2.8984,2.8984,2.8984,2.8984,2.8984,2.8984,2.8984,2.8984,2.8984,2.8984,2.8439,2.814,2.814,2.7418,2.7116,2.7177,2.7659,2.7599,2.7177,2.7779,2.808,2.8199,2.8746,2.8984,2.8984,2.8984,2.8984,2.8984,2.8984,2.8984,2.8984,2.8984,2.8984,2.8984,2.8984,2.8984,2.8984,2.8984,2.9568,3.0206,3.0206,3.083,3.1459,3.1574,3.1632,3.1632,3.1747,3.1805,3.2035,3.2949,3.3119,3.3356,3.4177,3.3886,3.2904,3.0918,2.9875,2.9107,2.8425,2.8767,2.8616,2.7371,2.7869,0.0,2.6091,2.8182,2.9199,2.812,2.8549,2.9083,2.9603,2.9497,3.0119,3.1676,3.1665,3.1633,3.1618,3.1618,3.1618,3.1618,3.1618,3.1662,3.176,3.2656,3.3157,3.3267,3.413,3.4524,3.4524,3.4524,3.4524,3.4524,3.4524,3.4524,3.4524,3.4524,3.4524,3.4524,2.5016,2.5063,2.5111,2.5111,2.5226,2.5472,2.6014,2.6501,2.6874,2.6995,2.6995,2.6874,2.6493,2.6432,2.6684,2.7297,2.7358,2.784,2.8925,2.8984,2.8984,2.8984,2.8984,2.8984,2.8984,2.8984,2.8984,2.8984,2.8865,2.8806,2.8797,2.814,2.784,2.7779,2.7358,2.7418,2.784,2.796,2.8319,2.8865,2.8925,2.8984,2.8984,2.8984,2.8984,2.8984,2.8984,2.8984,2.8984,2.8984,2.8984,2.8984,2.8984,2.8984,2.8984,2.8984,2.9103,2.9281,2.9281,2.939,2.9677,3.0431,3.0675,3.084,3.1632,3.1805,3.2035,3.2949,3.3119,3.3176,3.33,3.2716,3.2007,3.164,3.0779,3.0383,3.0999,3.0293,2.9556,2.9327,2.9286,2.8559,2.6783,2.7241,2.7537,2.7311,2.7368,2.8313,3.0377,2.9609,3.0061,3.2211,3.198,3.1785,3.1578,3.1618,3.1618,3.1618,3.1618,3.1848,3.2263,3.282,3.3289,3.3704,3.4272,3.4524,3.4524,3.4524,3.4524,3.4524,3.4524,3.4524,3.4524,3.4524,3.4524,3.4524,2.5111,2.5111,2.5111,2.5111,2.541,2.5717,2.6075,2.638,2.6501,2.6501,2.6205,2.6022,2.6067,2.6075,2.6319,2.6935,2.6995,2.7297,2.79,2.796,2.814,2.8439,2.8498,2.8618,2.8984,2.8984,2.8806,2.8498,2.814,2.7771,2.7461,2.6805,2.651,2.651,2.6501,2.7108,2.802,2.802,2.8199,2.8498,2.8865,2.8984,2.8984,2.8984,2.8984,2.8984,2.8984,2.8984,2.8984,2.8984,2.8984,2.8984,2.8984,2.8984,2.8984,2.8984,2.8984,2.8984,2.8984,2.8984,2.9103,2.9568,2.9686,2.9912,3.084,3.1063,3.1353,3.2264,3.2436,3.255,3.3006,3.3187,3.3016,3.255,3.2092,3.1805,3.1805,3.0828,2.9997,2.963,2.9111,2.8119,2.6618,2.6541,2.6772,2.7158,2.673,2.7739,3.0644,2.9371,2.9838,3.2679,3.2456,3.2295,3.2372,3.2372,3.2372,3.2372,3.2372,3.2503,3.2807,3.3224,3.3573,3.3825,3.4316,3.4524,3.4524,3.4524,3.4524,3.4524,3.4524,3.4524,3.4524,3.4524,3.4524,3.4524,2.5288,2.5226,2.5173,2.5288,2.5647,2.5892,2.5892,2.5892,2.5953,2.6075,2.5533,2.5288,2.5831,2.5892,2.6136,2.6753,2.6813,2.6874,2.6995,2.6995,2.7297,2.796,2.802,2.8259,2.8806,2.8925,2.8677,2.802,2.7478,2.6987,2.6501,2.5717,2.5288,2.5349,2.5831,2.6805,2.802,2.784,2.796,2.8259,2.8498,2.8792,2.9104,2.8984,2.9039,2.9241,2.9241,2.9172,2.8992,2.8992,2.9002,2.8984,2.8984,2.8984,2.8984,2.8984,2.8984,2.8984,2.8984,2.8984,2.8984,2.8984,2.8984,2.9213,2.9922,3.0089,3.0382,3.1295,3.1632,3.2035,3.2721,3.3593,3.3885,3.2949,3.3006,3.2778,3.191,3.1295,3.0655,2.9747,2.8998,2.8053,2.6614,2.625,2.6473,2.7485,2.6347,2.7018,3.0185,2.8776,2.9304,3.2371,3.2317,3.2393,3.2566,3.2953,3.3124,3.3124,3.3124,3.3168,3.3288,3.3617,3.3857,3.3977,3.436,3.4524,3.4524,3.4524,3.4524,3.4524,3.4524,3.4524,3.4524,3.4524,3.4524,3.4524,2.5892,2.5533,2.5288,2.5892,2.5533,2.5165,2.5165,2.5165,2.541,2.6014,2.5533,2.5111,2.5173,2.5165,2.5472,2.6136,2.6197,2.6441,2.6935,2.6995,2.7297,2.796,2.802,2.802,2.808,2.8687,2.8677,2.802,2.796,2.79,2.7779,2.6562,2.6014,2.6014,2.6067,2.6805,2.796,2.7358,2.7779,2.8806,2.7659,2.8103,2.9456,2.8839,2.9256,3.0085,3.0085,2.9643,2.9066,2.9066,2.9033,2.8984,2.8984,2.8984,2.8984,2.8984,2.8984,2.8984,2.8984,2.8984,2.8984,2.8984,2.8984,2.9044,2.9103,2.9103,2.939,3.0323,3.1237,3.1795,3.192,3.2664,3.2949,3.2035,3.2607,3.2778,3.191,3.2379,3.2207,3.049,3.0461,2.9797,2.8011,2.6805,2.6693,2.8199,2.6367,2.6186,2.8537,2.7663,2.8088,3.0305,3.087,3.1081,3.0949,3.2394,3.3124,3.3124,3.3124,3.33,3.3726,3.377,3.4032,3.4458,3.4502,3.4524,3.4524,3.4524,3.4524,3.4524,3.4524,3.4524,3.4524,3.4524,3.4524,3.4524,2.5472,2.5288,2.5173,2.5472,2.5288,2.5111,2.5111,2.5111,2.5226,2.5472,2.5296,2.5111,2.5111,2.5111,2.5234,2.5472,2.5472,2.5594,2.5839,2.5839,2.6144,2.6805,2.7237,2.7418,2.7418,2.808,2.7891,2.6865,2.6865,2.6623,2.6266,2.5717,2.5709,2.6136,2.6501,2.6935,2.7375,2.7356,2.7695,2.814,2.7823,2.8066,2.8694,2.888,2.8915,2.8994,2.9368,2.9119,2.8546,2.8985,2.9092,2.9079,2.9079,2.9222,2.9333,2.9333,2.9168,2.8984,2.8984,2.8984,2.8984,2.8984,2.8984,2.8984,2.8984,2.8984,2.9103,2.9509,3.0323,3.0956,3.0956,3.169,3.2207,3.1862,3.255,3.2778,3.191,3.2092,3.1862,3.0558,3.002,2.9244,2.814,2.7168,2.6736,2.7013,2.5823,2.6286,2.9111,2.8724,2.8888,2.9872,3.1284,3.1613,3.0787,3.2329,3.3074,3.314,3.3648,3.4043,3.4229,3.4229,3.4338,3.4524,3.4524,3.4524,3.4524,3.4524,3.4524,3.4524,3.4524,3.4524,3.4524,3.4524,3.4524,3.4567,2.5349,2.5226,2.5173,2.5349,2.5226,2.5111,2.5111,2.5199,2.5262,2.5262,2.5349,2.5334,2.5127,2.5199,2.5262,2.5262,2.5357,2.5413,2.5413,2.5318,2.5571,2.6232,2.656,2.6753,2.6753,2.7358,2.7168,2.6075,2.6075,2.5831,2.541,2.5276,2.5625,2.6302,2.6778,2.7144,2.7345,2.7416,2.7588,2.773,2.7626,2.7858,2.834,2.8585,2.8599,2.8511,2.902,2.8702,2.8256,2.8702,2.8884,2.8913,2.9315,2.9614,2.9755,2.9755,2.9562,2.9342,2.9342,2.913,2.885,2.885,2.8768,2.8687,2.8687,2.8865,2.8984,2.8984,2.9509,2.9981,2.9981,3.0781,3.1295,3.0995,3.1977,3.2311,3.1111,3.1459,3.1285,2.9844,2.9372,2.8847,2.808,2.7418,2.6813,2.638,2.577,2.6415,2.8833,2.8605,2.8673,2.9257,3.0849,3.1323,3.0373,3.1957,3.2721,3.2721,3.3649,3.4121,3.411,3.4345,3.4524,3.4524,3.4524,3.4524,3.4524,3.4524,3.4524,3.4524,3.4524,3.4524,3.4524,3.4524,3.4524,3.4589,2.5953,2.5525,2.5288,2.5953,2.5533,2.5111,2.5111,2.5405,2.5573,2.5573,2.5921,2.5937,2.5183,2.5421,2.5573,2.5573,2.5937,2.62,2.62,2.5818,2.5878,2.6549,2.6265,2.6136,2.6136,2.6684,2.6692,2.6075,2.6075,2.6075,2.6083,2.5772,2.5941,2.6628,2.6928,2.7474,2.8034,2.7419,2.7474,2.798,2.6719,2.7179,2.8652,2.7952,2.8372,2.9299,2.9299,2.8839,2.832,2.832,2.832,2.8516,2.9816,3.0195,3.0195,3.0195,3.0195,3.0185,3.0185,2.9382,2.8578,2.8578,2.8295,2.802,2.802,2.8498,2.8984,2.8984,2.8984,2.9044,2.9044,2.9804,3.0089,2.9153,3.0597,3.1169,2.9272,3.0655,3.0869,2.831,2.8811,2.9039,2.8071,2.7418,2.6995,2.6995,2.6441,2.638,2.6995,2.6441,2.6736,2.7951,2.8929,2.9434,2.9443,3.1033,3.1805,3.1805,3.2721,3.3119,3.3176,3.4054,3.4524,3.4524,3.4524,3.4524,3.4524,3.4524,3.4524,3.4524,3.4524,3.4524,3.4524,3.4524,3.4524,3.4589,2.5349,2.5426,2.5531,2.571,2.5785,2.5881,2.5881,2.5914,2.5985,2.5985,2.6144,2.612,2.5905,2.5921,2.5985,2.5985,2.6144,2.6208,2.6208,2.6104,2.6104,2.6295,2.6632,2.6567,2.6189,2.6764,2.6755,2.6189,2.6189,2.6189,2.6189,2.65,2.6493,2.6366,2.6861,2.6974,2.6799,2.6786,2.6955,2.7109,2.6968,2.7194,2.7686,2.8015,2.8023,2.7923,2.8461,2.813,2.76,2.813,2.8329,2.8419,2.9284,2.9729,2.9887,2.9887,2.9637,2.9368,2.8868,2.8522,2.8239,2.8239,2.8153,2.7997,2.7799,2.8025,2.8319,2.8319,2.8677,2.8865,2.8379,2.8549,2.8668,2.8379,2.9353,2.9874,2.9094,2.9648,2.963,2.8191,2.7882,2.7642,2.7358,2.6744,2.638,2.638,2.577,2.5709,2.638,2.7194,2.7375,2.6744,2.8444,2.8861,2.7753,2.9384,3.0392,3.084,3.2379,3.3413,3.4054,3.4345,3.4524,3.4524,3.4524,3.4524,3.4524,3.4524,3.4524,3.4524,3.4524,3.4524,3.4524,3.4524,3.472,3.5059,2.5477,2.5675,2.5826,2.5826,2.6001,2.6208,2.6208,2.6327,2.6407,2.6407,2.6526,2.6606,2.6606,2.6606,2.6485,2.6423,2.6534,2.6606,2.6606,2.6487,2.6407,2.6407,2.66,2.6591,2.6208,2.66,2.6591,2.6208,2.6208,2.6208,2.6208,2.6729,2.6729,2.6415,2.6939,2.6931,2.6622,2.6779,2.6875,2.6891,2.7113,2.72,2.7267,2.7733,2.76,2.7267,2.7733,2.76,2.7267,2.7733,2.7865,2.7998,2.8725,2.9014,2.9198,2.9465,2.9354,2.9107,2.8661,2.8239,2.7938,2.7938,2.7836,2.7731,2.7807,2.7947,2.8044,2.8147,2.8353,2.8369,2.8046,2.7779,2.7599,2.7599,2.8113,2.8522,2.8618,2.8769,2.8641,2.808,2.7418,2.6995,2.6995,2.6441,2.6075,2.6075,2.5709,2.5647,2.6075,2.7013,2.7194,2.6441,2.7804,2.8044,2.6995,2.7984,2.882,2.9499,3.1285,3.2732,3.3998,3.3998,3.4177,3.4524,3.4524,3.4524,3.4524,3.4524,3.4524,3.4524,3.4524,3.4524,3.4545,3.472,3.496,3.531,2.6152,2.6232,2.6248,2.6248,2.6264,2.6288,2.6288,2.6501,2.6708,2.6708,2.7002,2.72,2.72,2.72,2.7073,2.674,2.701,2.72,2.72,2.6899,2.6708,2.6708,2.6463,2.6288,2.6288,2.6288,2.6288,2.6288,2.6288,2.6288,2.6288,2.6622,2.6708,2.6724,2.7057,2.72,2.72,2.72,2.72,2.72,2.72,2.72,2.72,2.72,2.72,2.72,2.72,2.72,2.72,2.72,2.72,2.7334,2.7998,2.8196,2.8329,2.9045,2.9242,2.9242,2.9176,2.8456,2.7678,2.7678,2.7342,2.727,2.7832,2.8005,2.8075,2.8351,2.8026,2.772,2.792,2.7496,2.7072,2.7011,2.6994,2.7211,2.7875,2.7908,2.79,2.79,2.7297,2.6874,2.6874,2.638,2.6014,2.6014,2.6014,2.6014,2.6014,2.6014,2.6319,2.6935,2.6935,2.6935,2.6935,2.6935,2.7289,2.8071,2.9618,3.1295,3.3006,3.3063,3.3582,3.4468,3.4468,3.4524,3.4524,3.4524,3.4524,3.4524,3.4524,3.4545,3.4622,3.5048,3.5244,3.5441,2.6192,2.6431,2.6549,2.6549,2.6771,2.6954,2.6954,2.7026,2.7081,2.7081,2.7153,2.72,2.72,2.72,2.7169,2.7081,2.7153,2.72,2.72,2.7121,2.7081,2.7081,2.6994,2.6954,2.6954,2.6954,2.6954,2.6954,2.6954,2.6954,2.6954,2.7042,2.7081,2.7081,2.7169,2.72,2.72,2.72,2.72,2.72,2.72,2.72,2.72,2.72,2.72,2.72,2.72,2.72,2.72,2.72,2.72,2.72,2.74,2.7467,2.76,2.8329,2.8527,2.8395,2.7865,2.7535,2.7338,2.7338,2.7066,2.6809,2.7004,2.7171,2.733,2.7437,2.8103,2.8444,2.7491,2.7662,2.7733,2.7169,2.6865,2.6921,2.7598,2.7044,2.6562,2.6562,2.5953,2.5533,2.5533,2.541,2.5349,2.5349,2.5349,2.5349,2.5349,2.5349,2.5656,2.6319,2.6319,2.6319,2.6319,2.6319,2.6961,2.8316,2.9216,3.05,3.2072,3.2768,3.348,3.4199,3.4412,3.4524,3.4524,3.4524,3.4524,3.4524,3.4524,3.4731,3.5059,3.5168,3.5692,3.638,2.6662,2.6787,2.6914,2.6914,2.7073,2.72,2.72,2.72,2.72,2.72,2.72,2.72,2.72,2.72,2.72,2.72,2.72,2.72,2.72,2.72,2.72,2.72,2.72,2.72,2.72,2.72,2.72,2.72,2.72,2.72,2.72,2.72,2.72,2.72,2.72,2.72,2.72,2.72,2.72,2.72,2.72,2.72,2.72,2.72,2.72,2.72,2.72,2.72,2.72,2.72,2.72,2.72,2.72,2.72,2.7267,2.7666,2.7799,2.7733,2.7334,2.72,2.72,2.72,2.7057,2.6914,2.6914,2.7034,2.7166,2.7309,2.766,2.7802,2.7198,2.7173,2.7165,2.6719,2.6557,2.6616,2.7307,2.6881,2.6695,2.7005,2.6446,2.5953,2.5792,2.5536,2.5286,2.5119,2.5111,2.5111,2.5111,2.5111,2.5296,2.5647,2.5647,2.5647,2.5647,2.5953,2.6545,2.7366,2.8334,2.9394,3.0665,3.1785,3.2789,3.366,3.4132,3.4412,3.4524,3.4524,3.4524,3.4545,3.4753,3.4993,3.5266,3.5725,3.6227,3.6719,2.7145,2.72,2.72,2.72,2.72,2.72,2.72,2.72,2.72,2.72,2.72,2.72,2.72,2.72,2.72,2.72,2.72,2.72,2.72,2.72,2.72,2.72,2.72,2.72,2.72,2.72,2.72,2.72,2.72,2.72,2.72,2.72,2.72,2.72,2.72,2.72,2.72,2.72,2.72,2.72,2.72,2.72,2.72,2.72,2.72,2.72,2.72,2.72,2.72,2.72,2.72,2.72,2.72,2.72,2.72,2.72,2.72,2.72,2.72,2.72,2.72,2.72,2.72,2.72,2.72,2.72,2.7246,2.7516,2.7198,2.6986,2.7067,2.6825,2.6496,2.6367,2.6327,2.648,2.6992,2.7015,2.7165,2.7735,2.7292,2.6859,2.6548,2.6021,2.5588,2.5286,2.5214,2.5191,2.5191,2.5143,2.5111,2.5111,2.5111,2.5111,2.5111,2.5647,2.5953,2.5953,2.7228,2.8292,2.908,3.0392,3.1622,3.2711,3.3491,3.4019,3.4289,3.4468,3.4567,3.4666,3.5059,3.5299,3.5528,3.638,3.6741,3.685,2.7193,2.72,2.72,2.72,2.72,2.72,2.72,2.72,2.72,2.72,2.72,2.72,2.72,2.72,2.72,2.72,2.72,2.72,2.72,2.72,2.72,2.72,2.72,2.72,2.72,2.72,2.72,2.72,2.72,2.72,2.72,2.72,2.72,2.72,2.72,2.72,2.72,2.72,2.72,2.72,2.72,2.72,2.72,2.72,2.72,2.72,2.72,2.72,2.72,2.72,2.72,2.72,2.72,2.72,2.72,2.72,2.72,2.72,2.72,2.72,2.72,2.72,2.72,2.72,2.72,2.72,2.7185,2.7262,2.771,2.79,2.7314,2.7637,2.7768,2.7174,2.6787,2.6662,2.6727,2.6528,2.64,2.6464,2.64,2.632,2.6256,2.6192,2.6112,2.6049,2.5723,2.5493,2.5493,2.527,2.5111,2.5111,2.5111,2.5111,2.5111,2.5226,2.5288,2.5296,2.6571,2.722,2.7435,2.897,3.009,3.0781,3.1957,3.2825,3.3356,3.4177,3.4753,3.5113,3.5179,3.5725,3.6489,3.6642,3.6937,3.7287,2.72,2.72,2.72,2.72,2.72,2.72,2.72,2.72,2.72,2.72,2.72,2.72,2.72,2.72,2.72,2.72,2.72,2.72,2.72,2.72,2.72,2.72,2.72,2.72,2.72,2.72,2.72,2.72,2.72,2.72,2.72,2.72,2.72,2.72,2.72,2.72,2.72,2.72,2.72,2.72,2.72,2.72,2.72,2.72,2.72,2.72,2.72,2.72,2.72,2.72,2.72,2.72,2.72,2.72,2.72,2.72,2.72,2.72,2.72,2.72,2.72,2.72,2.72,2.72,2.72,2.72,2.72,2.72,2.7467,2.76,2.7267,2.7467,2.76,2.7267,2.7065,2.6962,2.6962,2.6819,2.6716,2.6716,2.6716,2.6636,2.6519,2.6495,2.6415,2.6224,2.6001,2.5914,2.5914,2.558,2.5397,2.5397,2.5206,2.5111,2.5111,2.5111,2.5111,2.5103,2.6075,2.6501,2.6545,2.7966,2.9089,2.9846,3.0781,3.189,3.314,3.388,3.4561,3.5255,3.5801,3.6293,3.6719,3.697,3.7188,3.7374,2.72,2.72,2.72,2.72,2.72,2.72,2.72,2.72,2.72,2.72,2.72,2.72,2.72,2.72,2.72,2.72,2.72,2.72,2.72,2.72,2.72,2.72,2.72,2.72,2.72,2.72,2.72,2.72,2.72,2.72,2.72,2.72,2.72,2.72,2.72,2.72,2.72,2.72,2.72,2.72,2.72,2.72,2.72,2.72,2.72,2.72,2.72,2.72,2.72,2.72,2.72,2.72,2.72,2.72,2.72,2.72,2.72,2.72,2.72,2.72,2.72,2.72,2.72,2.72,2.72,2.72,2.72,2.72,2.72,2.72,2.72,2.72,2.72,2.72,2.72,2.72,2.72,2.72,2.72,2.72,2.72,2.7097,2.6827,2.6795,2.6684,2.6471,2.6375,2.6335,2.6335,2.5937,2.5723,2.5581,2.5294,2.5111,2.5111,2.5111,2.5111,2.5111,2.577,2.6014,2.5892,2.7021,2.7975,2.8673,2.9493,3.084,3.2428,3.3455,3.4433,3.5269,3.6332,3.6762,3.6894,3.7254,3.7374,3.7374,2.72,2.72,2.72,2.72,2.72,2.72,2.72,2.72,2.72,2.72,2.72,2.72,2.72,2.72,2.72,2.72,2.72,2.72,2.72,2.72,2.72,2.72,2.72,2.72,2.72,2.72,2.72,2.72,2.72,2.72,2.72,2.72,2.72,2.72,2.72,2.72,2.72,2.72,2.72,2.72,2.72,2.72,2.72,2.72,2.72,2.72,2.72,2.72,2.72,2.72,2.72,2.72,2.72,2.72,2.72,2.72,2.72,2.72,2.72,2.72,2.72,2.72,2.72,2.72,2.72,2.72,2.72,2.72,2.72,2.72,2.72,2.72,2.72,2.72,2.72,2.72,2.72,2.72,2.72,2.72,2.72,2.7193,2.7169,2.7161,2.7153,2.7129,2.6819,2.6636,2.6636,2.6367,2.5969,2.5581,2.5294,2.5111,2.5111,2.5111,2.5111,2.5111,2.577,2.577,2.5226,2.5892,2.6311,2.6432,2.7898,2.9182,3.0392,3.287,3.4406,3.5304,3.6297,3.6959,3.733,3.7363,3.7374,3.7374,2.72,2.72,2.72,2.72,2.72,2.72,2.72,2.72,2.72,2.72,2.72,2.72,2.72,2.72,2.72,2.72,2.72,2.6934,2.6249,2.6859,2.72,2.72,2.72,2.72,2.72,2.72,2.72,2.72,2.72,2.72,2.72,2.72,2.72,2.72,2.72,2.72,2.72,2.72,2.72,2.72,2.72,2.72,2.72,2.72,2.72,2.72,2.72,2.72,2.72,2.72,2.72,2.72,2.72,2.72,2.72,2.72,2.72,2.72,2.72,2.72,2.72,2.72,2.72,2.72,2.72,2.72,2.72,2.72,2.72,2.72,2.72,2.72,2.72,2.72,2.72,2.72,2.72,2.72,2.72,2.72,2.72,2.72,2.72,2.72,2.72,2.72,2.7081,2.7002,2.7002,2.6668,2.6311,2.5961,2.5826,2.5548,2.5111,2.5111,2.5111,2.5111,2.5349,2.5349,2.5111,2.5349,2.5717,2.6144,2.7392,2.8722,3.0176,3.2755,3.4354,3.531,3.6632,3.7221,3.7374,3.7374,3.7374,3.7374,2.72,2.72,2.72,2.72,2.72,2.72,2.72,2.72,2.72,2.72,2.72,2.72,2.72,2.6926,2.6725,2.6725,2.6383,2.5839,2.5083,2.6107,2.6859,2.7208,2.72,2.72,2.72,2.72,2.72,2.72,2.72,2.72,2.72,2.72,2.72,2.72,2.72,2.72,2.72,2.72,2.72,2.72,2.72,2.72,2.72,2.72,2.72,2.72,2.72,2.72,2.72,2.72,2.72,2.72,2.72,2.72,2.72,2.72,2.72,2.72,2.72,2.72,2.72,2.72,2.72,2.72,2.72,2.72,2.72,2.72,2.72,2.72,2.72,2.72,2.72,2.72,2.72,2.72,2.72,2.72,2.72,2.72,2.72,2.72,2.72,2.72,2.72,2.72,2.72,2.72,2.72,2.697,2.6676,2.6383,2.6375,2.6033,2.5445,2.5326,2.5222,2.5111,2.5111,2.5111,2.5111,2.5222,2.5641,2.6326,2.7373,2.8588,3.0088,3.2377,3.3942,3.5084,3.6385,3.7132,3.7374,3.7374,3.7374,3.7374,2.72,2.72,2.72,2.72,2.72,2.72,2.72,2.72,2.72,2.72,2.72,2.72,2.72,2.6249,2.5629,2.5562,2.4549,2.387,2.3917,2.4948,2.604,2.7134,2.72,2.72,2.72,2.72,2.72,2.72,2.72,2.72,2.72,2.72,2.72,2.72,2.72,2.72,2.72,2.72,2.72,2.72,2.72,2.72,2.72,2.72,2.72,2.72,2.72,2.72,2.72,2.72,2.72,2.72,2.72,2.72,2.72,2.72,2.72,2.72,2.72,2.72,2.72,2.72,2.72,2.72,2.72,2.72,2.72,2.72,2.72,2.72,2.72,2.72,2.72,2.72,2.72,2.72,2.72,2.72,2.72,2.72,2.72,2.72,2.72,2.72,2.72,2.72,2.72,2.72,2.72,2.72,2.7042,2.6684,2.6676,2.6574,2.6216,2.581,2.5461,2.5111,2.5111,2.5111,2.5127,2.5477,2.6012,2.6724,2.7781,2.8789,2.9885,3.1643,3.3132,3.4507,3.55,3.6502,3.7374,3.7374,3.7374,3.7374,2.72,2.72,2.72,2.72,2.72,2.72,2.72,2.72,2.72,2.72,2.72,2.6926,2.6174,2.5771,2.5292,2.4488,2.4081,2.3877,2.387,2.421,2.4895,2.604,2.6792,2.72,2.72,2.72,2.72,2.72,2.72,2.72,2.72,2.72,2.72,2.72,2.72,2.72,2.72,2.72,2.72,2.72,2.72,2.72,2.72,2.72,2.72,2.72,2.72,2.72,2.72,2.72,2.72,2.72,2.72,2.72,2.72,2.72,2.72,2.72,2.72,2.72,2.72,2.72,2.72,2.72,2.72,2.72,2.72,2.72,2.72,2.72,2.72,2.72,2.72,2.72,2.72,2.72,2.72,2.72,2.72,2.72,2.72,2.72,2.72,2.72,2.72,2.72,2.72,2.72,2.72,2.72,2.7153,2.705,2.7042,2.6875,2.6517,2.5929,2.5525,2.5477,2.523,2.5238,2.5422,2.5525,2.5897,2.6462,2.7963,2.8832,2.9273,3.1746,3.2957,3.3505,3.5253,3.6063,3.6441,3.7132,3.7374,3.7374,2.72,2.72,2.72,2.72,2.72,2.7067,2.6651,2.6592,2.6592,2.6592,2.6182,2.5846,2.5629,2.482,2.4006,2.3331,2.2853,2.2647,2.2647,2.3058,2.3741,2.4887,2.5981,2.6792,2.72,2.72,2.72,2.72,2.72,2.72,2.72,2.72,2.72,2.72,2.72,2.72,2.72,2.72,2.72,2.72,2.72,2.72,2.72,2.72,2.72,2.72,2.72,2.72,2.72,2.72,2.72,2.72,2.72,2.72,2.72,2.72,2.72,2.72,2.72,2.72,2.72,2.72,2.72,2.72,2.72,2.72,2.72,2.72,2.72,2.72,2.72,2.72,2.72,2.72,2.72,2.72,2.72,2.72,2.72,2.72,2.72,2.72,2.72,2.72,2.72,2.72,2.72,2.72,2.72,2.72,2.72,2.72,2.72,2.7097,2.6883,2.6327,2.5906,2.5573,2.5556,2.5564,2.5581,2.5921,2.6288,2.6882,2.8092,2.89,2.95,3.1194,3.231,3.3063,3.4684,3.5561,3.6002,3.7,3.7374,3.7374,2.72,2.72,2.72,2.72,2.72,2.6859,2.5764,2.5629,2.5562,2.5427,2.4549,2.4285,2.5225,2.3529,2.2242,2.2173,2.1283,2.0665,2.0665,2.1691,2.2722,2.3741,2.4955,2.604,2.7067,2.7134,2.72,2.72,2.72,2.72,2.72,2.72,2.72,2.72,2.72,2.72,2.72,2.72,2.72,2.72,2.72,2.72,2.72,2.72,2.72,2.72,2.72,2.72,2.72,2.72,2.72,2.72,2.72,2.72,2.72,2.72,2.72,2.72,2.72,2.72,2.72,2.72,2.72,2.72,2.72,2.72,2.72,2.72,2.72,2.72,2.72,2.72,2.72,2.72,2.72,2.72,2.72,2.72,2.72,2.72,2.72,2.72,2.72,2.72,2.72,2.72,2.72,2.72,2.72,2.72,2.72,2.72,2.72,2.72,2.72,2.6883,2.639,2.5668,2.6009,2.6001,2.5747,2.6382,2.7076,2.7702,2.8114,2.8979,3.0157,3.0222,3.1304,3.2936,3.3945,3.5005,3.6002,3.7011,3.7374,3.7374,2.72,2.72,2.72,2.72,2.72,2.6859,2.5764,2.5629,2.5292,2.442,2.4081,2.3672,2.3051,2.2578,2.1966,2.1144,2.0804,2.0665,2.0665,2.1691,2.2372,2.2647,2.4549,2.5697,2.5973,2.6792,2.72,2.72,2.72,2.72,2.72,2.72,2.72,2.72,2.72,2.72,2.72,2.72,2.72,2.72,2.72,2.72,2.72,2.72,2.72,2.72,2.72,2.72,2.72,2.72,2.72,2.72,2.72,2.72,2.72,2.72,2.72,2.72,2.72,2.72,2.72,2.72,2.72,2.72,2.72,2.72,2.72,2.72,2.72,2.72,2.72,2.72,2.72,2.72,2.72,2.72,2.72,2.72,2.72,2.72,2.72,2.72,2.72,2.72,2.72,2.72,2.72,2.72,2.72,2.72,2.72,2.72,2.72,2.72,2.72,2.7129,2.6875,2.6446,2.6303,2.6319,2.6454,2.6605,2.6885,2.7354,2.8031,2.8461,2.8782,2.9896,3.0982,3.2174,3.3461,3.4777,3.6002,3.6717,3.7143,3.7374,2.7661,2.7693,2.7693,2.7693,2.7209,2.652,2.5407,2.478,2.4164,2.3615,2.3071,2.2721,2.2714,2.2103,2.1426,2.0747,2.0665,2.0665,2.0665,2.1214,2.176,2.231,2.387,2.5022,2.5562,2.6658,2.72,2.72,2.72,2.72,2.72,2.72,2.72,2.72,2.72,2.72,2.72,2.72,2.72,2.72,2.72,2.72,2.72,2.72,2.72,2.72,2.72,2.72,2.72,2.72,2.72,2.72,2.72,2.72,2.72,2.72,2.72,2.72,2.72,2.72,2.72,2.72,2.72,2.72,2.72,2.72,2.72,2.72,2.72,2.72,2.72,2.72,2.72,2.72,2.72,2.72,2.72,2.72,2.72,2.72,2.72,2.72,2.72,2.72,2.72,2.72,2.72,2.72,2.72,2.72,2.72,2.72,2.72,2.72,2.72,2.72,2.7113,2.6922,2.674,2.666,2.6676,2.6851,2.7026,2.72,2.76,2.813,2.879,2.9185,3.0408,3.2202,3.3082,3.4215,3.5531,3.6545,3.7093,3.7374,2.817,2.8225,2.8156,2.794,2.7107,2.6051,2.4777,2.3714,2.3009,2.2872,2.2038,2.1828,2.2736,2.1821,2.1092,2.0762,2.0738,2.072,2.0671,2.0665,2.1081,2.1966,2.3058,2.4142,2.5285,2.6182,2.6792,2.72,2.72,2.72,2.72,2.72,2.72,2.72,2.72,2.72,2.72,2.72,2.72,2.72,2.72,2.72,2.72,2.72,2.72,2.72,2.72,2.72,2.72,2.72,2.72,2.72,2.72,2.72,2.72,2.72,2.72,2.72,2.72,2.72,2.72,2.72,2.72,2.72,2.72,2.72,2.72,2.72,2.72,2.72,2.72,2.72,2.72,2.72,2.72,2.72,2.72,2.72,2.72,2.72,2.72,2.72,2.72,2.72,2.72,2.72,2.72,2.72,2.72,2.72,2.72,2.72,2.72,2.72,2.72,2.72,2.72,2.72,2.72,2.705,2.6771,2.7073,2.72,2.72,2.72,2.7857,2.8914,2.8461,2.9887,3.2339,3.2702,3.3766,3.5294,3.6484,3.7093,3.7374,2.8217,2.8225,2.7871,2.689,2.6611,2.5763,2.3643,2.3223,2.2736,2.1828,2.1618,2.1552,2.169,2.1516,2.1311,2.1098,2.108,2.0977,2.0753,2.0665,2.0735,2.0943,2.1966,2.3051,2.4121,2.427,2.53,2.72,2.72,2.72,2.72,2.72,2.72,2.72,2.72,2.72,2.72,2.72,2.72,2.72,2.72,2.72,2.72,2.72,2.72,2.72,2.72,2.72,2.72,2.72,2.72,2.72,2.72,2.72,2.72,2.72,2.72,2.72,2.72,2.72,2.72,2.72,2.72,2.72,2.72,2.72,2.72,2.72,2.72,2.72,2.72,2.72,2.72,2.72,2.72,2.72,2.72,2.72,2.72,2.72,2.72,2.72,2.72,2.72,2.72,2.72,2.72,2.72,2.72,2.72,2.72,2.72,2.72,2.72,2.72,2.72,2.72,2.72,2.72,2.7177,2.7129,2.7185,2.72,2.72,2.72,2.7334,2.7533,2.8064,2.9731,3.189,3.2301,3.4017,3.6239,3.6739,3.7093,3.7374,2.8781,2.8821,2.846,2.7244,2.6515,2.5575,2.3845,2.3057,2.249,2.1988,2.1915,2.1915,2.1915,2.1788,2.1589,2.1317,2.1293,2.1178,2.0907,2.0889,2.0892,2.0747,2.176,2.2784,2.3863,2.387,2.4962,2.72,2.6592,2.6584,2.72,2.72,2.72,2.72,2.72,2.72,2.72,2.72,2.72,2.72,2.72,2.72,2.72,2.72,2.72,2.72,2.72,2.72,2.72,2.72,2.72,2.72,2.72,2.72,2.72,2.72,2.72,2.72,2.72,2.72,2.72,2.72,2.72,2.72,2.72,2.72,2.72,2.72,2.72,2.72,2.72,2.72,2.72,2.72,2.72,2.72,2.72,2.72,2.72,2.72,2.72,2.72,2.72,2.72,2.72,2.72,2.72,2.72,2.72,2.72,2.72,2.72,2.72,2.72,2.72,2.72,2.72,2.72,2.72,2.72,2.72,2.72,2.72,2.72,2.72,2.74,2.7799,2.7733,2.8954,3.0936,3.0752,3.2537,3.5397,3.6484,3.7093,3.7374]}]]